GFSSW_500_rhum_000.txt.gz
RH
14 15 27 30 24 24 24 22 23 23 22 24 28 38 32 36 31 40 35 50 62 63 51 44 44 43 36 30 25 18 13 31 36 16 10 14 18 23 25 26 85 83 77 68 52
17 25 30 30 31 30 28 29 33 33 28 25 24 24 46 27 38 33 41 47 63 66 59 48 48 48 40 33 28 21 14 24 41 32 15 14 16 23 30 30 53 89 93 71 66
22 40 32 41 41 38 36 40 40 31 30 33 31 24 44 45 33 32 45 49 63 70 61 51 52 46 45 34 32 23 18 21 31 37 28 17 15 22 32 36 58 69 58 61 63
40 47 41 48 40 38 50 55 45 49 60 40 28 42 60 74 30 46 46 54 64 69 62 62 52 45 47 36 34 22 22 24 24 27 33 15 15 27 32 38 52 73 54 70 72
47 51 61 54 48 41 53 56 68 73 45 34 37 71 81 78 49 35 52 56 60 56 57 70 58 53 50 41 36 26 26 24 24 22 37 24 14 22 32 37 43 67 53 63 78
60 64 68 66 46 49 46 52 70 80 49 53 55 62 83 53 66 33 57 70 58 51 62 71 67 68 53 46 36 29 31 23 22 28 27 34 15 21 35 37 42 51 59 73 70
78 68 76 67 57 49 51 58 68 89 55 70 87 73 69 62 69 41 52 81 56 50 62 85 86 69 57 52 40 29 28 22 23 33 26 30 23 15 34 29 42 48 64 58 54
78 76 71 74 70 63 56 67 78 84 68 81 95 92 56 76 71 48 51 80 62 52 57 94 87 76 64 55 46 29 26 22 27 31 32 25 29 18 33 36 44 49 54 48 45
81 78 78 86 89 86 72 78 83 93 78 86 91 95 55 83 64 51 47 72 73 63 61 100 92 78 68 60 48 34 22 25 31 28 29 26 40 21 31 37 40 48 48 44 40
80 91 86 94 98 97 95 98 95 97 86 90 90 100 92 75 65 49 44 72 84 75 83 94 97 73 67 58 49 36 20 29 36 31 30 41 46 19 33 38 38 39 42 42 49
91 92 84 96 98 97 100 100 97 96 91 83 88 96 100 93 62 47 45 72 94 79 68 73 84 54 58 63 53 35 25 31 36 29 31 37 36 15 38 35 32 39 47 49 47
89 92 99 98 98 98 98 99 100 100 100 94 77 80 100 100 65 43 46 66 94 79 80 90 76 76 77 66 51 37 26 32 34 26 33 41 35 16 40 44 48 51 47 37 18
86 96 98 96 98 99 97 95 100 100 100 97 94 100 98 98 58 40 46 62 96 97 65 71 78 79 73 65 52 38 31 34 36 31 36 44 39 9 36 44 49 51 26 10 8
63 78 98 98 97 99 98 100 100 100 96 100 86 86 92 83 51 40 44 67 96 90 77 78 90 74 83 69 53 39 48 43 36 33 38 33 38 13 18 44 57 47 26 17 24
60 90 98 98 97 98 99 99 100 100 100 96 98 100 96 79 42 41 44 73 96 90 82 78 82 96 69 72 55 55 60 53 39 34 35 44 41 21 12 37 49 36 23 24 33
74 93 100 98 99 98 98 99 100 100 100 98 68 84 89 58 45 43 46 87 100 100 89 96 84 97 86 69 63 66 60 76 46 40 28 43 35 33 12 19 25 22 20 23 26
82 93 99 97 100 99 99 99 99 100 100 92 76 90 78 40 43 41 52 85 91 86 94 99 89 79 83 78 54 69 82 82 59 40 24 36 35 34 18 13 15 17 20 18 16
75 90 95 96 98 99 98 98 100 100 100 100 78 99 60 44 45 43 57 90 89 90 77 75 76 72 78 61 52 60 76 58 43 34 28 29 29 38 25 10 14 17 16 19 18
60 59 80 95 97 99 98 98 99 87 100 91 83 76 56 92 52 53 56 76 78 78 84 66 59 69 67 68 67 90 72 73 55 38 24 27 38 39 31 10 8 12 14 18 18
49 53 62 95 96 89 98 98 99 98 96 89 66 56 99 100 99 84 56 94 78 79 78 74 64 64 71 66 61 68 96 69 49 40 28 26 30 29 18 7 6 12 14 13 13
43 51 70 96 92 97 99 98 97 93 85 82 57 74 83 75 79 72 89 79 84 76 81 71 66 63 62 49 46 51 44 43 46 39 32 28 25 15 2 2 9 13 12 11 10
41 47 77 94 94 97 98 98 98 99 78 76 73 86 100 93 98 97 74 71 87 66 60 58 58 61 53 49 62 59 54 56 48 52 42 29 12 2 3 10 18 22 19 20 31
41 37 71 94 98 97 98 97 97 98 89 77 58 68 79 77 98 99 100 98 95 85 66 58 52 54 53 57 63 51 52 55 51 54 29 11 4 8 20 30 41 34 43 54 57
38 42 72 93 96 99 96 98 97 98 100 72 67 68 58 84 95 97 98 94 86 78 73 67 55 53 52 51 56 54 62 73 64 35 13 2 11 29 38 43 50 61 64 54 44
38 41 70 99 95 99 98 96 99 98 88 69 66 82 70 65 91 90 81 92 96 96 97 98 89 94 80 77 96 94 94 81 19 1 2 18 24 39 45 54 63 63 50 46 42
43 43 56 93 68 96 93 98 98 100 98 83 85 73 84 83 65 80 100 99 81 92 96 100 99 100 100 100 99 89 70 14 0 0 2 18 42 53 51 63 65 47 40 46 50
46 49 58 94 75 85 99 96 98 97 97 94 90 92 71 79 79 83 89 92 94 94 98 97 98 98 98 95 68 38 24 16 9 16 34 34 49 65 68 50 41 52 67 60 30

GFSSW_500_rhum_003.txt.gz
RH
21 30 34 18 16 17 27 28 32 29 24 23 21 23 21 20 20 17 23 28 34 38 55 66 54 48 42 39 33 25 24 16 23 43 22 12 12 18 22 27 24 37 79 91 91
17 25 28 20 19 28 29 38 37 30 26 23 27 31 31 26 20 18 23 32 32 40 45 65 67 50 44 40 36 28 24 19 18 34 35 20 11 13 21 31 33 88 95 94 81
15 18 20 27 36 37 38 43 39 36 29 25 28 33 37 30 26 20 21 32 36 42 40 59 73 55 46 43 38 32 26 26 21 18 33 31 16 12 19 32 38 48 87 74 71
20 22 39 45 43 43 47 49 45 34 28 26 35 40 38 32 25 22 23 33 36 39 40 48 70 62 46 45 46 35 28 30 26 18 18 34 28 16 17 34 37 40 83 65 67
26 45 50 58 56 55 55 54 47 41 40 41 43 43 36 56 53 41 31 22 40 39 42 42 72 68 59 54 49 39 29 33 34 20 16 25 34 24 18 36 32 43 76 66 60
27 48 55 62 59 62 70 66 60 51 48 35 31 35 60 54 42 31 28 18 42 38 50 45 67 85 76 58 52 45 32 38 33 21 18 19 33 25 18 31 32 33 63 68 70
22 52 56 71 65 74 68 72 69 66 57 42 42 50 57 55 54 43 34 24 42 40 52 50 79 97 76 68 56 45 35 41 31 24 22 16 28 41 21 24 33 33 51 59 72
34 62 62 69 71 68 61 78 81 85 78 59 53 49 47 86 81 76 98 98 55 47 59 68 81 98 91 73 58 50 41 37 33 28 21 15 47 28 29 18 33 37 47 61 63
27 66 69 72 72 64 70 91 90 84 83 80 64 60 74 95 99 90 100 94 48 59 68 78 92 98 94 78 61 54 40 33 45 26 20 16 41 27 27 18 32 35 46 54 52
30 51 74 76 82 83 88 90 89 86 88 89 86 74 81 99 100 77 89 88 54 64 82 78 94 93 91 78 65 54 42 32 45 28 20 19 32 26 29 22 36 37 38 48 50
35 55 75 74 82 92 98 98 93 90 95 100 96 94 72 100 99 87 88 85 61 67 83 68 85 86 83 80 77 53 48 39 48 26 19 22 28 27 37 22 38 38 41 46 48
36 54 60 60 85 95 96 99 100 99 93 100 100 96 73 91 95 89 99 87 60 62 96 96 82 96 100 94 80 62 49 46 38 26 21 23 30 37 35 20 40 35 38 39 38
37 60 68 84 95 97 97 99 100 100 97 100 100 97 79 84 100 96 92 90 57 82 95 68 81 100 97 94 80 65 54 46 35 27 23 25 30 43 28 24 41 46 46 45 47
36 58 78 90 99 97 99 98 100 100 99 100 100 97 73 79 98 100 86 88 57 92 98 90 100 95 97 96 78 65 55 47 42 30 28 26 28 57 21 17 38 44 44 49 47
31 59 75 85 97 98 99 99 100 100 100 99 100 94 87 63 91 93 81 70 57 98 96 98 88 85 96 81 82 68 56 47 46 33 29 29 30 56 44 6 22 41 50 49 43
24 62 78 86 94 98 98 99 100 100 100 100 100 100 90 73 100 100 65 61 74 99 100 100 100 98 94 92 92 67 59 56 50 42 30 43 31 53 45 14 10 22 39 42 25
19 60 60 72 87 98 100 99 100 100 100 100 100 83 92 91 83 70 53 54 98 98 97 99 88 94 84 88 84 66 63 63 62 47 31 38 36 46 38 28 9 10 15 14 12
8 58 54 55 92 97 98 97 97 100 100 100 81 96 100 93 82 50 49 54 86 94 99 96 94 80 64 94 71 71 63 67 73 47 39 37 32 36 36 36 19 8 10 11 11
4 40 48 48 93 96 98 98 98 100 100 97 63 81 100 96 61 45 44 53 82 84 95 83 71 73 84 98 89 89 69 78 52 50 43 39 32 30 40 38 35 25 7 7 12
8 25 42 55 94 99 98 98 98 99 99 38 54 61 54 63 59 41 44 61 83 89 87 92 70 60 82 92 94 90 81 72 54 56 38 34 34 31 35 34 32 27 18 6 8
21 16 34 56 86 88 99 98 96 97 86 46 43 40 58 48 44 42 47 68 83 90 88 80 83 71 71 65 71 69 59 62 75 61 38 28 33 38 33 26 22 12 6 6 10
38 14 32 48 84 94 100 98 97 89 53 44 94 100 78 53 44 44 52 81 88 87 72 81 78 83 73 68 73 64 68 99 68 54 47 42 47 39 21 14 8 1 5 16 21
51 13 37 60 81 94 96 98 97 84 78 55 57 94 100 100 52 48 64 88 100 92 82 90 81 69 73 74 66 59 51 53 57 44 35 37 34 33 19 4 3 10 19 35 54
58 14 35 62 89 87 96 98 97 96 96 68 62 70 61 72 91 76 70 93 94 97 96 93 87 77 65 59 63 52 46 49 56 45 42 40 47 11 1 2 14 28 48 60 72
59 18 37 84 92 94 96 98 98 98 98 79 57 60 79 70 69 78 77 83 83 94 78 66 64 63 60 55 55 56 72 97 78 65 61 56 18 2 2 17 31 47 66 74 63
53 26 33 82 72 92 98 98 98 98 98 91 64 63 68 73 77 79 98 84 81 78 70 72 78 69 66 61 64 69 60 61 57 65 67 34 1 7 23 31 43 62 71 64 50
43 32 37 80 76 89 97 98 98 96 97 84 73 69 53 96 93 100 100 100 100 96 82 78 85 92 91 93 81 60 73 85 90 85 43 8 7 14 31 41 57 64 59 47 46

GFSSW_500_rhum_006.txt.gz
RH
18 20 20 20 18 29 33 23 16 15 17 24 30 29 25 22 18 17 14 23 16 23 28 35 43 54 60 55 47 41 30 28 26 17 27 33 17 13 15 28 29 30 21 48 89
19 22 20 18 18 24 23 20 18 19 26 29 33 31 29 28 21 17 21 22 24 19 25 32 38 52 54 60 51 41 34 32 31 19 19 31 29 12 14 25 29 32 36 74 77
19 22 17 20 19 27 34 28 31 31 34 38 39 37 30 21 19 15 23 23 23 19 22 27 40 38 53 58 53 45 34 35 33 25 17 22 36 16 12 21 30 35 70 80 84
18 24 16 27 45 40 41 39 41 46 45 41 41 35 28 25 21 19 19 26 26 24 21 24 34 40 40 54 58 50 41 35 36 30 16 17 35 22 9 16 29 35 47 52 77
19 29 18 21 47 45 43 46 51 52 46 42 46 38 37 33 26 28 29 34 33 31 25 27 33 47 39 54 67 55 46 38 37 33 20 16 27 32 18 15 31 32 34 56 71
14 35 22 24 48 49 54 59 60 49 37 34 35 36 43 39 37 37 33 32 38 31 30 25 30 44 62 61 68 64 52 43 39 36 26 19 22 18 38 14 22 31 37 60 74
15 32 28 26 61 57 61 60 53 48 45 47 50 55 52 51 43 40 38 34 35 46 30 31 34 44 67 65 76 66 54 44 43 39 28 24 22 22 43 26 17 28 34 38 72
14 26 35 24 63 69 67 58 56 62 52 56 65 59 46 56 49 43 37 40 27 41 44 26 31 41 63 70 87 76 58 42 51 41 30 26 28 28 21 32 20 25 33 35 65
14 25 41 32 41 70 71 67 63 63 62 76 72 61 52 62 63 52 38 38 37 49 36 26 25 40 77 74 85 83 56 45 53 40 34 24 32 23 20 27 30 20 32 40 55
15 27 44 42 50 57 56 57 68 69 74 86 86 76 68 59 62 67 52 86 85 56 36 27 26 45 77 80 63 77 60 52 50 42 33 23 35 26 19 23 32 21 32 38 49
15 26 48 43 57 58 70 75 79 73 91 86 89 96 83 78 90 71 77 99 85 72 45 35 39 46 65 64 85 86 76 55 53 46 33 25 35 26 18 28 27 24 36 36 46
16 26 47 46 71 76 87 88 86 92 92 97 99 100 99 96 95 63 82 76 90 100 95 100 50 57 100 96 97 90 72 56 61 46 30 30 31 26 22 25 30 24 38 35 37
17 26 42 47 62 85 97 94 94 100 99 97 100 100 100 100 82 75 78 74 90 100 100 98 44 77 95 91 96 92 69 58 70 48 29 32 34 29 24 25 32 23 34 35 39
18 28 37 36 70 81 84 96 98 100 100 88 100 100 100 100 69 66 86 71 91 100 100 99 93 96 96 92 97 94 71 69 70 52 37 32 30 33 31 26 30 24 36 40 42
18 31 29 27 64 67 83 97 99 100 97 98 100 100 100 100 77 72 92 75 97 100 100 96 98 98 97 83 97 95 78 80 68 55 41 37 34 33 31 27 30 23 43 47 46
18 30 18 32 59 62 90 99 100 100 98 100 100 100 96 99 78 95 86 94 100 100 100 100 89 98 90 96 98 93 85 76 64 55 44 36 36 52 40 44 35 20 36 41 42
18 25 28 17 54 60 98 100 99 99 100 100 100 100 100 94 67 100 91 95 100 97 96 98 98 86 96 98 94 96 88 75 67 56 43 40 35 50 48 48 45 23 9 18 34
19 24 45 10 46 86 97 99 100 99 100 100 100 100 100 88 92 100 100 100 100 83 100 98 93 86 68 95 86 88 82 71 72 59 44 45 36 40 44 53 47 34 16 8 11
19 26 45 13 50 99 98 100 98 99 100 94 97 94 98 84 100 100 99 100 86 92 97 98 83 97 79 66 96 88 78 70 72 58 43 47 38 44 41 39 38 35 30 12 9
19 30 43 18 61 96 98 100 98 99 100 46 49 65 61 81 90 80 87 98 60 96 99 97 99 82 91 91 92 77 82 70 63 58 55 56 46 45 37 32 31 35 36 35 27
19 26 39 15 55 96 98 99 97 93 52 37 46 53 62 61 60 55 73 72 59 88 97 100 90 72 93 76 82 68 85 76 69 55 46 55 44 37 38 38 36 32 30 28 25
19 24 41 18 56 96 98 97 98 77 52 30 34 48 53 49 47 45 48 55 62 69 86 98 80 66 55 70 93 98 95 98 77 56 47 48 51 44 39 34 33 27 21 15 10
19 20 44 26 73 96 98 98 98 85 53 57 44 54 66 45 41 44 48 62 70 79 72 79 84 75 86 85 88 90 81 83 70 55 50 58 46 42 47 48 33 12 3 3 6
20 21 42 23 85 94 95 98 98 93 51 44 53 61 68 42 43 44 52 74 90 94 96 82 82 82 67 60 65 64 56 72 64 56 54 45 52 56 77 61 24 15 7 23 40
21 26 48 24 90 99 97 98 98 96 84 55 44 55 58 48 44 44 49 62 85 92 96 92 83 85 75 75 79 76 77 78 65 55 47 74 62 62 54 34 12 2 5 28 55
24 19 36 26 85 95 98 99 98 98 98 97 77 54 67 55 56 54 53 70 78 67 71 76 78 80 83 72 71 62 65 60 57 56 49 49 49 76 38 16 9 4 23 48 59
26 20 40 32 56 94 98 98 99 96 98 98 100 68 64 66 79 97 83 96 98 98 90 84 80 87 85 74 67 64 53 56 51 49 51 46 68 55 23 6 6 17 36 39 44

GFSSW_500_rhum_012.txt.gz
RH
5 6 5 5 6 7 7 8 14 16 12 11 18 26 23 13 11 11 12 15 20 23 22 20 16 16 22 15 21 25 28 42 42 50 47 41 29 25 34 26 25 32 30 25 27
5 6 6 6 6 7 8 8 16 17 13 11 18 23 23 29 19 12 13 13 19 22 24 23 19 15 14 22 18 20 22 25 52 54 49 40 30 32 22 35 22 25 28 28 30
6 6 6 6 6 7 8 9 15 22 16 18 17 30 31 24 24 17 15 18 28 28 30 27 21 18 16 21 20 19 18 24 36 57 52 42 34 38 29 26 30 19 24 22 21
8 7 6 6 7 8 9 9 12 22 21 20 32 36 37 29 22 15 25 39 34 31 32 30 29 25 20 18 24 18 17 28 30 54 54 41 44 34 32 23 31 22 16 16 25
9 8 7 7 8 8 10 11 12 17 27 19 32 40 44 39 45 31 28 36 36 33 35 33 24 20 19 21 22 19 16 22 31 41 53 42 46 40 31 27 28 29 13 13 22
10 9 7 7 8 9 9 11 12 16 30 28 34 44 52 46 56 45 43 39 35 35 34 30 27 27 23 21 22 22 21 20 27 32 45 48 49 42 35 29 23 38 15 12 19
10 9 8 7 7 9 10 11 12 20 34 30 43 53 51 62 50 51 42 43 39 36 33 31 28 29 29 26 24 23 23 22 21 28 27 50 46 37 41 29 23 39 28 10 15
11 10 9 9 7 8 12 11 14 21 34 34 32 55 54 62 49 47 33 38 41 38 35 36 37 39 35 31 28 29 27 18 16 25 25 38 44 47 41 32 25 22 34 24 14
17 14 11 10 9 7 11 14 17 24 34 36 31 36 42 60 51 43 49 53 50 48 46 50 47 45 43 38 38 34 23 16 27 23 28 28 45 51 44 38 30 21 23 34 22
19 17 15 12 10 8 10 15 24 27 35 30 31 41 43 59 64 65 61 59 58 56 56 60 60 50 41 38 27 26 27 19 20 27 32 29 45 51 46 39 33 22 21 22 29
20 18 17 15 11 9 8 17 25 25 30 29 39 63 60 71 73 66 59 60 63 58 74 69 60 44 39 37 37 42 38 38 39 24 35 33 50 52 51 43 33 30 26 20 31
18 19 18 16 12 10 8 18 25 25 28 26 45 52 64 71 66 64 67 72 72 66 87 79 60 51 41 39 36 35 45 35 52 44 42 38 39 57 51 45 37 32 29 21 22
10 18 18 16 13 11 10 19 28 25 27 24 44 50 68 72 78 84 87 93 86 80 79 96 68 75 46 25 27 25 28 44 47 63 44 41 40 57 55 46 38 36 28 24 30
11 16 25 16 14 12 12 18 35 33 25 21 34 61 85 79 74 99 92 100 84 72 98 86 70 67 53 40 33 23 18 26 59 66 55 56 37 58 59 52 43 36 34 23 28
22 16 24 16 14 13 14 20 33 35 27 26 63 84 87 98 95 86 100 100 98 96 100 82 74 48 42 37 32 22 31 37 72 90 97 67 59 54 54 50 37 37 32 22 25
67 19 18 16 15 16 17 24 35 31 22 60 95 94 90 90 84 88 92 100 100 100 87 65 73 76 58 98 86 35 36 86 87 99 77 89 83 55 54 42 36 37 30 22 26
83 22 19 16 17 21 18 21 36 26 41 92 98 96 96 93 96 96 97 100 92 87 70 72 65 91 86 100 94 45 54 71 99 99 88 70 77 69 59 46 32 37 29 25 31
52 24 18 16 21 25 17 22 35 27 58 98 98 97 88 94 68 100 100 94 79 76 81 73 94 85 69 88 45 41 93 98 86 94 62 60 84 64 62 50 38 30 27 26 30
31 20 17 20 28 25 17 26 32 27 92 99 98 96 68 47 92 100 96 86 73 72 76 100 95 99 80 90 77 84 99 96 98 99 65 44 72 59 58 49 42 33 33 34 35
24 19 19 24 30 19 16 45 24 53 99 99 96 68 42 53 76 98 95 87 75 94 100 100 100 100 100 93 100 89 99 97 98 84 91 94 75 56 52 50 42 36 38 43 41
23 20 24 27 26 18 36 35 45 98 98 98 57 44 56 57 64 71 81 94 88 87 100 100 99 70 53 52 96 98 97 97 83 96 98 77 73 56 46 47 43 39 42 55 53
23 19 28 30 28 20 53 31 96 97 98 96 38 46 54 68 84 83 100 97 86 100 100 98 98 72 67 85 95 98 100 90 98 99 91 72 63 48 51 48 48 42 41 42 39
22 24 32 30 21 27 52 34 98 96 98 69 37 35 27 40 63 53 72 100 100 99 100 99 96 92 88 90 99 98 97 88 84 93 90 68 58 52 62 61 57 48 40 36 32
25 30 31 28 19 24 51 33 99 97 98 72 36 35 30 36 73 94 92 95 100 99 99 100 97 98 98 75 71 86 97 97 92 93 80 74 63 59 68 68 64 58 46 38 34
26 33 30 24 22 31 44 55 98 99 98 92 51 33 37 44 58 88 100 89 88 96 97 98 98 98 100 80 96 95 97 96 89 80 73 87 73 57 61 68 66 69 55 43 36
27 34 32 27 28 34 52 40 97 99 98 98 74 37 28 35 42 57 82 94 95 98 98 97 99 82 82 83 70 72 75 69 82 90 96 90 85 79 64 61 63 61 52 43 40
35 33 27 25 32 37 56 34 97 98 98 98 81 63 36 32 33 39 56 94 97 98 95 98 100 90 68 62 68 72 59 55 56 72 80 77 90 88 72 75 81 59 57 58 52

GFSSW_500_rhum_015.txt.gz
RH
6 6 6 6 6 6 6 6 6 6 7 9 12 13 12 11 17 18 10 11 11 12 14 17 22 24 24 24 26 26 12 12 15 42 63 55 42 35 32 26 30 28 30 30 27
9 7 6 6 6 6 6 6 6 6 7 9 13 15 14 11 12 20 26 16 11 11 12 14 20 24 24 24 20 15 12 11 20 23 50 63 51 34 37 31 29 31 28 27 23
10 10 8 7 6 6 6 6 7 6 6 7 10 16 16 17 14 25 26 24 22 14 13 14 18 23 25 25 21 17 12 18 17 23 28 54 50 38 41 40 30 28 28 26 23
10 9 9 8 7 6 6 6 6 6 7 8 10 14 18 17 31 33 38 41 29 23 18 16 15 20 23 27 24 16 15 16 19 20 21 23 47 42 38 44 33 24 25 31 21
9 9 8 8 8 7 6 6 6 7 8 10 11 12 19 23 31 26 39 40 39 33 29 26 22 27 26 29 29 19 17 15 18 15 17 20 22 46 43 45 39 32 23 30 27
11 9 8 7 8 8 6 6 7 8 8 11 11 15 23 33 33 29 39 53 54 46 38 34 36 34 30 34 30 19 14 10 12 15 13 15 16 29 54 53 37 36 28 22 31
13 12 10 9 8 8 8 7 6 7 10 12 11 12 32 34 30 42 42 54 54 48 44 40 37 32 28 26 23 18 14 14 12 16 14 20 12 13 51 56 41 38 34 22 29
19 17 15 11 10 9 9 8 8 6 7 10 11 12 34 32 29 47 47 55 50 48 45 38 39 37 33 32 28 23 19 15 15 16 18 20 8 14 27 55 42 41 34 22 30
19 20 20 20 17 13 11 11 10 8 6 8 10 14 30 33 28 34 45 58 46 44 36 35 37 36 39 37 34 31 26 22 20 22 21 20 11 14 26 47 48 42 38 26 21
34 18 20 20 20 18 15 14 12 9 8 7 12 18 27 33 36 48 45 45 42 46 52 55 47 45 43 39 35 40 42 39 28 31 30 21 13 16 30 36 49 47 39 27 21
57 56 25 19 20 20 18 17 13 11 9 8 8 17 28 31 35 46 49 57 64 63 62 58 44 40 64 64 58 54 47 38 32 30 38 23 20 20 31 32 53 49 42 28 22
34 50 60 39 17 20 19 16 15 13 10 9 9 18 27 28 33 46 52 58 65 68 65 52 42 75 77 70 60 56 48 38 36 36 42 35 24 27 29 32 50 55 43 32 25
8 39 56 61 23 15 20 17 18 15 12 9 15 24 30 26 27 68 77 74 70 67 68 55 55 87 81 77 68 59 50 42 36 45 50 49 35 25 27 28 54 55 45 35 29
9 11 56 63 56 12 18 18 18 15 12 12 15 28 30 39 55 86 75 78 67 74 91 62 82 76 87 72 74 63 53 44 36 44 39 64 37 31 21 22 55 58 45 41 32
6 7 42 60 78 23 18 19 22 15 15 18 24 28 35 68 72 89 88 82 78 87 95 80 84 100 80 60 99 69 65 38 32 31 47 71 77 17 38 22 44 58 49 43 31
10 10 39 58 75 25 17 17 28 16 16 22 30 27 36 85 90 91 94 96 95 100 98 94 95 94 77 79 86 66 82 42 26 23 52 33 58 20 38 25 32 61 52 44 29
36 46 50 53 79 37 18 19 18 17 27 29 29 31 55 94 98 86 75 73 100 100 100 98 100 98 90 84 83 79 67 49 36 40 21 71 100 89 52 41 38 56 48 39 32
69 78 59 56 80 43 19 22 17 20 37 34 29 42 95 99 78 46 38 46 80 100 100 100 98 98 75 63 61 58 46 39 33 20 25 83 84 92 79 50 51 57 48 38 30
84 67 55 72 89 26 29 17 21 36 38 30 50 95 95 79 53 45 76 98 98 99 94 87 62 69 61 81 100 70 62 28 25 22 86 76 94 100 85 75 74 48 42 34 33
100 71 69 100 63 36 35 19 35 38 33 66 96 95 49 58 57 51 64 77 86 83 59 54 94 100 100 97 88 93 79 77 51 37 88 97 97 62 56 58 57 44 45 34 31
95 67 96 91 30 44 18 34 42 41 77 96 99 53 46 66 66 61 62 58 69 71 60 99 100 100 100 100 70 84 70 56 49 91 80 82 67 52 54 72 59 50 41 33 35
83 77 99 43 38 20 27 44 49 48 99 98 83 34 27 39 43 56 54 86 90 97 95 99 100 100 92 56 74 97 81 69 91 95 96 97 81 58 65 68 52 47 39 38 42
95 87 91 34 26 23 38 40 50 79 100 98 38 25 18 16 20 28 34 61 76 98 100 100 91 55 69 83 66 70 88 95 98 97 92 71 68 82 68 54 46 46 47 45 45
87 92 57 30 21 33 42 38 54 75 99 93 39 37 27 30 35 26 52 77 100 99 100 99 100 70 66 66 68 72 83 98 97 97 97 94 79 69 56 56 53 53 54 49 42
88 97 32 29 31 42 34 51 45 99 98 87 55 40 42 33 41 61 82 83 80 98 100 99 99 89 78 86 93 98 95 97 98 99 98 94 91 67 65 66 67 68 60 50 44
87 79 26 35 36 33 31 64 53 99 99 97 54 35 35 36 43 50 68 84 93 97 97 98 98 99 94 99 97 95 98 99 99 99 93 97 96 88 82 70 66 64 58 61 53
88 26 30 39 53 48 53 66 41 98 99 98 76 38 32 35 28 38 47 68 81 96 96 97 97 100 100 100 81 83 92 70 83 98 98 91 96 91 79 76 78 68 53 60 58

GFSSW_500_rhum_018.txt.gz
RH
11 10 10 8 8 7 7 7 7 6 7 7 7 8 9 9 11 12 12 17 13 11 14 16 17 18 18 19 21 21 16 9 12 16 30 56 50 41 41 39 31 30 24 23 24
13 12 11 9 8 8 7 7 6 6 7 7 6 7 8 9 12 16 13 12 17 13 12 13 14 14 16 19 21 22 16 12 16 16 20 38 43 46 36 40 37 30 24 22 24
15 14 12 11 9 8 8 8 7 6 7 7 6 6 6 9 11 20 18 15 14 22 20 13 11 12 13 15 19 20 13 17 17 16 13 23 19 34 40 41 45 37 28 24 22
14 13 11 11 11 10 9 8 8 7 7 7 6 6 7 8 12 22 25 28 26 20 21 22 17 12 12 13 16 14 17 20 20 18 15 14 25 17 29 47 48 42 32 24 28
14 12 11 10 10 10 10 9 8 7 7 6 6 6 8 9 12 11 25 27 32 31 28 26 26 23 16 13 14 12 14 20 21 18 15 14 11 13 13 32 59 49 41 31 25
18 15 13 12 11 10 9 9 8 7 6 6 6 6 8 10 10 12 19 32 30 35 36 32 30 23 18 14 13 14 16 22 22 24 18 14 11 10 12 18 43 51 46 41 35
20 18 17 15 14 12 10 9 9 8 7 6 6 6 8 8 10 15 22 28 31 42 46 46 46 32 25 22 19 16 21 25 24 23 21 20 11 9 12 25 24 46 48 42 42
19 20 20 19 16 14 13 10 10 9 8 7 7 6 7 8 9 14 23 24 24 36 53 53 55 51 48 42 36 30 27 21 19 20 19 23 8 13 12 17 28 38 50 44 42
56 25 19 20 20 19 18 19 17 13 10 9 8 8 8 10 11 17 26 26 26 29 32 55 58 54 49 40 35 33 27 23 22 30 30 28 13 17 15 14 20 32 52 50 43
49 59 45 22 19 20 20 20 20 19 14 11 10 10 9 13 13 18 26 30 29 41 44 40 41 46 40 33 25 29 33 37 33 36 38 32 16 20 21 19 17 24 40 52 44
17 32 49 59 49 22 18 20 20 20 20 16 12 12 11 10 11 16 24 28 29 32 44 47 42 28 34 47 47 41 38 35 38 39 39 31 24 21 21 18 15 21 24 45 50
40 22 18 36 55 59 44 22 18 20 20 18 14 13 13 11 11 25 25 25 27 29 31 36 42 52 63 61 52 47 40 36 40 44 38 36 23 21 22 18 14 17 26 30 52
7 27 23 14 20 46 59 59 36 18 20 19 18 19 18 15 14 23 26 27 29 31 49 60 60 60 62 64 59 49 45 55 52 54 44 42 28 25 24 23 15 13 23 25 50
3 3 14 20 15 16 48 58 55 27 17 18 19 26 25 23 22 26 27 43 52 68 76 61 60 62 66 65 74 51 72 73 66 60 46 52 27 31 29 23 18 16 20 23 39
20 3 4 9 15 17 32 56 61 46 20 21 22 32 29 23 24 26 32 46 70 82 80 68 72 82 70 90 99 75 90 81 74 68 57 48 36 22 35 20 15 20 24 26 38
100 95 9 6 8 14 32 48 58 66 32 24 28 36 29 26 25 27 57 83 90 94 87 88 81 82 85 100 100 95 92 97 82 71 54 39 41 19 35 20 21 25 35 33 59
100 94 83 17 39 31 34 39 51 60 37 30 33 31 27 28 28 66 98 100 90 66 54 68 72 85 100 100 100 100 100 100 97 78 40 42 41 19 27 38 23 28 30 40 61
87 100 100 83 67 48 39 32 48 51 25 22 25 21 27 34 79 98 71 50 46 42 50 87 99 90 85 100 100 100 100 100 82 68 52 42 34 25 25 60 46 44 28 44 65
100 100 78 40 80 65 42 26 48 44 23 22 22 25 38 94 85 44 48 44 42 63 92 86 99 100 100 100 100 94 98 87 99 77 63 41 34 28 38 39 36 49 34 32 58
100 94 93 79 85 60 52 41 56 28 25 23 30 30 94 60 26 33 38 44 62 75 80 75 83 82 88 75 81 62 81 97 78 63 43 45 33 26 68 82 60 46 38 53 52
67 95 98 94 91 60 46 66 43 29 28 29 38 81 69 13 16 23 29 33 45 49 45 60 57 69 68 69 68 71 61 88 58 49 59 51 34 28 74 94 79 70 68 60 50
100 100 97 72 70 61 83 51 34 30 28 36 56 99 15 14 20 23 29 46 51 43 59 89 98 100 100 100 100 100 83 64 45 43 51 74 84 77 96 92 96 92 83 62 45
100 100 100 78 85 67 78 41 28 34 43 50 89 97 16 16 17 20 34 72 93 85 96 100 99 87 98 79 78 84 42 56 77 37 41 74 43 62 96 81 93 67 58 49 48
96 99 86 60 92 100 44 34 32 42 53 66 99 66 18 18 24 36 31 52 88 97 100 100 100 100 100 100 100 73 54 56 49 32 71 97 98 96 98 76 74 56 50 50 47
96 77 52 39 72 66 48 36 39 63 62 97 98 57 28 22 28 44 56 65 82 98 100 99 100 99 86 98 98 64 71 42 19 61 99 98 99 97 98 93 83 71 66 60 56
99 100 74 60 99 74 34 46 65 66 75 99 96 67 36 35 30 38 48 68 90 97 98 100 100 100 77 57 58 70 76 79 91 93 97 99 97 100 94 88 78 74 69 68 66
89 94 76 98 76 44 45 42 56 54 92 99 95 74 32 26 32 50 61 69 88 95 99 98 98 100 97 96 95 96 95 97 98 97 97 99 95 100 100 94 90 79 71 74 75

GFSSW_500_rhum_021.txt.gz
RH
18 16 15 12 10 8 8 9 9 7 7 7 8 9 8 8 9 10 10 10 11 15 16 14 10 10 12 12 13 16 12 11 13 17 19 25 29 50 51 43 40 34 29 25 22
19 16 15 14 12 10 9 9 11 11 10 9 8 8 7 6 10 12 7 8 11 12 14 16 12 12 14 18 18 17 13 13 19 25 26 22 20 23 44 52 48 40 32 27 24
20 18 17 16 15 13 12 10 11 12 10 8 8 8 7 7 8 13 8 11 13 13 12 13 16 12 15 16 16 15 13 16 23 26 26 22 13 14 16 39 54 53 37 30 25
22 20 18 17 14 14 13 12 11 11 10 9 8 8 8 8 8 11 10 10 13 15 18 15 14 19 16 12 13 13 14 15 20 25 25 20 16 9 9 15 42 56 47 35 29
22 21 19 16 13 12 11 12 12 11 10 9 8 8 7 8 8 7 11 11 11 15 18 19 25 22 20 20 17 11 12 12 14 18 22 23 16 12 8 10 18 43 54 44 32
21 22 21 17 14 11 10 11 12 11 10 9 8 7 7 7 7 9 11 11 11 13 17 19 23 27 26 22 22 19 11 11 12 14 15 22 20 16 11 10 13 20 47 52 44
63 22 22 20 18 15 13 12 11 11 11 10 8 7 6 6 7 7 8 10 12 16 17 18 22 31 36 34 26 25 21 12 11 12 16 25 18 13 17 16 14 16 27 56 53
55 67 23 21 21 19 17 16 15 14 12 11 10 9 8 7 7 6 7 8 10 15 19 18 19 24 38 47 38 33 25 19 17 20 21 32 11 20 18 20 15 14 20 34 63
34 48 68 34 20 21 20 19 19 17 15 13 11 11 11 9 8 9 9 8 10 16 20 19 20 21 27 48 53 46 39 35 28 32 30 29 13 23 21 17 16 16 15 21 43
21 31 40 64 53 22 20 20 20 20 19 19 18 16 13 11 11 11 10 9 8 10 15 25 25 21 26 33 42 56 53 48 41 44 43 27 15 16 20 14 14 16 14 15 19
55 31 22 37 59 60 36 19 19 20 21 21 18 19 18 15 13 12 12 11 10 9 12 19 20 20 35 44 39 32 47 46 42 34 32 31 22 19 19 20 16 16 14 12 14
4 46 36 23 27 48 59 55 41 21 18 20 20 20 20 18 16 14 15 14 12 12 14 15 16 26 31 30 35 43 36 31 28 35 33 32 22 22 20 19 21 19 16 12 12
3 4 31 24 37 22 35 49 60 54 36 20 18 19 20 20 19 20 21 21 17 15 18 21 22 27 26 35 48 54 52 54 49 58 52 39 21 24 21 23 26 24 19 15 10
3 6 41 9 21 36 21 25 41 57 56 49 34 20 19 19 20 20 25 26 24 21 22 19 21 42 62 61 74 64 73 70 66 64 54 52 24 31 26 24 22 23 21 15 12
3 17 100 5 5 13 38 24 19 31 45 45 44 40 27 21 22 25 28 30 26 22 21 23 26 52 51 65 77 59 76 71 70 66 55 50 42 20 31 22 21 23 22 16 15
4 47 100 99 13 6 25 28 22 26 26 32 34 41 38 28 26 27 30 29 21 23 33 46 59 67 76 81 80 80 84 89 90 81 51 49 53 18 20 25 23 25 28 23 18
56 100 100 100 88 16 12 26 30 24 28 28 35 51 52 40 30 28 26 23 36 60 67 70 67 66 71 83 98 100 100 100 100 94 56 50 51 23 20 25 26 30 32 26 20
100 95 98 100 83 34 10 22 25 25 25 31 40 48 41 27 26 28 33 74 67 43 34 32 32 35 38 75 100 100 100 100 100 84 82 88 41 28 26 32 30 31 32 27 21
99 94 80 100 100 78 18 14 21 26 27 40 52 50 28 24 31 65 51 16 16 23 30 32 28 42 57 100 99 98 99 98 100 100 100 84 43 34 38 29 29 36 41 29 23
93 100 100 100 80 81 56 18 33 40 39 55 53 40 29 34 74 22 11 15 19 19 29 37 31 47 67 85 89 96 100 100 100 91 88 47 46 36 35 29 32 35 44 36 27
100 100 100 100 100 100 44 37 39 44 62 58 41 28 32 84 34 14 15 25 23 24 29 29 29 42 45 42 61 92 83 79 96 85 59 43 34 30 21 33 36 33 54 51 38
100 99 100 100 98 70 34 55 52 57 68 49 31 30 64 80 22 17 21 22 37 60 58 64 62 97 99 94 75 58 66 77 78 72 57 47 30 23 28 36 100 59 47 49 45
100 100 100 100 60 44 36 66 65 86 64 33 32 46 92 82 17 15 18 22 29 54 86 99 90 95 97 100 100 91 89 88 76 64 50 41 39 48 94 68 98 93 77 76 70
97 99 100 97 75 99 83 66 81 78 39 36 55 74 87 65 16 15 32 34 37 74 88 97 98 100 100 100 100 99 98 100 97 46 33 19 90 99 98 96 93 98 97 96 70
100 97 96 53 69 84 92 80 100 53 43 73 64 68 92 61 22 16 30 47 74 97 96 99 100 100 100 98 99 100 67 47 25 27 33 54 94 92 96 98 96 96 98 75 60
100 100 93 95 79 91 100 96 64 52 74 79 68 83 100 61 25 21 37 67 88 100 99 100 99 100 94 93 80 42 21 17 21 30 36 86 99 98 98 98 93 86 99 84 72
99 100 100 86 80 76 87 99 59 62 80 72 86 92 100 52 29 35 57 71 93 97 100 100 96 100 93 80 62 39 47 35 38 88 98 98 99 99 91 93 86 92 99 85 77

GFSSW_500_rhum_024.txt.gz
RH
30 33 35 27 22 18 15 13 11 8 7 6 10 10 11 10 5 8 11 9 9 10 11 11 14 14 12 9 9 12 10 12 14 16 19 22 19 18 20 44 47 42 38 37 33
36 39 32 20 19 17 16 14 11 9 8 8 8 8 8 6 7 12 9 8 10 11 11 10 11 14 14 13 11 9 8 10 13 19 23 25 20 15 15 24 50 54 48 40 35
35 44 36 20 19 17 16 16 14 11 9 9 10 12 14 10 10 12 9 11 12 11 11 10 12 11 12 14 14 12 11 16 16 18 21 25 24 21 12 13 23 49 50 43 38
33 51 30 22 20 18 18 18 17 14 12 10 12 15 16 11 10 13 9 10 10 10 11 12 12 13 12 13 14 13 14 16 16 15 18 25 24 18 10 10 14 17 36 50 42
39 47 42 22 21 20 18 17 16 16 14 12 12 13 13 11 10 8 9 9 9 10 11 11 12 14 15 16 14 12 16 14 13 14 15 21 24 22 13 11 12 12 16 48 48
28 40 56 22 23 20 18 16 14 15 15 14 12 12 11 10 8 10 9 8 8 8 9 12 13 13 15 17 18 18 18 19 18 12 12 14 18 19 19 19 14 12 12 19 55
18 37 50 56 22 22 19 16 12 12 14 13 12 11 10 10 9 9 8 8 9 9 9 10 9 10 13 16 15 19 21 21 22 24 14 12 13 13 17 25 20 17 16 14 21
34 21 38 54 59 22 22 18 16 12 12 13 12 11 9 8 8 7 7 7 7 7 7 7 7 9 10 14 15 16 18 28 30 24 22 16 9 13 13 22 23 20 17 16 16
7 31 25 37 67 58 21 21 19 17 15 13 13 12 12 11 10 9 8 8 8 8 8 7 9 11 11 14 18 18 17 28 42 36 25 19 12 13 15 23 21 17 13 12 13
3 8 38 28 38 67 58 20 21 20 19 18 18 16 13 12 12 11 10 10 11 10 9 8 8 8 9 18 18 20 18 18 24 47 43 25 16 15 15 16 22 19 13 10 9
3 4 12 44 27 38 66 62 21 21 21 21 18 19 18 16 15 14 14 13 12 12 11 10 10 10 12 15 14 15 17 21 25 29 46 43 22 22 15 12 13 15 14 12 11
2 3 6 41 43 26 35 62 61 33 19 21 21 20 21 20 20 20 19 17 14 14 13 13 15 14 13 13 14 17 17 20 25 34 35 39 26 26 19 14 16 16 17 15 13
2 3 3 16 93 45 26 38 53 62 46 24 19 19 21 20 20 20 20 19 19 18 18 19 20 19 18 18 18 20 21 24 26 38 33 33 15 32 31 21 22 20 20 20 17
2 3 3 46 100 68 41 23 38 48 58 55 41 28 21 19 19 20 19 19 18 19 20 20 22 25 24 21 20 19 24 34 35 43 36 54 17 17 26 26 21 20 21 22 20
2 3 6 100 100 91 52 32 26 26 46 51 54 49 44 40 34 26 22 20 20 22 24 24 26 28 26 22 22 22 30 42 43 52 52 47 47 10 20 19 17 17 21 22 28
4 3 3 84 98 100 100 67 31 38 31 35 42 46 48 47 45 42 37 31 27 27 28 28 28 25 24 38 46 60 57 66 76 75 47 39 53 21 26 25 28 33 31 30 29
6 4 4 67 100 100 95 72 34 34 38 29 25 24 25 26 28 39 45 46 34 29 30 31 31 32 39 47 59 70 88 98 94 83 54 48 48 26 27 28 30 41 39 34 31
8 4 4 41 100 98 88 74 32 23 36 36 28 24 23 24 36 48 42 29 28 33 32 28 22 15 17 28 41 48 100 100 100 94 84 85 44 26 34 36 35 36 34 28 25
10 4 41 100 100 100 89 86 27 13 32 35 30 28 27 30 41 41 33 32 30 15 12 10 10 17 25 25 28 26 49 97 100 100 100 73 47 36 35 42 48 42 35 29 24
6 5 84 100 100 100 95 67 46 13 22 31 28 28 25 37 47 38 36 32 14 22 23 20 18 23 27 25 31 41 58 66 86 100 100 71 52 38 33 40 40 41 34 32 29
6 98 100 92 96 100 72 64 47 17 24 27 30 27 34 48 38 34 55 18 22 26 25 41 36 32 37 57 68 49 47 65 83 79 93 70 47 35 36 43 42 44 38 33 28
91 100 100 100 100 100 89 81 47 16 28 46 35 33 49 44 33 66 41 14 19 22 24 39 42 37 64 87 100 100 100 99 52 68 85 86 43 44 48 54 57 45 34 31 33
84 100 100 99 96 55 57 76 74 35 52 46 42 48 46 36 52 76 20 16 21 24 33 63 70 91 94 99 100 100 100 100 100 96 59 64 22 57 94 56 36 37 32 33 39
100 100 100 100 63 67 95 83 75 63 57 51 61 52 36 49 94 64 20 15 25 42 65 88 97 100 100 100 100 100 100 100 100 95 67 38 28 86 79 62 50 46 34 53 59
100 100 98 88 83 98 100 98 79 75 65 70 60 44 54 95 100 58 21 16 31 71 86 96 99 99 99 99 100 99 94 71 47 50 34 37 48 89 92 100 81 99 70 64 78
99 90 94 87 100 97 99 88 69 74 96 66 52 58 84 100 95 29 20 20 50 98 87 97 99 99 98 98 98 83 30 20 22 18 27 33 70 90 99 94 94 100 80 79 82
100 100 100 100 99 87 79 94 96 99 83 58 68 82 100 100 79 38 30 42 84 75 99 99 97 94 96 92 86 84 53 75 77 88 95 97 97 97 97 98 98 98 99 98 95

GFSSW_500_rhum_027.txt.gz
RH
18 15 16 18 22 26 25 23 21 19 18 15 13 8 6 6 5 11 15 12 11 10 8 11 10 11 12 12 10 9 9 11 15 17 19 21 21 19 18 16 19 35 43 38 39
36 18 18 21 31 35 28 24 20 19 15 13 12 9 7 6 6 13 14 12 9 6 9 10 10 10 10 13 11 11 10 9 12 19 20 21 21 19 16 16 16 17 28 39 40
42 30 18 21 37 40 32 21 19 17 16 14 12 10 8 7 9 13 11 10 6 6 9 10 11 10 10 11 11 11 12 13 10 12 12 15 17 17 13 12 15 15 15 24 39
30 48 17 21 38 43 35 22 19 18 17 14 13 12 11 9 9 12 10 10 10 8 9 10 10 10 11 11 11 10 12 13 13 12 13 17 19 19 16 15 16 12 12 14 24
33 23 38 12 43 50 31 23 20 19 20 18 15 15 15 15 13 12 13 14 11 9 11 10 11 11 12 14 13 12 14 12 14 15 15 16 17 18 16 19 17 14 12 12 14
6 30 32 21 36 55 38 23 21 20 19 19 17 17 19 20 18 18 16 15 11 10 9 10 11 9 12 16 12 13 15 16 15 16 16 14 14 15 16 21 20 17 18 16 13
6 4 24 46 21 51 52 23 23 20 18 18 18 18 18 17 17 14 14 14 11 9 9 9 9 8 11 13 13 12 13 16 19 20 14 14 12 11 14 16 18 16 16 19 17
6 5 4 16 47 39 55 28 23 21 17 15 17 18 18 18 15 13 13 12 11 10 8 8 8 8 8 9 10 11 12 14 18 19 18 15 10 16 15 12 14 15 12 14 18
5 5 4 5 43 41 40 72 24 22 18 14 13 16 15 14 13 12 12 12 12 10 8 7 7 7 7 8 9 12 11 12 14 14 16 14 12 16 18 14 12 13 11 10 17
2 3 4 4 12 60 36 52 68 22 20 17 15 13 14 14 13 11 10 9 9 8 8 8 8 8 7 10 9 8 8 10 11 14 16 16 12 16 16 16 13 12 12 10 13
2 2 2 3 4 26 51 30 66 42 22 22 18 16 15 14 13 12 12 12 12 12 11 10 9 10 11 10 10 9 10 11 13 12 14 14 11 13 16 14 15 13 11 10 12
3 2 2 3 10 92 40 42 38 65 36 22 21 20 20 19 16 15 15 15 15 15 13 12 12 13 13 15 16 18 20 21 20 17 17 16 12 14 16 16 18 18 15 12 11
5 2 3 3 7 97 31 38 34 51 64 31 21 21 21 21 20 20 20 20 19 19 19 19 18 18 18 19 19 20 20 19 19 17 17 18 15 15 15 16 18 24 24 18 12
5 4 3 4 35 100 76 43 45 35 56 62 36 20 20 21 22 22 21 20 20 19 19 18 19 18 17 16 20 16 20 22 22 21 20 21 14 14 16 19 20 21 33 31 29
5 6 4 4 68 100 100 91 73 39 41 54 62 44 26 21 20 20 19 19 19 19 19 19 21 22 21 23 24 24 24 26 26 25 23 20 19 10 14 17 26 38 30 37 33
82 7 6 4 57 100 100 100 100 85 33 38 52 58 54 43 35 37 36 36 41 41 39 35 33 31 30 29 30 31 31 31 34 34 30 30 32 17 17 18 22 46 47 34 32
79 17 7 4 88 100 100 100 98 64 61 35 35 47 53 54 52 50 48 44 42 36 36 37 36 33 32 31 28 28 29 34 41 43 34 44 47 22 20 20 29 36 50 46 32
84 46 7 4 57 100 100 100 100 62 59 46 32 29 32 36 38 35 31 26 30 37 36 33 31 23 20 16 12 13 16 17 26 24 33 48 28 22 28 37 47 44 43 43 41
95 32 5 40 100 100 100 100 92 75 65 54 41 36 27 24 23 24 27 36 37 35 34 32 29 22 14 15 19 22 26 40 30 25 24 20 15 16 29 36 47 55 51 48 38
89 24 4 98 100 100 100 86 88 90 68 55 39 40 35 30 27 33 34 36 37 35 34 28 19 31 39 23 35 26 30 48 60 51 44 34 26 21 46 49 50 39 48 47 45
43 7 4 58 100 100 100 100 99 99 65 41 34 37 36 31 26 35 39 35 32 40 24 18 19 28 36 52 58 66 87 91 96 83 85 79 50 34 53 62 56 33 31 44 40
10 14 100 96 88 98 100 91 91 74 51 25 30 34 30 27 29 33 40 34 43 42 17 20 26 44 52 75 96 100 100 100 100 98 98 93 37 55 51 52 36 47 36 32 38
7 49 100 100 100 100 100 96 86 93 38 22 21 22 24 27 32 39 36 38 67 20 18 41 58 79 66 86 98 89 100 100 100 100 84 100 40 65 74 52 63 80 60 39 35
85 100 100 95 98 88 93 100 100 71 55 34 24 24 28 38 40 36 43 84 46 16 28 62 83 90 96 98 98 97 40 75 100 98 96 69 79 99 82 59 94 82 73 64 44
100 99 100 85 69 95 100 100 100 92 58 48 42 42 42 44 40 36 91 48 19 22 58 82 92 94 99 95 98 100 86 19 28 56 56 82 47 64 49 56 100 87 100 58 42
100 79 86 84 100 98 100 100 100 90 70 70 61 52 46 44 49 96 60 22 22 35 81 91 92 99 98 98 90 95 64 25 19 22 27 34 47 34 40 65 73 94 96 65 56
100 88 97 85 100 89 86 83 91 93 100 96 80 56 48 44 89 92 40 22 34 67 93 88 94 98 97 98 99 100 77 98 91 34 35 49 46 44 56 88 65 99 99 63 87

GFSSW_500_rhum_030.txt.gz
RH
49 78 54 25 16 18 19 20 22 22 18 15 15 13 13 12 8 7 6 5 6 7 11 12 13 11 10 10 9 10 9 9 11 14 15 16 17 16 15 16 16 16 23 33 36
37 38 59 79 34 16 18 20 26 26 23 19 18 15 14 14 11 7 6 6 6 8 15 13 12 9 9 11 10 10 10 11 11 14 15 16 17 16 16 16 16 17 16 19 37
10 25 35 50 58 27 19 25 31 29 25 21 20 17 15 13 11 9 6 6 6 9 15 13 10 7 8 10 10 10 12 13 12 11 9 13 15 15 14 11 16 18 17 16 16
8 8 20 24 45 32 18 31 39 36 26 21 18 17 16 14 12 12 8 7 7 9 15 12 8 6 8 8 9 10 12 13 13 12 11 8 9 9 9 10 10 12 13 13 13
9 6 6 17 23 47 24 24 46 35 27 20 18 16 14 14 13 13 11 8 8 11 13 13 9 8 8 9 10 9 12 12 12 12 12 10 8 8 8 12 13 15 15 17 16
12 8 7 5 15 25 43 16 50 38 26 21 18 18 16 15 16 18 15 12 10 12 11 14 14 10 9 10 10 11 13 14 14 14 12 12 13 10 15 17 15 13 13 17 18
9 9 9 6 6 13 30 35 40 50 25 23 21 20 19 18 20 24 23 21 16 15 14 15 16 12 11 10 10 9 13 13 17 16 13 13 12 10 16 15 14 14 13 14 17
9 8 6 8 5 6 13 54 33 55 30 25 22 21 20 20 22 25 30 29 25 20 16 15 15 11 10 10 11 11 12 12 14 14 13 12 12 14 16 15 14 14 12 12 15
4 6 6 5 6 5 6 42 47 51 42 25 24 20 19 20 22 24 25 26 24 19 16 14 13 11 12 12 10 11 10 10 12 12 10 10 10 14 15 14 13 14 15 12 11
2 2 2 4 4 5 4 10 59 49 55 25 26 21 17 18 20 22 23 21 21 18 15 14 12 11 12 14 11 8 7 8 9 11 13 11 8 12 13 12 11 12 14 16 12
2 3 2 2 3 3 15 100 52 40 53 35 27 22 18 16 16 17 18 19 18 17 15 12 10 10 12 10 9 9 8 7 8 9 9 10 8 12 13 12 12 13 15 16 15
4 3 4 3 2 4 60 97 31 59 51 80 24 24 19 16 15 15 16 15 13 12 11 11 11 12 11 11 11 11 11 10 11 13 13 12 6 13 17 18 15 14 14 18 19
20 4 6 4 3 4 100 100 100 71 47 92 34 24 22 17 17 17 15 15 14 14 14 13 13 14 14 15 16 17 16 17 17 18 16 14 5 12 14 18 18 16 15 18 23
100 49 6 6 4 8 96 100 96 100 60 59 68 22 23 21 20 20 19 17 17 17 17 18 18 18 18 18 19 18 19 18 17 16 15 14 11 11 11 11 15 18 18 17 20
90 100 13 7 4 4 76 100 100 100 82 53 81 40 21 23 21 21 21 20 20 21 20 18 19 19 18 20 20 21 20 21 22 23 22 19 19 11 12 13 15 18 19 20 21
100 85 63 8 4 35 100 100 100 100 78 56 60 61 35 21 21 21 21 21 21 20 20 23 25 27 35 34 32 30 31 31 30 29 25 24 27 12 19 18 19 22 22 20 20
95 73 69 9 6 100 100 100 100 100 74 64 40 56 58 42 25 22 21 22 28 32 36 39 36 34 33 30 30 28 26 24 22 18 17 16 17 15 19 23 25 32 24 26 24
100 94 88 10 5 99 100 100 100 81 87 72 49 37 56 60 54 47 42 45 48 46 43 34 24 28 28 26 26 22 18 15 18 18 16 17 12 12 12 12 17 26 32 42 32
100 100 89 6 5 72 100 100 100 100 100 84 64 34 39 50 55 53 52 49 45 36 25 23 30 30 27 24 22 28 21 30 24 30 45 46 30 18 19 28 16 17 20 33 36
87 93 15 4 45 100 100 100 100 100 100 89 75 43 32 33 35 34 33 29 24 26 28 32 32 28 20 19 30 34 45 67 96 93 98 68 72 64 35 38 38 33 42 23 38
90 55 6 4 90 100 100 100 100 100 100 98 79 64 36 32 28 28 30 32 30 25 31 43 39 20 20 32 55 77 88 87 97 100 100 97 78 78 64 66 65 38 42 39 31
65 85 4 28 78 100 100 100 100 100 100 81 67 74 49 42 36 34 35 29 26 36 42 47 16 24 58 74 84 84 86 91 100 100 100 97 59 100 83 67 63 38 64 57 38
19 15 13 97 100 90 93 100 100 100 93 71 49 49 66 40 40 38 35 27 34 37 46 16 26 45 61 76 81 77 90 100 89 51 56 100 60 95 100 100 74 56 50 54 52
74 54 88 98 84 84 100 100 100 82 63 60 38 34 32 36 38 35 27 30 36 48 18 21 70 66 83 87 88 90 100 100 33 26 42 65 68 100 95 86 63 44 34 51 57
100 97 86 86 94 99 100 100 100 93 72 44 33 23 27 36 37 28 30 37 44 32 18 38 75 74 100 96 93 100 93 87 29 24 26 38 50 68 64 44 38 36 45 78 82
100 100 99 97 99 100 100 100 100 100 68 50 32 29 39 40 29 34 40 39 48 20 32 61 81 93 100 94 98 92 80 75 74 63 36 31 34 26 27 33 66 52 100 100 70
80 60 65 80 100 100 100 94 83 80 53 54 57 57 52 38 38 43 60 61 23 28 63 83 91 99 98 98 98 96 84 80 92 96 69 69 50 34 30 50 98 98 98 70 70

GFSSW_500_rhum_033.txt.gz
RH
16 31 40 76 71 29 18 32 30 28 26 20 17 12 12 13 12 12 9 8 8 9 9 8 6 7 10 13 13 13 10 8 9 12 16 13 10 14 12 13 13 15 15 12 22
12 11 18 35 54 82 50 17 28 29 28 25 23 18 15 14 12 11 12 9 7 7 7 6 5 6 11 14 12 11 10 10 12 12 13 12 12 14 10 13 13 15 16 16 16
10 8 10 8 27 37 65 79 17 23 28 28 28 24 22 18 15 15 13 11 8 6 6 5 6 8 13 14 12 9 8 13 13 12 12 10 9 11 12 12 12 14 18 15 16
16 14 10 7 8 21 29 65 71 20 23 30 31 26 23 21 17 16 14 13 10 7 6 5 6 10 14 13 12 8 9 11 13 13 12 11 10 9 10 12 12 12 11 11 19
19 18 16 12 7 6 19 22 67 53 29 30 32 28 22 20 19 16 15 13 11 8 6 7 8 11 15 12 9 8 10 9 11 12 14 12 11 10 9 13 12 9 9 10 12
21 19 16 14 12 8 6 15 24 49 18 37 37 32 22 19 18 16 15 13 12 9 7 8 9 12 15 11 9 9 9 10 11 11 12 10 12 8 9 13 10 8 8 10 14
18 16 15 12 10 11 8 5 16 32 24 36 40 29 23 20 19 18 15 13 13 12 10 13 11 14 14 11 11 10 12 11 11 12 11 11 10 9 12 11 10 11 11 11 11
12 12 13 12 10 8 10 7 5 11 42 31 45 27 24 21 20 18 17 15 12 14 14 15 16 14 14 11 16 15 12 12 11 13 11 11 10 11 12 12 11 12 13 12 12
3 4 5 6 7 9 8 6 5 4 45 39 52 29 27 23 22 20 20 18 22 22 23 24 24 21 20 20 18 18 16 14 12 13 10 10 9 13 11 15 12 13 13 13 12
4 2 2 2 3 4 8 6 5 65 22 50 54 32 28 24 22 22 21 22 29 32 34 32 30 28 24 22 21 19 16 16 14 12 12 8 8 10 10 12 10 11 12 12 13
3 3 3 3 2 2 4 6 37 79 28 53 56 38 32 26 22 22 23 24 29 32 34 33 27 26 28 20 18 16 17 16 14 12 11 9 7 6 9 9 11 11 12 12 12
45 51 20 7 4 3 2 5 51 100 94 70 62 77 30 29 22 21 23 24 26 28 27 28 25 32 24 23 21 17 14 12 13 12 10 9 6 6 8 9 10 11 15 17 15
74 78 100 12 7 4 3 7 100 100 90 71 68 91 29 28 23 20 20 21 24 25 27 26 23 22 20 16 14 12 11 11 11 12 11 11 6 11 7 7 11 13 14 16 19
61 88 100 94 9 6 4 91 100 100 100 68 66 85 29 28 24 20 17 18 18 20 16 15 18 17 16 15 15 14 14 16 16 15 15 12 8 7 8 7 7 10 14 14 15
82 92 100 100 59 6 17 100 100 100 97 100 79 75 41 26 24 21 18 17 18 17 17 16 17 19 19 20 19 18 17 17 18 19 16 15 18 4 7 10 14 16 17 17 15
99 99 100 72 46 6 73 100 100 100 100 98 71 66 62 24 26 24 21 20 20 19 20 19 20 20 19 18 20 23 26 29 25 20 16 17 19 8 14 15 14 13 14 16 17
100 90 98 68 21 6 93 100 100 100 96 69 65 58 80 26 24 24 23 22 22 22 21 21 19 20 25 34 34 28 24 21 20 20 16 18 15 8 13 13 11 11 11 14 18
100 95 100 74 7 11 99 100 100 100 92 56 67 56 83 46 22 22 23 22 21 21 22 22 28 35 41 31 26 24 23 26 22 21 16 16 9 13 18 20 20 16 18 18 13
100 100 92 74 5 24 100 100 100 100 100 90 73 52 79 64 38 23 21 21 23 26 33 41 42 41 28 28 28 25 24 21 20 27 29 18 19 25 44 50 46 42 31 36 25
92 100 91 16 4 67 100 100 99 93 98 100 87 56 43 64 58 56 52 46 45 46 47 44 35 28 31 31 26 20 18 21 36 37 41 32 37 51 87 77 90 62 74 71 32
90 85 65 14 21 96 100 100 100 100 100 100 94 78 42 45 57 60 57 53 51 48 38 29 27 32 35 24 18 21 40 58 65 71 71 53 39 83 62 86 96 98 100 86 58
82 95 21 28 96 99 100 94 96 100 100 100 82 77 41 37 46 46 45 41 36 32 30 28 30 41 20 20 36 49 62 74 66 82 79 74 38 42 58 99 98 100 97 74 50
98 71 11 56 98 100 100 95 99 99 100 98 88 95 48 41 37 35 32 34 33 29 26 32 40 22 24 46 59 60 81 79 88 90 83 94 39 54 37 80 98 100 100 76 45
33 6 13 90 100 100 100 100 96 100 97 88 78 78 79 49 46 45 41 38 31 25 30 43 26 25 57 73 67 81 89 100 100 92 99 67 66 54 34 47 67 73 77 72 37
69 41 47 100 82 82 92 100 100 100 85 72 62 59 65 73 67 47 42 34 25 31 44 33 22 40 78 80 91 100 93 100 97 93 87 96 99 88 46 31 37 50 66 61 40
99 87 89 87 76 83 100 100 100 95 76 54 56 51 52 48 46 38 35 25 30 41 40 18 35 74 100 94 97 91 78 76 80 88 100 98 100 88 68 53 52 96 78 51 48
85 100 97 89 96 100 100 98 90 77 62 52 42 49 41 38 31 28 24 25 39 44 22 31 75 98 100 100 100 80 73 76 77 94 82 76 89 88 99 99 98 98 94 53 78

GFSSW_500_rhum_036.txt.gz
RH
13 13 11 16 35 68 90 49 38 34 33 20 27 30 25 23 18 15 12 11 10 12 12 13 13 13 13 12 12 12 10 9 11 12 12 12 14 9 11 11 11 10 16 13 9
18 13 10 11 10 23 61 90 73 25 36 34 30 26 25 23 20 18 17 12 10 10 10 11 12 11 11 11 10 10 9 10 13 12 12 11 11 9 10 13 11 10 13 11 14
25 22 18 15 10 10 12 36 89 84 33 36 34 31 28 22 15 21 16 16 13 10 9 9 9 10 10 8 7 7 7 14 14 12 10 9 10 10 10 12 12 11 12 11 13
23 24 24 20 17 14 10 9 27 76 82 43 39 32 29 25 20 21 16 13 13 12 10 8 8 8 8 7 5 5 9 13 14 12 8 8 11 8 8 10 10 10 10 8 9
25 22 23 24 22 18 15 8 7 27 56 86 36 39 31 28 26 24 20 17 16 13 13 10 8 7 6 6 6 5 10 14 13 11 9 11 10 10 8 9 12 10 10 8 7
19 20 20 21 22 22 19 15 7 8 16 59 85 30 38 29 26 24 22 20 18 15 14 12 9 8 6 6 6 7 10 13 11 10 10 10 11 9 8 12 12 10 8 8 7
10 10 15 18 19 19 19 16 12 6 6 16 88 63 36 32 27 25 20 19 17 17 16 14 10 9 8 9 7 10 15 14 10 14 11 10 8 8 10 11 10 8 8 7 8
6 5 6 8 11 17 18 16 12 9 6 6 38 60 51 36 31 26 22 19 17 16 15 14 12 10 9 9 13 17 15 14 13 13 12 10 8 10 9 10 8 8 8 9 10
3 4 6 7 10 6 12 16 13 9 7 6 10 40 31 40 33 27 21 20 18 17 16 18 13 12 11 11 15 17 17 16 14 13 13 10 8 12 9 10 9 9 9 9 10
8 3 3 3 2 3 4 9 12 10 7 11 5 35 30 38 41 29 22 20 20 19 22 20 14 14 12 15 18 26 21 18 16 12 17 11 9 10 10 10 11 9 10 9 9
8 25 75 38 11 4 2 3 6 7 90 30 10 28 44 40 35 28 23 22 20 21 21 24 16 16 41 26 33 22 20 21 23 18 14 17 10 10 11 9 12 10 9 10 11
19 62 76 92 71 13 3 2 4 19 21 75 64 30 46 45 35 29 24 22 22 24 26 24 26 39 33 33 35 29 27 26 26 24 15 18 12 11 10 9 8 10 10 11 12
43 64 81 100 100 53 7 4 4 40 94 100 88 50 57 49 36 30 26 24 28 30 29 30 35 35 32 31 30 29 26 24 20 21 18 13 9 11 8 8 9 10 10 10 13
60 71 98 73 98 96 11 4 26 100 92 60 80 57 71 50 34 34 25 23 26 30 31 29 32 34 32 31 31 28 22 18 15 13 12 11 8 8 9 8 8 10 12 11 11
76 98 100 94 100 99 14 12 100 100 91 60 52 95 72 79 42 31 24 22 26 26 27 30 34 32 26 24 18 16 14 15 17 17 15 14 12 6 7 7 7 9 9 8 9
72 89 98 100 99 63 8 28 100 100 100 98 100 81 71 72 40 31 23 22 22 20 20 20 20 21 21 19 19 19 19 18 17 16 12 15 12 6 6 7 10 10 10 11 11
90 100 80 100 68 32 12 100 100 100 97 66 61 59 75 78 34 28 24 22 21 20 21 20 21 22 22 21 20 18 22 26 22 16 13 15 10 7 10 11 10 11 12 14 13
75 82 99 100 75 9 10 100 100 100 97 83 86 98 83 76 41 28 25 23 22 22 22 22 20 22 21 21 22 29 28 29 20 16 14 15 10 10 10 9 13 17 28 40 46
88 98 92 100 76 13 93 100 100 100 100 88 81 90 78 90 40 24 25 26 24 24 24 23 20 21 29 31 34 31 26 23 21 21 15 12 12 13 25 43 41 40 39 34 24
100 95 98 97 11 70 100 100 100 100 98 99 80 72 67 80 45 23 24 24 25 24 23 23 24 28 38 38 30 26 25 24 22 17 16 17 26 27 44 68 49 47 36 22 18
100 76 78 45 57 99 100 100 89 100 97 87 75 64 62 89 60 29 25 25 24 23 25 34 36 41 37 30 26 28 29 22 19 38 48 25 24 51 86 96 64 56 25 23 56
93 40 11 32 90 100 100 100 100 100 100 100 86 58 58 99 80 61 53 46 43 46 50 50 46 30 28 28 34 34 20 42 61 73 46 50 27 69 94 89 80 46 22 38 67
33 11 13 54 93 100 100 100 100 100 100 100 96 62 46 62 82 67 62 60 57 54 49 37 29 30 32 36 32 24 67 66 71 66 58 61 68 81 97 100 96 70 29 45 85
15 42 70 96 100 100 100 100 100 100 100 94 92 62 44 50 59 61 63 54 46 36 31 28 29 35 43 30 32 61 72 77 66 58 62 69 45 97 82 84 100 95 46 56 77
47 98 99 100 100 100 100 100 100 97 100 95 87 84 49 47 44 44 40 35 33 32 28 24 32 46 32 27 50 48 70 78 74 73 68 72 74 76 92 98 100 98 89 94 59
88 93 79 79 92 99 100 100 94 100 91 84 79 79 88 58 50 49 46 41 37 29 22 29 51 32 37 66 77 80 82 85 74 79 84 82 82 92 100 100 100 100 100 100 84
77 96 79 76 86 92 96 87 95 91 72 60 55 51 59 68 73 66 56 40 31 22 26 51 25 37 68 81 84 88 93 92 82 71 80 77 73 93 85 89 83 100 100 78 57

GFSSW_500_rhum_039.txt.gz
RH
14 18 28 18 19 12 18 40 95 38 59 82 28 20 34 29 21 18 16 13 14 17 17 15 16 16 17 16 16 15 8 8 11 11 13 13 12 11 10 8 13 11 10 8 8
11 14 16 26 23 15 12 9 24 76 48 66 48 27 20 34 29 22 21 15 12 15 17 18 16 16 15 16 14 11 8 8 12 14 14 12 11 9 8 7 15 12 11 11 10
12 13 17 16 25 25 17 10 8 12 89 58 42 35 30 22 29 33 24 19 16 12 13 16 15 14 13 14 13 11 9 11 11 12 11 10 10 9 7 6 10 15 12 11 10
14 13 16 17 17 24 26 19 12 9 10 93 66 35 35 32 26 30 30 27 21 16 12 11 13 13 13 13 13 11 10 10 10 9 9 11 11 8 7 7 8 15 12 8 9
16 14 12 16 16 20 24 25 19 15 8 7 87 76 41 35 31 28 26 28 27 22 18 15 11 11 11 11 11 10 10 9 7 6 6 11 10 8 10 10 10 11 11 9 8
10 10 10 8 14 14 21 26 25 19 16 7 10 89 59 35 30 31 27 23 21 20 20 20 16 12 9 9 9 8 9 8 6 5 6 12 10 7 8 10 11 10 9 8 8
10 10 8 10 14 20 17 24 25 24 20 12 6 30 83 41 33 31 29 27 24 21 19 18 16 14 12 9 8 7 7 8 7 12 12 14 10 6 9 9 8 9 9 8 7
18 23 25 24 12 8 22 24 25 24 22 16 9 9 34 70 34 35 29 28 26 23 22 20 17 15 13 11 9 8 7 6 21 15 13 14 7 10 11 8 7 8 8 8 8
16 20 32 26 18 14 4 19 23 22 21 16 13 6 9 75 46 39 31 29 24 22 21 20 23 18 15 13 10 8 8 10 16 16 13 11 8 10 9 7 8 8 8 7 8
13 22 49 46 16 8 3 4 18 18 15 14 18 10 8 49 86 44 34 30 25 23 20 40 37 22 16 14 13 16 10 9 12 14 10 10 8 8 10 8 9 9 8 8 8
11 28 92 100 99 82 15 3 8 17 14 17 17 12 17 40 60 89 44 30 25 23 20 19 18 18 26 21 15 12 10 11 14 14 11 13 11 9 12 9 10 10 10 10 10
11 51 81 89 99 95 94 14 5 9 14 13 16 18 46 66 55 46 65 38 25 23 22 19 17 30 31 18 16 12 10 16 19 14 10 13 11 11 12 12 11 13 12 12 12
45 72 74 87 77 96 98 30 7 8 9 10 11 14 32 26 52 43 42 44 33 25 23 22 26 27 23 20 23 23 17 21 20 23 21 13 10 13 14 14 15 14 12 11 11
62 69 85 82 90 100 84 18 6 9 40 69 48 29 41 27 50 45 37 33 25 24 24 23 24 28 29 33 36 30 28 29 28 27 22 17 9 13 14 14 13 12 10 10 9
66 73 87 90 78 100 92 13 83 62 100 100 100 63 49 55 54 44 35 30 25 22 24 29 30 31 37 39 33 30 30 31 27 23 19 16 12 8 11 11 10 9 8 8 9
92 85 82 87 81 90 70 13 100 100 100 100 89 56 49 48 61 44 36 28 25 24 27 30 34 46 42 38 31 27 22 20 16 15 13 14 12 8 9 8 8 8 8 8 8
100 100 100 95 82 79 19 12 100 100 100 100 88 85 65 71 56 43 35 28 22 22 26 32 36 38 30 25 20 19 20 20 17 15 13 11 9 7 9 9 10 10 12 11 10
86 95 89 96 73 36 70 100 96 99 100 95 79 64 51 75 67 81 35 28 22 22 24 26 28 25 23 22 22 20 22 22 17 14 13 13 8 8 10 12 12 12 20 23 21
86 80 99 73 34 10 87 100 100 100 90 48 36 52 64 67 66 72 30 26 22 24 29 23 24 25 24 22 22 31 28 26 25 21 14 13 12 12 14 28 42 33 26 25 32
66 80 66 26 56 82 100 98 96 100 100 73 91 81 44 57 73 41 28 26 24 27 26 25 25 24 23 26 29 35 33 25 22 19 16 13 13 25 54 48 32 38 37 39 49
45 39 15 66 100 100 98 100 100 100 100 77 60 39 63 68 84 41 28 28 27 27 24 24 23 28 36 36 38 34 26 22 23 23 18 23 24 76 63 47 38 46 52 55 63
13 49 87 100 100 100 100 100 100 100 100 93 80 86 79 76 74 32 25 27 26 25 23 24 28 40 41 41 34 25 23 28 22 39 54 51 36 70 69 68 70 71 67 78 99
25 88 96 100 100 100 99 95 100 100 90 72 62 68 74 100 93 45 25 24 24 23 27 41 48 49 44 31 23 23 33 26 39 56 71 59 72 64 55 64 72 71 90 91 97
62 96 100 98 96 98 100 100 100 100 90 79 60 65 72 84 78 65 53 48 43 51 56 53 46 34 28 26 33 36 27 45 51 61 61 83 46 60 57 56 58 43 68 97 100
80 72 83 89 91 93 94 94 87 91 92 92 76 52 56 80 97 72 66 63 61 57 45 34 30 27 25 27 33 25 58 70 69 70 68 68 69 59 56 62 39 45 57 91 100
56 60 65 69 95 98 99 97 96 99 100 85 95 57 48 59 77 78 68 59 43 34 32 31 29 34 38 28 37 72 75 80 82 89 83 62 60 61 65 65 39 33 45 68 100
55 58 68 74 78 75 81 86 84 94 90 85 84 96 56 47 48 48 43 42 38 36 34 27 30 42 28 49 82 90 98 99 96 84 74 76 69 74 81 66 40 43 36 42 58

GFSSW_500_rhum_042.txt.gz
RH
18 20 20 18 14 11 19 20 13 13 42 86 79 75 41 25 30 21 22 21 15 21 18 17 16 18 13 11 12 11 6 6 10 12 14 16 14 11 10 8 7 6 5 7 6
23 24 21 17 14 13 14 24 19 11 12 57 61 80 89 32 24 28 28 22 18 15 21 20 21 18 16 14 13 10 6 9 13 15 16 16 11 11 9 8 8 8 10 9 8
26 22 17 14 11 13 14 18 28 20 11 8 72 65 88 66 20 38 29 23 22 17 16 22 21 18 15 17 12 12 10 14 15 16 16 13 11 10 9 8 8 7 8 8 8
13 12 12 12 12 15 16 18 24 29 20 12 7 90 58 89 37 24 34 28 25 22 16 15 19 20 18 16 16 14 13 14 15 14 12 11 11 10 8 8 9 7 8 8 7
8 8 9 12 12 13 17 18 21 30 30 20 11 10 81 64 69 30 25 37 28 24 22 16 14 17 20 19 20 15 13 14 14 14 11 10 9 10 10 10 10 10 7 8 7
8 7 12 19 19 15 16 20 22 30 32 31 22 8 66 66 70 41 28 35 38 28 24 21 17 14 15 17 17 14 15 12 12 12 11 10 8 7 10 13 11 9 6 6 6
7 7 8 8 13 16 18 28 30 31 35 35 30 17 9 82 60 50 37 47 40 36 32 28 23 16 14 13 13 13 14 13 13 13 11 9 7 4 11 14 9 8 7 6 7
6 7 7 12 25 33 32 18 36 40 39 38 30 22 8 41 89 54 41 35 38 30 30 32 28 24 20 14 12 11 11 10 12 11 10 9 6 5 12 12 8 7 8 8 8
8 8 12 55 79 54 26 20 12 40 44 38 30 25 12 11 94 69 54 34 33 30 27 25 24 23 21 18 16 12 9 9 10 9 8 7 5 9 9 9 9 8 8 8 9
17 11 61 100 89 94 41 11 9 26 44 33 27 30 16 14 63 100 61 38 33 32 33 42 31 21 19 16 14 15 13 11 9 8 7 6 4 7 11 10 10 9 9 9 8
46 32 49 78 77 83 76 33 9 9 38 31 27 48 22 20 44 91 72 41 35 58 28 43 51 75 48 34 21 16 13 12 11 9 8 7 5 8 14 10 10 11 10 10 10
54 63 65 65 71 75 90 88 28 8 30 30 25 29 100 31 41 65 89 44 34 44 38 25 26 49 88 80 49 18 16 15 14 10 8 8 6 9 12 11 10 10 11 11 12
82 90 83 90 75 76 70 89 29 8 28 27 51 100 90 29 32 74 99 52 38 33 27 24 25 28 30 29 19 18 16 15 13 12 10 8 7 8 12 12 12 11 11 11 12
100 100 100 92 90 95 88 75 16 12 25 29 54 88 52 90 65 77 98 96 56 34 27 23 23 22 21 20 23 21 18 16 15 14 10 10 8 10 11 12 13 15 16 17 16
100 100 100 100 97 98 76 58 11 14 24 23 81 62 54 76 49 69 67 81 82 54 30 29 23 21 22 26 27 24 26 26 23 16 11 14 9 10 14 14 14 16 16 16 15
100 100 100 100 96 88 82 23 12 19 38 51 48 56 42 27 28 54 52 46 50 63 44 35 33 26 28 28 32 38 37 32 26 23 13 17 12 10 12 12 12 12 12 11 11
79 95 98 90 88 67 38 34 92 75 89 66 100 37 56 24 24 49 48 41 42 31 23 27 34 32 30 30 35 39 35 28 23 19 15 14 12 11 13 12 12 11 10 9 9
68 80 88 94 58 80 29 92 100 100 98 54 43 77 48 33 51 52 46 39 32 28 32 35 37 37 31 36 36 29 21 19 16 15 14 12 10 12 16 18 17 13 11 11 10
76 58 38 26 45 82 96 100 100 100 100 63 85 65 75 47 49 54 43 36 30 31 34 31 34 34 32 25 23 24 21 19 18 16 12 14 13 16 20 16 13 13 12 14 14
12 40 33 62 98 85 100 100 100 94 100 93 71 97 66 49 56 57 45 34 32 27 30 28 30 26 23 24 24 21 24 28 28 22 17 15 15 30 35 26 23 24 27 30 32
49 86 94 100 100 82 96 96 100 90 91 87 87 69 52 57 61 76 65 34 30 24 26 25 27 26 25 23 23 27 32 32 28 23 21 16 25 44 42 31 32 39 40 40 43
84 97 100 100 100 96 100 100 100 66 73 77 39 60 61 70 80 79 36 31 28 24 26 28 27 26 24 27 34 37 35 30 24 24 22 34 56 60 52 47 46 46 53 58 37
71 71 65 72 90 100 100 89 97 72 43 82 73 61 93 96 91 74 31 29 28 25 27 28 26 27 32 39 42 36 27 24 25 24 39 45 59 64 56 47 47 48 35 28 23
46 58 87 98 78 94 91 100 99 98 88 74 60 63 82 76 89 46 26 26 26 26 25 25 29 38 40 39 35 30 32 30 25 42 42 80 68 72 58 51 44 38 29 31 24
22 26 45 60 58 78 92 98 94 76 65 61 59 74 75 80 68 40 27 27 27 28 34 49 52 48 39 30 26 34 32 26 61 69 62 83 66 48 48 40 48 46 38 42 35
28 18 29 24 53 65 69 84 81 84 75 59 58 62 75 99 79 68 63 61 61 62 58 48 37 30 26 23 34 31 44 84 82 79 75 71 67 45 58 56 62 62 40 49 40
27 36 37 36 46 57 49 52 59 66 79 91 74 53 59 86 100 79 71 67 63 52 37 33 32 26 24 35 30 62 90 87 94 93 88 74 62 54 62 61 63 65 42 56 44

GFSSW_500_rhum_045.txt.gz
RH
37 35 32 23 19 18 22 20 15 12 18 17 30 84 92 92 68 26 25 30 24 20 24 23 19 18 17 24 26 25 18 14 16 20 12 10 7 6 6 7 6 5 6 6 5
29 24 18 10 9 9 11 16 18 13 13 23 11 17 71 98 82 61 35 27 28 24 20 25 24 21 14 12 12 15 13 14 19 16 13 12 8 8 7 6 6 6 7 6 6
22 13 9 8 9 9 11 13 17 16 15 24 18 9 14 93 95 75 39 30 26 29 23 21 26 21 18 14 9 8 7 9 14 13 14 14 11 10 9 8 7 8 7 7 7
11 8 9 10 11 12 14 16 19 22 21 25 29 15 8 54 90 90 66 32 32 28 29 20 20 23 19 17 13 9 8 11 15 16 15 14 12 9 9 11 8 9 7 7 8
9 10 13 9 13 15 15 22 17 25 27 30 38 25 98 13 88 98 93 34 38 30 28 26 18 20 24 21 20 14 10 15 18 17 14 14 13 12 10 12 9 10 8 8 7
11 15 18 10 10 13 11 11 22 26 34 38 45 37 21 10 62 90 98 45 35 38 30 28 24 18 20 25 22 16 16 17 17 17 15 14 12 11 10 12 11 10 10 8 7
17 35 20 14 42 64 44 27 27 23 37 43 50 43 28 21 47 99 96 87 34 45 37 29 28 23 16 19 22 20 18 17 17 18 16 15 11 8 11 10 9 8 10 8 6
45 52 26 25 67 100 100 72 39 27 35 50 55 51 28 29 47 99 96 98 78 60 59 35 27 26 22 16 16 19 19 19 18 19 18 16 8 10 10 11 7 5 7 10 8
70 67 49 30 70 97 97 60 34 32 27 53 56 47 32 24 40 96 99 100 94 95 81 58 34 28 24 19 15 14 14 15 16 16 16 13 9 11 10 8 7 5 5 10 10
82 77 73 57 54 74 84 85 31 30 22 47 58 49 32 27 70 71 99 97 53 76 100 97 69 36 29 21 17 15 15 14 13 12 12 10 8 10 10 9 7 6 7 10 10
80 86 95 86 66 77 93 74 51 31 18 45 52 40 32 66 48 67 99 100 82 55 57 57 74 43 31 28 27 20 16 14 12 11 10 9 8 8 8 7 8 8 9 11 12
84 100 100 100 100 98 74 59 59 18 26 48 49 37 45 45 61 39 92 98 90 60 57 62 58 92 54 32 24 21 18 15 16 14 11 10 8 8 8 7 6 8 9 11 11
63 100 100 98 100 87 96 78 61 14 41 49 45 32 64 66 90 43 70 100 93 77 85 55 64 96 96 99 60 18 15 16 17 15 12 11 10 10 10 9 7 8 8 10 12
43 100 100 91 100 100 91 80 62 12 44 46 35 81 100 54 82 88 96 100 95 90 96 64 39 66 76 79 44 28 42 36 20 17 16 16 14 14 11 10 9 11 11 11 10
94 98 80 96 100 97 97 75 37 20 37 41 28 68 82 92 29 42 72 99 93 45 56 53 32 32 31 33 44 38 28 24 20 18 17 15 16 15 15 15 15 15 13 13 14
70 72 92 87 100 85 89 37 13 32 55 35 44 100 72 76 28 63 53 94 92 50 42 38 32 27 24 24 22 23 25 20 17 15 15 18 15 16 15 15 15 16 15 14 14
53 74 87 63 76 43 29 18 27 76 94 64 100 100 100 80 57 51 52 95 88 59 42 34 32 29 26 21 19 24 23 20 19 16 16 19 16 16 16 16 14 13 13 12 12
9 17 14 15 25 35 40 95 48 100 100 100 85 68 66 100 61 61 77 70 97 96 84 59 52 38 30 26 31 24 27 30 27 23 20 16 14 17 20 19 13 10 10 10 9
53 24 72 98 100 100 96 70 56 86 92 39 40 38 42 44 28 53 72 50 59 74 55 46 44 39 34 28 30 34 34 30 22 18 16 16 18 24 21 16 14 12 10 9 9
45 74 96 100 100 90 97 100 74 44 36 88 52 42 38 37 48 55 54 49 44 77 38 34 33 37 40 45 39 30 26 22 20 18 18 19 23 24 17 15 12 11 11 16 24
70 40 34 57 76 94 81 60 92 32 80 88 46 43 59 52 65 60 48 48 44 36 29 33 35 39 37 29 25 24 24 25 27 23 21 19 25 22 24 19 19 20 29 29 30
46 71 79 50 42 48 42 59 93 80 35 52 65 78 72 82 73 52 49 45 36 28 31 35 34 32 26 25 25 26 29 32 32 28 24 22 32 35 28 39 36 33 37 35 31
48 60 52 43 47 44 45 51 58 78 60 64 94 89 99 83 75 91 86 42 32 30 32 32 29 28 26 26 28 34 36 37 32 25 22 22 45 38 43 46 46 40 44 39 36
58 49 53 52 43 54 69 34 46 68 76 73 74 84 79 77 84 88 46 32 31 30 30 29 28 26 27 35 38 39 37 30 26 29 23 53 63 49 56 49 51 60 46 34 28
30 33 34 57 70 68 60 64 41 47 76 64 55 77 93 82 90 76 31 28 29 30 29 28 27 30 37 43 42 35 28 24 30 26 65 75 67 66 60 44 46 44 37 34 43
22 20 23 32 58 55 58 65 67 65 63 60 70 77 80 84 97 46 28 27 28 31 27 29 43 50 49 40 30 23 23 32 53 82 95 86 84 67 48 44 48 42 40 49 48
31 33 18 18 16 45 59 65 54 49 52 58 56 68 79 92 82 62 37 38 36 45 52 57 51 41 35 28 25 32 32 66 93 100 84 73 68 63 65 58 56 56 39 53 44

GFSSW_500_rhum_048.txt.gz
RH
25 25 29 27 20 16 12 14 17 15 20 22 15 13 21 46 86 56 46 35 34 33 55 43 31 46 53 44 35 31 22 16 15 17 21 23 17 14 11 10 8 6 4 6 6
26 26 24 20 16 12 10 10 11 12 18 24 22 13 19 20 85 75 64 44 36 34 39 64 32 25 29 45 42 34 21 18 20 24 27 24 18 14 12 10 7 6 6 6 7
28 24 18 15 13 15 15 13 14 14 15 24 23 18 20 18 47 92 87 73 47 35 34 53 28 26 24 21 27 34 21 22 26 30 30 25 20 15 12 9 7 7 6 8 8
23 19 16 14 20 17 26 34 25 26 25 25 27 22 26 22 15 60 98 98 62 42 34 34 29 24 23 16 16 16 17 21 28 30 29 26 21 15 12 9 7 8 7 8 9
19 17 15 28 27 35 23 19 61 14 22 28 34 36 38 38 23 28 94 99 84 45 38 34 32 25 23 24 20 13 12 14 18 16 15 17 16 12 10 9 8 9 9 8 9
17 14 39 45 63 33 56 89 100 97 24 25 41 49 42 29 31 19 82 97 97 56 44 39 41 30 21 26 25 18 15 18 20 16 13 11 11 9 10 12 11 11 10 9 8
13 40 51 86 71 36 87 92 100 100 79 29 49 59 48 34 29 81 49 99 99 83 45 42 34 32 27 20 24 21 19 19 18 17 14 12 10 8 14 14 13 12 11 9 8
19 43 80 88 75 52 75 97 86 98 64 34 61 63 43 38 98 79 65 92 97 96 46 46 35 31 31 23 18 20 21 19 20 18 15 14 9 10 13 14 13 11 10 8 7
17 56 98 89 91 63 76 100 98 90 67 33 60 64 49 42 70 53 55 92 99 99 82 67 42 31 30 28 20 16 19 19 24 23 18 13 10 12 13 13 11 11 10 8 7
16 86 100 94 100 93 94 100 83 71 55 29 65 62 49 40 91 91 55 91 99 99 97 97 74 37 28 26 22 16 15 17 22 22 20 15 8 13 15 13 11 11 12 11 9
39 59 97 100 100 100 100 100 77 66 47 38 60 58 50 43 73 86 63 85 99 100 96 89 90 45 32 26 26 23 18 14 15 16 17 15 12 13 15 13 12 11 10 9 9
86 77 69 100 100 95 96 87 90 67 39 34 59 59 58 45 46 96 96 74 96 98 97 100 90 84 53 33 26 24 21 19 16 14 13 13 11 12 12 11 10 10 9 9 9
90 100 94 100 98 89 87 90 84 66 33 40 65 60 56 38 63 100 89 71 99 100 99 98 100 100 90 60 38 28 24 24 22 19 14 12 10 11 11 10 8 8 8 7 6
34 81 96 95 80 96 90 96 69 36 49 57 61 59 44 100 63 100 100 95 99 100 99 93 85 81 100 99 63 35 28 27 24 20 16 14 9 12 12 11 11 10 9 8 7
24 64 82 64 100 100 76 79 52 34 62 58 59 70 51 62 72 37 55 86 99 97 89 65 64 63 100 100 84 59 40 39 25 19 14 14 11 16 18 17 16 14 12 10 8
83 36 20 52 74 92 64 43 27 50 56 45 56 97 54 44 100 78 58 97 100 100 100 98 74 83 95 98 98 100 83 49 47 32 20 19 18 22 20 19 18 16 14 13 11
61 94 51 40 22 22 23 29 42 60 50 60 100 100 61 47 84 91 59 93 93 88 95 96 77 42 48 48 43 38 49 38 30 29 24 27 22 22 23 19 17 16 14 13 12
31 77 81 99 77 72 31 37 78 70 53 39 74 72 77 96 70 63 62 79 94 79 56 53 56 38 31 29 30 26 24 25 25 23 22 20 22 21 19 17 15 14 13 12 12
55 39 82 39 29 27 34 79 99 81 52 89 100 70 61 71 34 76 82 95 100 97 63 53 42 36 33 28 29 29 24 29 28 26 24 23 20 18 17 17 14 12 11 11 10
46 57 28 54 24 41 69 84 99 72 99 100 99 99 61 77 79 68 92 87 100 100 85 80 62 60 50 38 33 29 33 32 29 26 23 21 22 22 18 15 13 12 11 10 10
61 62 47 39 43 31 62 76 62 68 60 92 77 89 95 78 57 71 98 67 78 88 77 57 54 52 49 42 44 38 43 33 27 22 20 24 29 25 19 14 13 12 14 22 27
60 65 48 46 48 31 28 29 30 26 30 39 42 45 56 65 96 70 82 68 62 87 72 39 38 42 42 41 42 35 30 26 24 28 27 31 30 23 16 13 15 30 40 37 34
33 39 58 40 47 42 22 28 24 54 55 46 67 72 74 85 72 71 64 74 75 55 42 38 37 40 38 33 30 29 28 30 29 31 32 28 24 19 17 33 41 38 34 28 31
26 30 32 57 43 48 29 26 17 16 46 64 69 66 82 79 67 67 56 61 66 37 33 36 34 33 30 29 29 29 30 38 38 31 28 28 24 19 41 55 48 36 33 35 38
22 24 24 39 52 40 33 33 37 54 51 58 41 44 70 83 93 99 78 69 37 33 34 33 31 29 28 29 34 38 40 37 32 28 29 27 37 65 67 70 55 41 42 36 28
25 26 22 25 31 43 44 30 40 55 54 55 53 83 87 86 89 95 52 32 32 32 31 30 28 27 28 39 44 42 36 28 24 29 40 62 70 82 78 65 50 41 34 32 29
25 24 26 23 28 26 39 40 50 54 57 57 64 66 81 82 94 58 31 28 29 28 28 27 30 40 48 47 40 30 26 28 30 52 76 88 93 82 61 50 49 46 44 36 37

GFSSW_500_rhum_051.txt.gz
RH
58 58 40 29 26 24 23 21 22 23 18 24 28 28 25 25 15 57 72 58 42 42 41 79 95 89 62 47 38 31 25 22 22 22 22 23 22 21 17 15 12 12 11 10 8
60 44 28 22 20 19 17 17 16 16 15 14 20 26 28 25 18 20 92 79 53 42 48 67 81 94 79 62 47 38 23 20 23 21 25 24 22 22 18 15 13 11 11 10 7
58 34 21 18 15 14 19 20 19 19 17 15 15 18 22 26 22 14 54 98 74 46 42 62 45 92 72 79 61 42 27 25 24 27 28 22 22 22 18 16 15 13 11 9 7
36 21 15 11 13 15 28 45 50 65 54 45 34 19 16 26 24 18 22 94 91 62 44 55 53 53 84 82 56 49 36 33 36 34 28 24 21 21 18 19 15 13 11 8 8
21 12 9 12 18 71 89 82 54 57 63 50 30 40 25 33 28 22 25 78 97 76 63 44 63 51 53 81 64 35 38 44 50 41 35 27 22 23 22 20 16 14 12 9 8
12 7 14 23 68 97 83 64 87 94 96 100 96 32 34 35 28 31 48 71 100 100 97 58 53 50 52 83 62 38 33 23 33 36 34 30 25 20 22 25 19 15 11 9 9
7 8 19 60 100 87 91 71 81 74 96 100 100 67 34 34 44 31 24 43 92 100 98 69 45 51 47 76 43 30 30 23 22 18 16 16 18 17 24 21 18 15 11 9 9
6 10 51 100 100 99 94 74 88 100 92 95 100 74 33 49 43 41 94 34 51 98 98 98 59 44 39 63 49 38 25 21 22 18 14 12 10 9 12 15 16 13 11 10 10
13 33 72 80 100 95 100 97 100 100 95 82 100 41 53 54 56 100 98 31 43 98 98 97 90 54 40 46 34 50 29 22 22 20 17 14 13 11 11 12 14 14 13 13 14
30 44 91 46 94 98 100 100 100 100 99 90 90 38 61 47 47 62 98 52 80 98 100 100 100 70 40 62 51 44 43 22 22 24 22 15 10 11 14 14 15 15 16 16 14
37 46 97 69 82 94 100 100 94 100 84 76 50 57 59 47 48 46 96 53 98 100 100 93 85 62 40 40 62 30 27 22 20 22 20 17 10 12 14 15 15 15 16 15 14
42 33 86 92 64 82 89 86 95 82 71 67 55 70 50 46 97 95 51 80 99 100 100 94 74 79 43 33 36 34 26 23 18 16 18 18 14 17 18 16 15 14 14 14 13
40 55 56 87 74 83 90 73 97 61 48 75 85 78 62 46 89 78 63 69 100 100 99 95 90 94 69 39 30 27 26 26 23 18 15 14 14 16 16 16 14 14 14 13 12
40 40 19 51 71 90 82 77 64 38 58 73 99 74 73 51 100 100 68 76 100 100 100 99 100 99 99 68 38 31 28 26 25 21 17 14 13 15 14 12 12 11 10 10 9
52 47 16 13 68 96 88 54 43 68 72 69 88 74 56 44 65 88 99 100 100 100 98 100 100 100 100 99 78 50 32 28 25 22 19 17 16 18 15 12 11 10 10 9 9
61 49 32 20 18 29 34 52 64 65 62 66 79 81 62 38 44 97 99 100 100 100 98 98 97 97 97 100 100 93 56 39 29 25 21 20 18 18 15 13 12 12 14 14 14
56 43 15 15 18 25 42 54 58 71 83 66 56 77 100 44 50 91 63 92 99 100 100 98 96 99 99 100 99 100 89 55 40 30 30 32 24 20 19 17 17 17 17 17 17
51 17 14 18 29 40 49 50 55 90 95 70 40 46 76 81 50 42 50 76 98 100 100 100 94 84 75 94 98 98 100 92 60 48 40 29 26 26 24 21 21 20 20 19 18
58 22 30 72 82 75 62 44 47 90 100 100 99 45 43 84 68 63 82 94 94 100 98 99 100 89 63 70 84 58 63 50 35 30 30 29 26 25 23 20 18 16 15 15 14
64 39 31 31 39 57 49 43 59 62 75 84 80 60 33 38 67 69 74 92 100 100 95 88 91 81 44 32 30 31 31 30 30 32 33 29 26 22 20 17 16 15 14 13 12
35 63 35 23 26 42 52 81 96 96 90 83 63 69 100 64 69 89 91 96 100 100 84 60 53 51 44 36 35 33 39 36 42 37 35 28 24 21 18 16 16 15 13 11 10
27 51 60 32 16 28 41 53 53 89 94 90 90 99 100 80 84 88 96 94 99 100 92 74 72 70 61 55 49 46 40 39 39 33 27 26 27 22 16 16 16 14 13 15 20
22 30 60 63 35 19 15 22 25 38 49 43 45 47 50 51 59 71 86 86 93 96 97 69 61 56 54 51 48 49 48 42 32 28 35 33 25 21 17 18 15 18 20 31 34
21 24 26 62 36 23 11 14 36 35 29 30 38 44 56 73 73 74 72 84 89 88 83 61 48 45 42 41 39 34 29 27 29 41 36 29 23 20 19 20 24 32 40 34 26
24 22 21 26 65 34 24 12 14 28 37 46 52 66 73 76 64 62 62 75 85 65 43 39 40 40 36 32 31 30 32 37 41 37 32 27 25 23 24 35 46 50 48 41 32
31 21 21 22 24 58 36 35 37 32 42 48 47 42 64 77 84 85 84 74 64 41 35 36 34 32 31 30 32 38 42 41 36 30 26 25 25 39 54 66 70 65 49 41 39
53 38 21 17 20 22 53 50 46 54 54 52 45 60 76 77 86 89 63 56 36 33 30 31 32 30 31 34 41 43 42 34 27 23 26 37 63 76 83 76 56 43 42 53 46

GFSSW_500_rhum_054.txt.gz
RH
87 87 84 79 69 54 33 26 26 27 26 31 30 24 21 17 24 20 16 68 82 55 42 46 75 95 96 59 38 35 53 42 33 42 36 32 30 25 22 19 16 14 13 12 12
84 83 80 61 33 23 19 16 18 23 26 31 32 31 30 23 21 24 21 39 89 74 47 60 44 89 95 90 56 40 40 42 29 32 34 34 32 27 22 19 16 14 12 14 14
87 70 31 17 13 9 8 14 19 18 18 18 20 23 30 31 25 22 28 19 61 86 67 47 70 49 95 96 69 54 35 34 29 29 31 32 31 28 24 20 16 14 13 14 15
60 19 10 10 8 11 13 28 69 96 100 78 36 19 18 25 24 24 32 22 21 89 78 48 60 75 62 92 81 69 54 37 34 35 30 28 28 29 28 23 20 16 16 15 15
12 12 16 15 16 34 57 92 100 99 98 88 88 81 35 23 20 19 33 31 19 72 95 60 44 76 64 74 94 76 64 54 46 44 32 25 24 27 30 26 20 18 17 17 15
12 21 23 20 62 100 100 96 88 88 72 70 67 66 42 44 25 17 65 48 22 22 100 68 44 61 74 69 90 88 65 76 66 52 39 27 23 22 26 30 21 18 18 16 16
21 28 28 37 80 93 100 99 97 84 75 81 87 93 99 48 39 28 64 73 31 26 88 92 51 47 76 69 69 96 76 75 59 65 45 33 24 20 29 30 22 18 18 16 17
35 36 43 99 62 78 96 94 91 74 100 78 73 90 99 87 42 37 89 57 39 35 63 99 57 46 62 87 56 84 96 79 36 33 45 39 28 21 27 28 27 20 19 18 19
41 55 41 100 74 71 89 89 86 99 100 78 91 83 100 69 60 49 100 61 51 47 71 97 79 49 47 84 61 70 79 88 38 32 25 27 27 26 27 28 28 24 20 21 19
53 62 24 92 91 73 97 94 96 100 95 92 100 97 84 68 67 56 100 66 45 45 94 99 99 96 53 75 74 62 62 83 42 30 28 18 17 17 15 14 15 16 18 16 17
54 56 20 99 98 59 80 100 98 90 84 94 87 100 86 69 73 44 41 36 43 43 61 100 99 84 69 62 74 56 67 56 34 30 26 21 19 15 16 16 16 14 15 14 14
66 39 18 98 95 67 90 94 69 87 73 75 100 90 100 100 80 100 100 95 54 47 87 100 94 100 85 60 69 49 60 43 43 50 30 26 25 16 17 17 16 16 16 15 14
33 14 19 48 61 73 73 69 65 57 74 93 79 79 88 100 95 100 99 88 76 81 96 98 96 88 86 64 67 49 52 39 40 36 24 22 20 20 19 18 14 14 14 15 15
13 14 19 24 46 74 47 35 46 66 70 73 87 100 100 99 100 85 100 100 98 98 100 100 100 96 80 67 46 44 62 81 35 29 26 28 20 19 18 18 15 14 14 13 13
13 14 17 20 23 30 40 59 82 73 100 100 92 99 100 52 63 76 94 100 98 99 100 98 99 100 85 62 40 36 52 78 52 30 26 22 19 17 16 16 15 14 14 13 12
25 21 22 26 35 37 37 78 97 84 100 99 99 82 92 98 52 47 95 100 100 100 98 100 100 100 98 87 56 38 34 62 36 29 25 23 22 20 18 15 13 12 12 11 10
42 34 30 38 42 40 44 58 76 64 88 84 88 59 99 98 99 99 76 97 99 100 99 100 100 100 100 97 97 58 39 37 40 28 24 22 22 20 18 15 14 12 12 11 10
24 33 41 44 59 50 46 53 55 58 60 72 62 58 92 77 95 71 97 100 95 100 100 100 93 97 100 99 98 100 83 48 40 34 29 27 24 19 19 17 14 13 12 12 14
28 21 34 37 53 72 82 47 45 55 64 84 89 38 34 69 65 75 100 97 93 100 100 99 100 98 100 94 98 99 100 93 79 57 53 49 36 33 24 19 17 18 19 20 20
46 20 28 38 42 52 56 68 75 69 40 44 57 59 43 38 46 43 81 100 97 98 100 100 99 98 90 91 99 98 94 94 94 87 67 46 33 28 26 24 23 22 20 18 16
33 44 23 32 51 66 62 46 62 58 60 50 41 52 48 56 57 86 90 96 97 100 96 98 99 94 80 73 61 69 62 60 58 44 38 35 32 29 24 23 20 18 17 15 14
23 33 50 29 38 48 61 49 42 52 54 48 38 56 47 45 64 80 82 99 94 96 93 88 80 84 78 51 42 35 33 32 32 37 39 39 30 26 23 21 21 19 17 14 12
18 21 36 52 18 19 34 48 44 46 51 50 59 53 45 39 56 72 82 86 85 88 94 84 71 60 58 64 47 39 36 36 39 49 39 31 31 26 22 22 21 18 15 13 13
22 18 25 36 21 14 16 18 27 34 28 28 28 28 33 32 44 57 72 78 83 95 95 86 83 72 62 58 58 61 56 43 42 35 32 29 28 26 25 21 18 17 16 20 28
36 21 17 28 33 21 17 18 26 23 22 26 39 42 46 62 65 66 71 80 81 95 87 77 75 65 62 52 52 56 52 43 31 32 30 32 29 24 24 22 20 23 32 40 42
65 38 18 21 36 35 26 16 15 26 30 32 38 52 60 68 70 61 68 71 77 74 76 49 52 61 43 42 35 32 31 32 37 41 38 33 29 24 22 20 26 42 51 50 47
91 66 36 16 20 35 34 37 44 42 41 45 46 48 42 67 79 86 88 69 77 58 39 35 38 37 37 34 32 34 40 43 42 37 32 28 25 27 33 51 66 68 54 41 30

GFSSW_500_rhum_057.txt.gz
RH
77 76 75 75 72 69 69 70 70 73 66 54 45 37 32 24 19 22 18 13 20 59 64 46 60 92 85 74 87 93 92 68 60 48 49 62 44 31 25 24 23 21 19 19 16
77 70 46 30 19 15 13 14 18 20 26 29 38 44 37 32 24 17 19 20 19 33 74 64 56 90 94 95 89 84 74 72 59 58 39 56 46 38 28 25 23 22 20 17 15
49 28 15 16 18 21 22 22 16 11 10 12 15 29 47 45 32 20 27 23 22 18 54 80 53 66 95 98 92 81 60 56 48 58 36 48 46 42 34 27 24 22 20 17 14
36 13 15 30 42 41 32 23 38 61 56 52 37 21 19 37 40 34 35 39 25 22 22 84 70 53 81 90 96 88 73 46 55 55 42 44 44 42 39 33 26 21 19 16 14
16 20 33 52 56 29 67 92 85 99 100 100 100 76 41 24 29 34 33 38 36 32 20 63 84 60 58 82 98 95 96 63 40 50 62 49 52 42 39 32 29 24 20 16 14
20 31 47 64 30 93 73 83 96 95 100 98 99 100 92 52 42 28 31 34 50 44 26 26 90 62 60 77 77 96 96 82 59 59 90 57 58 52 40 33 29 25 22 18 16
34 46 60 78 87 100 66 71 95 100 92 75 77 83 85 76 68 43 28 29 38 59 39 20 87 91 54 65 90 72 96 97 79 76 82 72 48 55 44 36 31 26 21 18 18
24 21 26 28 96 99 66 72 88 92 79 100 76 70 85 87 68 57 65 51 42 40 52 41 88 100 57 51 90 92 92 96 97 90 81 82 51 36 36 33 30 28 25 20 19
10 12 15 29 100 89 52 94 86 92 79 87 69 92 89 93 65 51 100 100 72 57 49 36 61 96 74 49 64 82 94 89 98 92 84 71 59 42 32 32 31 30 26 22 20
8 9 18 60 100 82 66 70 95 86 75 67 99 95 86 100 91 51 62 100 96 96 64 34 50 99 98 65 55 72 73 93 97 90 85 64 53 43 35 43 40 36 29 22 20
9 10 19 59 84 74 73 90 85 88 87 80 85 78 88 77 74 68 54 96 100 92 44 39 61 90 74 49 52 70 86 90 98 89 89 54 39 38 40 40 41 37 31 26 22
12 14 18 28 49 74 79 69 70 69 77 67 53 82 88 85 94 98 45 81 100 54 40 49 58 99 100 64 51 60 78 86 94 83 98 48 34 30 22 25 24 21 18 18 17
20 16 18 19 29 38 34 48 71 83 81 68 83 82 100 100 84 100 92 67 64 43 28 26 82 100 97 66 48 54 71 74 69 88 96 63 32 27 21 19 18 17 16 14 12
33 21 21 19 20 31 52 68 68 81 93 71 80 100 100 81 64 71 69 97 89 34 37 36 87 100 99 99 49 52 73 88 93 96 81 62 42 29 24 21 18 16 15 14 13
42 33 35 23 43 65 75 74 100 100 100 100 100 100 100 100 63 43 54 38 22 21 31 57 87 99 98 99 85 53 68 69 58 98 71 54 53 52 31 26 24 18 16 14 13
34 44 35 35 48 65 65 85 72 86 100 96 92 99 100 100 100 100 96 66 49 70 91 89 98 100 99 95 88 60 63 59 42 93 64 45 49 38 39 28 27 31 18 17 15
36 54 46 43 43 28 37 56 83 97 86 92 94 100 100 96 100 100 100 100 96 100 100 98 100 100 99 97 94 64 58 50 52 61 94 64 35 40 42 41 25 18 17 17 16
30 42 56 60 39 40 37 46 34 55 52 77 56 62 77 98 100 100 100 100 100 100 100 100 100 100 99 94 81 66 52 44 42 53 77 80 55 35 30 28 23 20 16 14 12
26 34 54 50 46 39 46 44 39 44 53 67 82 63 67 84 52 62 92 100 99 80 96 100 100 100 100 100 100 84 52 42 37 38 69 53 46 38 27 21 19 17 14 14 13
21 27 37 42 45 55 52 45 44 38 42 68 76 72 96 49 57 82 94 95 94 100 96 98 100 100 100 100 100 100 100 82 55 46 49 49 38 29 25 23 21 19 18 16 15
20 29 28 41 46 42 59 41 31 38 46 40 38 38 48 53 49 70 87 87 96 98 96 98 98 100 98 99 98 100 100 100 98 76 67 55 46 41 36 32 27 23 20 20 21
16 25 39 26 46 45 52 46 38 29 34 49 47 44 43 53 77 78 82 81 85 94 100 100 100 96 99 98 99 95 90 91 89 97 95 85 60 50 35 28 27 27 25 22 19
26 16 28 29 27 43 42 56 42 35 28 38 30 26 24 31 50 64 72 77 74 84 88 88 88 90 84 83 79 72 59 55 59 53 60 43 39 32 30 29 26 23 21 19 17
50 22 17 30 17 17 29 36 42 41 41 39 35 36 37 36 51 62 69 75 77 73 80 84 80 71 70 67 62 51 39 32 32 34 44 40 35 34 30 27 24 23 20 18 16
83 35 18 18 27 13 13 16 22 30 25 21 21 23 26 26 33 47 64 74 78 80 77 78 76 71 62 61 59 60 66 63 49 50 42 41 34 30 30 29 27 24 22 20 19
74 82 29 16 25 27 14 13 22 24 24 22 24 30 28 40 52 57 68 72 73 85 83 90 92 87 79 71 66 59 60 74 84 65 41 33 30 27 32 30 26 24 22 28 37
72 95 63 26 18 25 30 17 12 18 25 34 35 45 43 56 67 65 63 65 74 77 90 85 77 70 67 55 49 43 42 44 49 41 39 34 32 33 30 28 27 28 40 54 54

GFSSW_500_rhum_060.txt.gz
RH
56 68 51 48 44 34 30 28 29 36 50 74 89 97 87 77 64 35 16 18 17 15 30 62 54 94 98 97 85 98 96 91 88 95 72 76 84 66 48 31 32 31 37 38 38
60 58 58 40 23 15 14 16 18 17 14 14 23 54 77 86 75 55 26 26 18 18 15 44 66 63 95 99 91 72 78 74 88 100 98 78 92 68 61 36 27 27 26 24 22
61 53 28 16 18 30 38 34 19 18 26 30 21 13 18 48 72 63 39 29 32 22 17 18 73 68 72 98 98 70 68 70 91 98 95 94 79 65 65 43 29 26 26 24 21
47 18 13 14 18 14 23 29 29 53 47 41 22 19 20 17 41 60 50 45 49 31 22 17 47 82 61 74 90 96 72 65 90 93 92 90 70 59 64 49 34 26 24 23 22
20 9 7 8 11 36 80 100 97 66 70 73 83 84 66 22 18 32 53 52 47 46 30 20 19 74 80 58 78 98 88 80 92 75 88 94 88 51 62 51 41 30 24 24 23
7 7 8 8 15 72 100 100 88 67 82 100 100 100 100 80 35 18 34 50 48 50 46 27 19 32 86 63 71 89 100 99 90 74 78 93 95 89 60 53 46 36 30 25 23
8 8 8 11 43 94 100 85 56 75 100 98 91 100 100 100 77 23 24 41 48 63 48 33 26 21 78 82 62 79 97 96 86 70 61 92 94 67 74 54 45 40 34 29 24
10 8 7 28 86 99 91 60 71 93 95 89 98 71 96 96 91 61 26 33 41 77 62 51 40 24 71 91 67 63 88 96 97 86 96 86 79 78 64 67 45 40 36 31 28
10 9 8 21 61 90 70 65 86 95 83 66 67 71 72 76 77 76 46 33 38 56 81 76 52 26 57 87 93 82 68 80 97 97 97 93 67 88 72 66 65 49 40 34 28
13 14 14 13 32 54 76 84 76 81 74 61 67 95 77 66 69 53 63 42 70 60 86 98 61 43 42 76 90 86 74 70 80 94 98 94 71 77 86 71 52 54 49 40 32
20 30 21 16 18 33 54 64 97 96 100 81 85 73 98 82 66 76 46 37 64 55 100 61 72 45 26 44 89 78 69 82 89 93 95 96 96 77 68 77 60 44 37 36 31
27 36 26 41 53 58 55 60 56 53 54 64 56 60 96 80 78 59 100 100 55 66 51 54 49 50 48 72 100 91 59 76 97 77 92 97 94 84 68 65 74 58 48 34 29
31 33 36 50 54 70 95 54 39 42 40 49 61 83 86 77 100 97 100 98 100 83 54 61 38 33 37 72 97 85 56 60 79 62 86 97 94 85 64 55 70 72 47 38 32
43 34 28 36 45 48 91 73 67 92 94 97 90 88 90 60 100 100 98 100 100 100 94 65 38 28 40 84 100 84 62 60 66 64 93 98 89 88 76 39 43 41 39 33 28
35 39 35 23 41 48 71 91 94 100 100 100 97 99 100 100 82 73 92 99 86 66 50 36 33 41 72 88 100 98 61 56 61 82 91 94 87 82 71 35 29 22 19 18 16
24 36 30 28 39 60 57 43 55 87 100 100 94 98 100 60 50 33 42 66 58 34 26 30 36 61 100 100 94 89 58 52 61 82 91 90 92 82 72 41 30 24 21 19 16
23 30 26 30 30 36 51 56 45 80 100 80 100 71 94 60 80 92 61 82 46 48 44 45 46 49 99 100 99 99 86 56 59 73 83 94 92 76 69 53 44 32 26 32 38
18 24 34 27 35 28 32 47 46 70 81 84 99 100 53 100 100 100 84 99 63 50 47 61 78 96 100 89 99 100 100 84 56 65 72 73 83 60 53 57 48 38 37 31 29
16 22 25 35 29 26 29 32 45 62 82 96 93 99 100 100 99 100 100 99 97 100 100 94 87 96 97 100 97 89 90 86 73 62 68 55 65 81 64 53 44 42 34 34 24
27 17 23 24 28 31 28 30 46 68 72 61 62 78 57 42 61 100 98 98 99 100 100 100 90 89 95 100 98 100 97 89 70 75 65 61 60 70 69 72 51 38 32 25 24
60 20 19 22 31 25 28 33 29 52 47 54 71 57 52 55 57 73 82 92 90 84 93 100 99 93 95 98 98 93 100 85 75 60 56 47 43 46 68 55 43 32 24 21 19
70 43 19 20 23 25 29 28 30 31 28 31 40 34 36 37 43 66 77 78 96 100 87 94 98 100 100 100 99 99 92 96 85 83 72 50 47 41 46 51 42 35 34 32 29
36 86 28 15 17 25 36 33 43 31 38 38 31 32 24 35 58 65 70 72 79 95 98 89 87 97 96 100 99 100 100 99 100 98 99 97 79 65 60 56 46 43 39 29 27
14 81 59 22 16 13 32 40 36 39 38 37 35 27 35 30 39 55 62 63 66 78 83 85 79 79 89 99 97 98 98 91 74 79 72 73 79 70 60 46 47 34 30 28 26
17 43 95 36 18 16 12 22 34 40 39 39 39 34 36 34 37 47 53 59 61 64 63 68 75 75 74 75 77 70 63 52 43 39 46 46 46 42 39 38 32 30 27 23 21
46 25 68 97 24 16 16 10 16 21 29 26 21 23 25 26 26 41 57 66 67 65 66 76 78 75 69 64 62 61 61 61 50 53 37 38 38 41 39 38 34 30 26 23 21
46 64 38 96 63 24 21 19 12 20 22 24 23 25 37 50 55 60 57 65 75 75 82 81 81 82 78 75 67 61 62 59 61 71 75 50 45 38 33 36 34 31 28 24 22

GFSSW_500_rhum_063.txt.gz
RH
19 47 55 42 25 19 24 28 31 36 44 40 56 66 86 91 95 84 43 30 21 18 19 50 81 96 92 94 96 98 98 95 97 96 98 100 93 77 65 59 54 52 49 48 53
48 44 15 7 7 8 9 11 18 20 18 16 17 19 22 58 86 90 76 52 34 20 18 22 69 97 92 96 96 93 94 88 91 97 98 97 100 79 74 69 52 46 47 48 49
42 13 6 6 6 6 8 11 13 17 26 33 31 22 16 16 36 80 95 73 52 39 18 18 24 95 98 98 98 91 87 100 100 98 94 95 90 97 66 75 59 43 35 35 34
24 8 7 6 7 8 46 93 100 97 83 59 38 22 23 18 22 32 82 95 86 56 43 19 18 51 96 91 94 91 94 98 99 98 95 97 94 99 76 75 66 51 36 34 31
20 8 7 8 8 16 91 100 100 94 90 77 63 68 47 18 14 27 33 88 100 84 52 32 19 18 72 91 93 88 95 98 97 94 99 97 97 100 87 80 70 57 42 30 27
16 10 10 11 10 49 80 100 93 81 67 72 92 83 100 90 57 22 26 35 99 96 77 58 30 18 37 96 94 89 100 99 92 80 77 91 96 100 94 83 75 63 51 32 28
15 14 13 14 15 29 84 90 70 58 73 91 100 93 100 100 95 68 20 26 64 100 90 66 52 24 20 76 100 86 98 96 96 74 68 80 95 87 97 75 64 66 60 41 30
22 22 22 33 51 32 43 57 58 83 83 92 100 88 96 96 100 100 65 22 33 99 85 100 69 36 21 47 94 95 79 94 92 88 75 72 84 100 98 86 68 61 58 48 36
26 28 37 39 22 24 37 52 58 79 76 69 70 90 86 89 98 100 93 43 31 96 81 100 87 41 31 34 71 98 76 77 73 96 95 96 94 98 90 89 78 68 60 50 44
19 25 35 44 41 49 41 35 61 59 59 64 57 82 84 66 75 99 68 74 43 85 100 95 95 55 35 27 38 55 72 67 66 74 100 96 87 94 94 94 78 75 64 50 43
15 23 24 42 62 84 77 80 43 55 80 91 74 72 86 69 63 98 62 77 68 89 100 96 88 46 26 25 33 71 96 88 72 68 86 98 100 98 93 87 92 69 75 63 46
18 20 21 29 43 48 63 84 51 55 43 41 67 70 66 70 68 93 61 65 98 100 99 94 60 68 45 33 32 52 82 84 93 72 82 94 94 99 83 79 81 88 72 71 68
20 20 21 25 46 35 55 80 100 92 97 100 76 70 79 76 67 81 51 100 100 100 94 73 58 67 54 39 33 33 56 77 87 83 72 76 84 91 82 72 71 84 89 77 66
24 21 20 24 29 33 69 96 85 100 100 100 95 56 60 75 88 79 38 92 85 100 100 78 76 64 58 49 40 34 48 90 95 71 65 69 69 85 94 93 75 79 80 77 63
31 21 22 20 27 45 46 52 83 88 100 81 80 96 100 100 100 100 100 84 51 82 99 82 56 40 48 49 37 38 94 100 91 69 61 65 74 74 80 76 72 68 75 74 69
37 21 24 18 23 30 35 46 71 96 100 92 90 88 92 98 100 100 100 100 100 87 63 52 50 41 37 35 39 65 92 88 94 70 58 60 76 67 73 78 87 73 59 62 59
41 27 21 22 21 24 31 51 53 47 77 100 98 57 53 51 54 89 100 99 97 73 78 90 73 43 31 31 64 80 90 95 99 78 55 59 74 59 73 77 74 78 54 46 45
21 35 20 23 22 23 26 58 37 64 62 85 94 98 83 80 98 90 53 86 79 80 63 63 68 48 40 73 93 86 100 95 78 68 54 56 64 60 73 66 73 76 35 29 24
7 44 24 17 24 22 25 34 53 62 66 80 94 100 98 100 100 99 94 71 64 57 47 41 34 28 49 92 100 87 89 97 96 83 57 54 54 67 79 68 74 73 48 40 30
5 35 39 18 23 20 23 31 67 57 52 62 80 79 54 72 100 75 63 56 41 39 44 54 45 56 70 97 100 98 100 97 98 95 86 54 52 61 64 72 62 65 62 44 40
4 10 48 27 18 23 17 23 44 47 48 65 50 45 40 49 63 80 76 62 63 71 88 86 89 80 97 94 87 100 94 94 98 95 83 73 59 62 64 73 88 83 64 46 44
3 7 29 54 19 22 23 18 26 40 32 48 36 41 38 45 56 70 65 68 70 81 84 88 82 94 77 74 90 100 100 93 99 92 86 72 64 64 62 76 86 81 78 65 47
3 8 14 68 27 20 29 30 22 31 31 27 37 34 26 48 58 67 71 73 77 83 88 98 97 84 87 87 99 94 80 80 96 98 88 74 58 60 50 47 43 45 60 44 36
3 12 19 23 72 22 22 39 34 23 24 35 41 34 34 32 42 58 62 71 77 82 89 94 94 100 98 100 98 89 82 83 86 99 99 90 78 98 98 86 70 62 53 50 46
3 10 36 22 54 47 18 30 37 41 34 35 39 35 31 38 39 50 57 60 61 70 89 89 86 88 95 98 99 99 100 99 99 97 87 80 63 66 93 92 84 47 62 47 35
2 4 47 63 36 82 32 17 15 28 36 37 33 30 28 25 26 29 38 53 60 63 62 69 78 75 74 75 76 86 86 89 88 76 53 48 47 49 50 63 81 46 36 35 31
3 3 40 60 48 60 66 23 16 13 17 24 28 25 21 22 27 34 57 58 63 65 67 66 69 80 82 74 70 66 64 62 57 54 51 48 45 44 46 54 44 42 37 35 30

GFSSW_500_rhum_066.txt.gz
RH
25 30 18 8 8 8 8 8 9 10 16 48 41 33 84 98 98 98 95 78 53 18 18 32 70 52 96 98 96 96 96 94 96 97 94 67 56 50 37 34 33 26 26 26 28
28 23 9 7 7 7 8 10 12 10 11 13 28 29 28 56 96 96 100 98 68 37 17 22 55 76 77 90 87 97 95 71 96 98 94 69 56 60 48 32 45 37 35 33 31
25 16 9 9 8 7 10 77 100 100 79 28 18 32 33 30 46 88 100 100 86 60 24 18 34 85 65 79 90 86 84 75 100 98 96 86 72 73 63 43 51 52 49 50 52
23 13 13 15 15 19 21 66 99 94 94 94 75 40 33 32 31 32 79 98 99 79 46 18 19 35 88 66 78 97 98 96 98 97 97 97 100 100 82 55 50 60 52 52 51
20 21 21 21 36 37 19 64 98 100 93 92 96 94 71 33 31 29 30 86 100 98 66 29 18 19 39 75 82 98 97 97 97 92 96 97 98 97 91 75 66 63 63 53 49
19 21 27 26 46 51 35 22 75 86 81 77 74 70 68 65 35 16 27 28 100 100 89 52 24 18 19 48 84 98 97 98 92 99 97 95 98 94 90 71 72 71 71 60 49
19 19 26 27 47 58 54 35 32 41 53 60 86 100 85 93 68 28 14 26 47 100 99 84 43 23 19 24 77 98 98 95 92 96 97 88 97 98 100 93 74 80 72 70 54
21 19 23 30 48 61 69 67 44 47 54 94 100 98 89 79 82 74 42 16 29 86 100 95 76 48 22 21 59 98 98 91 98 94 94 98 89 100 96 99 94 81 80 78 63
26 19 21 26 45 78 91 100 60 49 48 55 74 82 80 82 100 100 100 25 28 40 100 100 100 67 40 19 51 95 97 83 96 94 97 94 80 81 95 90 88 88 80 77 73
30 20 21 27 34 80 84 100 96 43 58 53 55 69 82 94 89 93 100 58 32 32 92 100 100 98 53 23 32 48 72 75 76 95 87 95 88 95 94 84 82 98 82 71 68
31 20 18 20 33 60 58 96 100 97 69 47 53 74 82 65 78 94 100 68 39 32 96 100 97 69 34 31 21 30 64 86 74 91 96 100 100 97 89 90 82 89 97 89 67
28 20 18 17 37 41 49 95 100 94 100 82 52 66 53 69 64 76 100 79 82 44 81 99 78 88 62 38 24 30 43 62 99 93 92 91 96 98 96 86 81 89 94 93 85
20 25 21 24 30 36 58 82 81 89 100 78 57 51 54 56 72 99 99 100 99 81 100 90 74 86 65 41 29 25 40 63 75 81 77 86 90 84 71 79 81 78 87 84 78
8 33 21 21 22 39 56 57 54 98 95 100 71 43 50 57 80 95 100 99 100 98 100 86 88 71 63 45 33 27 27 35 54 72 68 72 65 69 83 80 81 94 85 84 79
4 37 20 24 21 28 51 64 34 52 94 100 100 98 48 58 62 99 96 99 89 79 94 82 81 62 68 53 38 34 32 27 32 49 55 63 66 56 79 90 64 83 83 73 71
3 25 21 25 25 23 40 62 33 35 76 83 86 100 100 51 69 100 100 100 100 100 100 96 79 83 72 59 48 40 33 30 39 39 44 44 51 47 61 68 87 84 81 76 68
3 9 30 19 23 19 25 57 38 27 66 73 56 70 100 97 50 61 84 97 99 100 100 100 82 64 67 61 51 39 30 34 48 51 35 55 64 36 56 68 71 75 88 91 82
2 4 40 16 20 19 25 39 43 73 95 76 97 99 82 79 100 100 90 48 44 94 87 88 84 52 40 39 33 30 33 53 69 59 55 66 47 31 48 65 68 67 76 88 84
3 3 21 29 16 20 27 37 29 36 65 78 64 90 84 59 58 79 89 87 78 68 94 73 67 60 48 35 30 31 26 48 72 80 75 66 54 47 50 60 79 81 88 94 73
3 3 6 41 13 16 19 26 35 34 35 52 53 61 85 78 58 44 54 56 81 76 76 61 59 56 52 43 38 43 98 83 81 83 70 64 55 48 49 59 80 96 90 92 89
4 3 7 13 43 16 16 21 35 34 40 51 50 46 55 76 80 74 49 49 48 51 48 60 50 50 45 28 40 48 70 75 93 84 75 72 63 50 49 52 90 98 95 96 92
5 3 5 9 55 18 20 20 21 36 36 37 38 38 50 54 72 80 76 62 38 48 54 79 85 54 37 41 49 70 77 86 96 86 80 75 69 70 61 63 82 95 93 84 89
6 3 3 7 19 74 18 23 24 25 32 35 39 34 26 44 60 62 72 74 69 58 75 91 87 85 54 52 56 66 63 81 87 82 82 92 71 72 70 82 94 95 97 96 96
6 3 3 6 25 34 67 19 32 29 27 26 25 28 28 33 40 58 55 68 77 84 82 89 78 80 82 82 78 83 80 92 88 76 83 77 81 86 90 95 91 90 96 95 93
5 3 2 7 29 43 84 22 28 38 29 27 27 32 34 31 34 43 54 62 63 74 81 86 99 97 81 77 88 92 96 97 77 78 82 87 76 100 100 100 99 97 91 77 66
5 3 2 4 26 52 40 84 22 27 40 42 37 36 36 32 30 30 42 49 56 60 64 86 92 93 95 96 93 90 88 92 79 71 67 86 87 98 93 82 100 97 93 53 65
5 3 2 3 20 53 70 67 44 25 17 26 36 37 29 24 26 26 27 40 54 58 60 59 72 81 85 84 80 74 78 88 96 90 89 75 62 54 42 48 68 74 85 51 40

GFSSW_500_rhum_069.txt.gz
RH
8 18 17 11 10 13 10 9 6 20 24 13 15 36 58 82 100 100 94 87 74 35 16 18 51 60 48 71 83 94 98 88 71 87 84 54 42 32 23 18 16 14 13 16 16
10 21 16 16 22 19 22 20 11 70 100 92 24 24 38 52 74 100 100 99 98 68 26 17 23 70 56 55 80 98 95 72 89 99 98 80 61 40 28 20 18 18 17 17 20
14 22 17 19 39 51 47 33 24 94 100 100 99 35 37 37 46 88 100 100 100 96 50 17 19 52 73 53 74 97 85 90 100 97 94 90 95 59 35 25 25 24 20 23 23
17 23 18 20 52 62 44 59 50 73 97 100 76 88 36 52 40 40 96 100 100 98 78 26 17 25 60 54 88 93 86 99 97 97 97 98 96 78 56 40 32 33 25 29 26
14 23 20 17 45 53 52 63 73 35 84 87 72 98 100 36 51 39 44 98 95 100 96 44 18 18 36 58 69 100 99 98 97 97 97 98 98 88 64 53 34 37 42 38 33
12 22 21 17 35 44 66 91 77 35 33 75 81 75 79 83 38 44 36 62 98 100 96 65 20 18 24 61 61 97 82 96 91 98 97 96 95 82 74 59 50 40 46 35 37
10 23 22 16 32 43 75 96 94 44 44 48 62 68 70 85 54 32 39 37 88 99 99 89 39 19 18 36 76 65 68 89 95 98 95 98 97 86 81 70 65 57 60 49 46
9 25 22 16 34 48 70 63 96 60 46 60 100 100 98 78 71 40 34 40 45 100 100 100 77 25 19 20 48 75 70 90 97 97 97 96 96 98 96 91 82 75 71 74 62
5 27 22 16 34 48 41 53 95 86 69 59 60 82 90 70 68 64 62 27 37 56 100 100 99 54 20 19 21 40 74 82 99 94 98 94 98 97 97 98 95 94 88 86 80
4 29 22 19 32 50 33 44 88 100 73 71 51 64 74 78 81 71 98 35 30 36 78 99 100 84 37 20 15 14 41 76 95 98 95 92 98 97 97 97 98 100 100 95 86
3 21 21 22 25 47 29 38 65 91 95 51 60 57 72 69 99 100 100 94 35 35 44 100 98 69 41 25 18 17 29 70 96 96 94 97 99 96 97 97 98 95 99 98 91
3 11 22 25 27 40 42 28 48 90 91 80 47 63 60 56 84 100 98 59 52 35 41 100 84 100 90 50 25 18 31 58 82 99 98 98 97 98 96 89 94 100 96 98 91
4 6 23 24 23 30 41 25 41 71 96 100 73 57 55 54 65 99 80 85 57 42 60 91 96 99 94 64 32 20 33 54 78 98 95 96 97 93 86 74 75 92 80 77 74
4 4 24 20 21 24 31 28 45 56 94 100 97 56 58 55 61 89 100 100 98 73 62 90 100 94 89 61 39 22 28 39 54 85 90 96 84 93 77 68 70 74 80 80 75
7 3 23 18 20 22 26 36 45 59 78 100 92 77 62 67 81 96 87 100 100 96 100 91 97 95 94 59 43 28 24 34 41 51 65 84 88 76 79 66 61 60 65 76 78
8 3 15 22 22 20 31 31 48 55 92 98 100 58 72 95 86 80 100 98 98 100 100 99 96 100 92 65 42 31 27 25 23 27 20 28 40 46 64 57 65 89 73 72 68
10 4 6 29 18 20 32 33 53 60 58 97 92 70 68 74 70 79 99 100 100 95 100 99 94 84 79 62 44 34 30 27 28 26 18 22 20 17 40 54 59 77 94 74 65
10 7 4 20 15 18 23 34 53 57 59 83 89 82 70 86 94 88 73 90 100 100 99 98 96 80 76 59 45 40 35 31 27 20 23 37 17 11 29 41 51 62 80 83 74
10 11 4 5 29 18 19 28 36 42 48 48 68 70 81 99 73 68 88 98 74 54 82 82 81 72 68 67 58 44 38 35 27 28 57 48 26 30 31 42 49 56 65 76 80
10 8 4 3 18 17 20 22 26 26 34 33 51 64 58 52 72 76 56 61 92 93 98 96 98 75 60 61 54 45 41 32 26 26 31 44 49 42 48 50 51 57 70 83 91
8 7 4 3 6 40 15 22 23 24 32 33 33 42 76 62 51 51 57 61 53 73 91 84 79 71 57 48 42 32 25 27 49 48 45 50 54 62 54 56 56 57 72 94 93
7 7 5 3 4 20 27 19 24 36 44 33 28 30 44 86 78 47 46 49 48 57 58 58 56 48 51 50 48 38 29 34 48 53 49 47 44 69 68 63 56 56 66 82 96
8 7 6 4 4 10 39 39 19 27 36 42 38 31 29 58 74 83 54 45 40 38 36 58 69 43 41 42 46 37 25 47 42 56 38 54 55 87 78 77 66 63 76 75 96
8 7 7 6 4 6 24 70 25 27 29 32 29 31 27 32 43 63 78 93 92 76 82 84 93 90 77 46 33 34 46 69 61 49 54 64 87 99 81 84 92 99 97 99 93
9 7 6 7 4 4 28 41 56 28 38 32 30 28 27 26 31 41 55 72 93 98 100 100 100 98 96 92 85 57 64 57 56 73 66 82 78 100 98 96 96 93 91 95 90
11 8 7 7 4 5 14 41 76 28 36 46 38 37 37 33 30 34 43 49 56 60 74 91 99 100 98 88 76 78 71 70 70 72 72 74 73 98 98 100 99 99 99 100 99
14 10 8 7 5 6 14 30 43 83 30 35 42 46 40 36 28 26 24 33 46 49 53 58 69 87 92 97 93 79 83 79 85 83 84 74 90 82 81 97 80 72 86 100 100

GFSSW_500_rhum_072.txt.gz
RH
5 4 15 18 15 25 39 45 46 48 42 53 100 51 16 51 89 98 100 100 98 48 21 17 15 22 33 31 57 97 96 82 74 93 65 55 50 38 29 21 16 14 13 13 13
5 5 16 19 15 33 41 35 37 40 57 94 100 100 38 20 60 98 100 100 96 66 38 17 16 16 30 29 35 81 78 84 80 99 86 64 53 44 34 28 23 19 14 13 12
6 4 14 18 18 33 38 36 37 31 54 100 100 99 100 25 33 56 100 100 99 72 60 23 17 16 21 37 33 59 81 86 98 98 98 82 63 50 39 33 24 21 26 17 14
7 4 16 17 16 37 34 36 44 41 35 81 100 99 90 75 30 41 76 100 100 99 77 48 19 17 12 19 37 41 60 79 99 97 96 97 82 59 48 38 28 22 31 36 27
7 5 19 17 20 42 32 45 61 54 28 28 98 91 56 78 42 32 47 98 100 99 94 74 25 17 17 15 42 37 98 94 98 97 96 93 80 74 70 46 35 25 26 55 43
8 4 20 19 30 46 32 48 64 58 45 31 34 86 66 85 70 40 41 60 100 100 100 94 35 18 20 24 41 42 44 91 97 98 96 97 84 78 80 61 44 33 31 50 58
9 4 17 22 20 39 28 42 60 61 71 36 50 63 80 73 72 58 41 52 78 100 98 99 70 19 20 28 50 52 48 76 94 98 98 98 96 70 79 76 63 46 46 46 59
10 5 16 22 26 36 34 31 44 75 85 45 44 76 66 66 65 65 49 49 60 100 100 100 100 40 18 22 41 63 59 75 98 96 97 97 96 100 92 77 69 56 55 57 54
11 5 12 22 22 30 34 30 46 81 90 71 40 62 81 81 57 58 56 45 53 80 100 100 100 80 19 19 34 46 48 72 94 98 94 97 96 98 96 80 69 58 56 58 59
12 6 11 21 22 27 30 41 60 85 93 82 50 49 63 81 64 61 50 42 51 59 100 100 100 91 23 18 15 17 28 42 71 87 95 97 100 95 98 91 71 72 72 72 68
14 6 7 20 22 25 26 49 65 81 89 86 54 50 67 80 88 72 97 65 61 61 88 100 100 78 44 18 17 21 22 39 49 57 81 96 98 98 98 100 96 86 83 84 86
13 11 4 21 19 25 27 52 70 70 83 78 66 50 55 72 93 92 100 89 68 56 66 100 92 96 62 24 18 18 18 27 66 85 83 95 94 98 97 98 96 88 99 95 99
14 13 4 20 16 25 25 59 65 70 76 80 68 46 42 55 94 98 100 100 48 48 52 94 95 94 78 38 21 19 19 24 72 97 96 97 96 94 94 97 96 94 96 92 88
12 11 4 15 16 24 27 44 58 81 76 100 79 59 35 47 84 95 74 100 49 44 39 98 100 100 77 56 36 25 23 29 51 64 70 95 83 91 99 96 96 98 97 94 93
11 9 5 10 17 21 34 36 57 82 77 91 94 100 63 41 61 72 68 90 65 51 37 90 87 89 83 81 60 37 31 30 45 68 71 85 76 85 95 94 87 97 96 94 92
10 9 5 5 19 18 35 33 47 58 96 85 89 100 98 56 61 72 74 84 100 55 37 96 100 100 100 91 83 55 31 28 34 40 55 57 66 70 82 80 96 97 97 97 94
10 10 7 4 11 16 27 38 42 44 73 64 55 88 85 52 57 92 66 68 61 67 54 99 100 100 99 100 77 48 26 26 27 34 37 37 37 34 41 71 72 94 95 92 86
11 10 9 6 4 21 16 30 38 38 48 88 86 63 60 40 81 100 100 100 100 100 72 88 100 100 84 89 72 47 34 26 22 26 27 24 24 21 21 26 47 70 83 84 69
12 9 9 7 4 15 18 19 35 32 33 55 66 100 83 54 52 81 88 97 100 100 100 96 93 89 78 82 67 48 34 29 26 24 24 20 14 14 26 22 22 45 58 71 67
14 10 9 8 6 4 33 18 28 26 29 28 57 58 75 37 39 47 56 54 83 100 100 100 98 83 74 72 57 46 41 35 30 30 25 15 28 42 44 34 23 26 40 53 58
17 12 10 10 8 4 17 24 21 38 32 30 26 48 47 68 54 68 63 53 39 61 60 96 87 81 79 67 64 55 45 38 37 29 22 18 28 44 48 46 40 33 40 50 60
19 17 12 11 12 5 5 26 23 27 42 35 29 33 52 44 47 60 67 66 61 50 60 85 76 81 75 72 69 60 51 50 38 26 31 32 28 54 59 62 56 47 52 54 61
24 22 15 13 17 9 6 20 52 25 35 43 37 29 36 54 55 40 48 52 66 71 82 80 80 84 80 68 52 40 43 40 35 34 25 25 24 72 61 67 72 70 62 61 59
27 23 19 16 14 11 6 21 50 59 38 36 38 37 29 39 56 61 43 43 44 43 44 46 46 46 49 49 56 52 52 49 46 30 25 22 50 77 79 80 80 76 61 57 57
30 22 16 12 12 11 8 17 46 87 36 38 35 30 30 31 36 48 58 72 63 56 45 44 50 67 94 81 49 40 32 42 39 34 53 62 52 86 92 88 86 81 76 68 68
32 20 14 10 11 12 11 17 49 53 37 47 39 37 30 28 32 36 44 51 64 88 93 94 100 100 100 100 99 84 46 32 41 60 49 66 55 99 88 76 94 100 99 95 90
26 20 16 11 9 10 8 20 34 74 73 35 45 42 42 35 35 35 40 46 58 58 62 67 73 85 96 98 98 89 98 91 70 70 80 57 91 82 91 91 97 92 95 95 94

GFSSW_500_rhum_075.txt.gz
RH
12 9 6 6 15 15 21 32 32 22 23 28 22 99 100 58 20 66 100 100 100 100 99 74 16 18 16 27 44 33 75 83 78 96 97 81 48 34 29 26 29 43 46 50 45
13 11 7 6 15 18 28 39 34 38 28 33 46 100 100 100 35 40 100 100 100 100 99 77 22 20 16 21 67 62 51 69 84 92 98 96 68 46 33 30 25 21 25 30 31
13 12 8 6 16 18 30 31 38 45 50 42 41 98 100 94 73 30 75 100 100 100 98 74 23 20 16 23 50 57 45 52 94 100 97 96 92 60 46 35 32 21 20 16 18
12 11 7 6 16 22 31 28 37 42 64 58 35 71 100 98 80 44 43 89 100 100 100 100 49 25 18 16 21 43 37 58 82 98 97 96 95 74 56 45 36 28 22 21 20
11 12 8 6 16 23 27 27 43 59 68 66 36 31 100 97 78 65 30 54 100 100 100 100 63 28 22 15 12 14 51 100 97 95 96 97 92 81 62 51 42 35 27 26 32
11 10 8 6 16 21 24 33 53 64 67 61 44 31 95 90 72 60 40 46 96 100 100 99 75 24 24 18 14 11 21 53 71 96 98 96 96 85 62 52 46 40 33 28 29
11 10 7 7 14 20 24 30 53 67 67 57 51 37 64 98 74 83 59 38 78 100 100 100 88 21 22 20 35 14 22 37 62 97 98 97 96 83 74 53 47 43 38 34 29
12 9 6 7 13 20 22 34 60 75 70 51 50 39 79 81 71 69 90 36 60 100 100 100 100 26 23 24 32 20 33 28 43 94 91 95 84 84 96 68 52 48 42 41 36
11 9 8 6 14 19 25 46 60 81 78 54 42 40 64 81 71 63 87 53 97 100 100 100 100 62 22 28 43 32 25 16 33 89 100 97 84 98 99 87 77 64 54 44 45
13 9 9 6 14 17 26 35 61 86 84 65 40 44 64 68 78 60 71 89 55 97 100 100 98 96 28 20 24 17 29 19 25 30 88 92 98 98 95 100 89 70 62 57 50
14 10 9 7 12 16 28 36 59 89 84 86 60 50 75 68 83 72 66 81 59 92 96 89 100 90 64 30 21 25 24 51 43 46 52 87 98 94 95 96 96 87 72 64 60
15 10 9 7 10 16 27 42 53 78 76 93 89 41 57 66 75 78 67 76 61 87 100 99 97 100 97 34 19 19 22 28 62 74 76 98 98 97 98 97 99 85 75 72 64
17 12 10 8 9 16 27 32 51 75 75 92 91 59 44 60 75 100 94 64 70 79 98 97 100 100 93 65 20 19 23 37 50 67 68 90 84 77 97 99 97 96 88 79 69
18 13 12 10 8 16 25 35 47 60 65 86 87 68 53 89 100 98 100 70 72 70 100 100 100 100 91 72 23 19 23 32 35 37 38 61 59 67 96 91 95 93 93 72 68
20 17 14 12 8 14 28 35 43 48 61 89 100 73 48 74 76 100 85 89 100 80 99 95 100 97 88 76 29 19 20 23 24 25 51 55 52 55 88 69 74 98 100 100 95
22 19 15 14 10 12 18 33 37 42 66 81 99 96 40 50 58 75 100 71 70 60 99 96 100 100 100 82 40 27 20 21 23 26 47 60 56 51 76 77 86 98 94 95 82
22 21 16 15 14 6 20 24 32 36 50 82 59 78 60 54 51 41 79 68 56 47 99 100 100 100 99 81 60 41 31 23 23 27 28 43 51 66 62 80 90 93 93 97 97
24 23 17 18 17 7 20 22 31 42 40 79 54 65 62 56 52 40 55 60 45 41 96 98 99 100 97 90 91 61 45 28 21 17 24 40 32 38 37 45 91 98 91 88 94
25 24 18 16 13 10 7 29 26 39 41 66 61 35 53 87 95 98 100 68 37 36 64 100 98 98 93 99 81 78 71 48 32 21 24 32 23 29 27 24 34 42 68 83 83
28 25 17 12 11 12 6 23 27 33 38 40 54 30 38 40 44 75 78 99 92 47 53 76 74 90 83 86 73 70 60 43 29 25 23 23 23 25 32 40 26 23 26 31 67
29 27 18 12 11 11 7 9 30 26 41 34 47 44 31 40 50 47 73 64 95 100 88 92 91 96 100 80 79 74 60 41 35 29 24 23 28 24 53 40 38 35 33 30 27
32 25 19 15 10 10 7 6 24 28 35 39 34 55 53 49 57 56 52 78 62 77 74 100 100 100 88 78 68 61 56 48 41 36 30 27 23 22 36 51 50 39 32 37 42
34 26 23 18 10 9 7 6 15 46 29 41 37 35 54 75 52 45 42 46 85 58 50 91 87 80 75 76 65 57 63 55 47 42 36 32 19 42 53 61 52 47 45 48 54
34 29 27 20 9 7 7 7 10 28 46 34 43 37 31 44 71 45 43 52 71 78 76 78 94 94 89 86 79 68 64 68 61 44 36 24 22 34 59 77 64 54 50 52 65
37 35 30 20 10 7 6 6 11 34 60 30 32 37 34 30 36 52 60 35 52 57 59 73 77 68 54 55 66 69 65 56 46 51 42 36 33 50 79 79 64 70 65 64 62
41 38 33 20 12 8 6 6 13 27 41 45 33 33 34 31 30 36 44 54 61 36 38 44 44 46 52 58 77 84 63 49 50 50 46 41 32 97 92 57 57 90 71 77 74
52 42 36 22 14 8 6 6 13 26 48 49 31 38 32 35 35 35 35 40 48 55 70 77 78 84 90 88 80 88 100 84 63 50 36 28 36 79 73 67 63 71 77 86 80

GFSSW_500_rhum_078.txt.gz
RH
8 9 8 8 6 9 13 17 24 34 44 48 35 29 35 66 84 54 16 77 100 90 96 97 96 99 57 68 61 28 22 16 26 27 94 97 94 63 31 40 72 95 96 99 93
7 9 9 8 6 8 14 17 26 40 44 45 35 29 85 100 100 100 41 50 100 99 98 100 99 72 98 58 46 29 52 29 25 69 92 97 97 95 43 29 46 73 99 91 89
8 10 8 9 6 9 14 18 30 35 44 47 38 30 83 100 100 100 92 40 100 100 100 94 99 82 83 87 50 33 35 37 47 78 100 97 97 95 76 33 28 40 66 73 86
8 10 9 9 6 8 16 18 23 33 49 55 41 26 32 100 100 96 100 39 99 100 100 100 99 98 98 65 60 48 52 61 41 57 99 98 97 96 95 54 34 28 33 55 66
8 10 9 10 7 8 16 20 26 35 62 62 44 28 25 81 100 89 96 55 78 100 100 100 100 100 70 26 50 46 74 80 63 76 73 100 97 96 94 87 50 36 28 28 41
9 9 10 10 9 8 16 24 27 42 77 68 50 33 29 84 99 87 75 70 67 100 100 100 100 98 58 30 34 45 80 95 71 61 81 95 97 97 94 89 71 50 36 28 34
10 10 10 11 9 8 14 26 43 46 86 73 54 35 50 63 100 84 61 72 52 100 100 100 100 97 90 56 26 29 59 90 78 57 75 93 99 93 94 86 77 62 48 35 35
11 11 11 12 10 9 14 24 50 53 94 80 55 34 62 55 96 72 83 76 72 100 100 100 100 100 96 35 34 22 54 91 82 77 95 92 86 90 96 92 86 69 58 46 33
15 12 10 12 11 9 14 26 47 58 97 86 59 40 54 78 75 65 84 96 76 100 99 100 100 100 92 35 47 58 37 38 66 90 98 92 88 100 94 89 86 77 63 54 41
17 14 11 11 12 9 14 29 47 62 97 87 67 48 58 70 75 68 87 100 98 98 100 100 100 100 99 78 64 31 56 40 21 38 33 84 95 94 96 98 96 80 68 58 51
18 16 12 12 12 9 14 31 45 60 83 89 79 56 58 71 72 64 75 100 99 98 94 100 100 84 88 50 36 45 58 40 17 17 25 53 84 100 100 100 92 94 75 64 57
17 16 13 12 12 9 14 32 41 54 73 85 90 55 50 59 65 54 58 100 100 98 100 95 96 100 98 56 26 43 42 44 58 39 39 60 89 93 94 91 100 99 90 81 73
18 16 13 11 11 9 12 32 37 50 70 62 90 55 85 71 100 98 50 100 99 100 100 93 100 87 98 57 25 39 40 33 53 53 41 43 61 80 96 100 99 91 97 85 75
18 17 12 11 10 8 11 31 32 46 53 64 89 68 100 77 88 100 56 83 87 100 96 95 100 99 92 92 50 21 26 29 30 40 46 39 28 41 62 94 90 93 96 95 93
19 18 13 10 10 8 10 22 31 42 53 58 97 48 60 93 94 91 90 100 74 98 78 97 100 100 95 91 90 23 21 22 27 25 31 40 44 47 50 74 83 100 85 92 93
20 18 14 11 9 8 8 23 27 38 59 42 57 57 47 57 93 66 100 100 98 100 96 100 100 100 91 88 84 36 20 21 27 23 17 23 27 45 55 50 69 87 95 92 93
20 19 15 10 9 7 7 21 23 35 41 45 57 35 44 46 75 71 100 87 97 99 100 100 100 100 98 84 89 58 21 19 18 15 16 24 53 60 59 50 47 52 94 92 99
22 21 16 12 9 7 6 18 23 33 40 42 64 77 73 35 59 58 100 92 99 100 88 100 100 100 90 84 79 67 23 24 16 14 17 33 44 64 84 86 85 58 64 84 78
24 22 18 14 9 6 6 10 20 24 42 31 48 68 96 94 46 44 46 61 83 97 100 100 89 91 89 86 82 60 40 28 18 16 20 27 39 54 44 40 74 90 90 77 69
26 23 20 15 10 6 5 6 15 19 33 46 31 38 60 67 92 76 38 42 48 98 100 92 94 96 86 76 74 73 51 37 33 23 21 20 27 39 31 26 28 38 53 56 62
27 26 22 17 12 7 5 5 10 22 28 37 44 32 42 59 67 75 98 49 34 80 97 92 91 92 92 81 86 89 76 64 55 51 34 25 26 33 28 24 38 42 45 33 30
33 31 24 18 14 8 6 5 7 22 23 35 45 50 44 45 56 68 77 84 100 71 92 100 95 93 82 80 80 71 72 72 60 52 41 27 26 29 31 28 38 43 53 51 37
39 39 29 21 16 9 6 5 6 12 30 33 38 46 62 54 47 56 48 48 52 81 80 78 87 84 88 82 71 64 71 72 68 52 36 35 29 33 37 37 44 45 44 43 39
44 44 37 26 18 10 6 5 6 10 25 28 37 35 31 47 61 41 39 39 35 45 48 87 78 81 83 82 76 64 67 66 57 47 45 38 38 37 42 46 36 36 38 36 34
52 50 41 30 19 11 6 4 5 10 15 36 30 37 35 30 32 55 53 40 67 67 58 72 82 78 73 67 67 65 67 65 51 57 39 51 40 50 46 38 30 26 28 36 32
59 55 43 33 21 11 6 5 5 10 18 27 36 26 32 32 32 35 41 65 58 49 63 67 81 85 83 73 64 61 62 70 68 60 45 48 37 49 63 48 34 30 22 34 35
62 56 45 32 22 13 8 5 5 7 20 37 31 28 29 31 31 29 30 36 49 67 69 55 54 67 75 72 58 51 72 74 78 74 43 40 49 44 44 49 40 35 39 52 62

GFSSW_500_rhum_081.txt.gz
RH
11 6 6 5 6 8 8 8 13 15 20 24 31 41 40 35 27 55 45 38 19 70 100 100 99 97 68 78 65 35 96 55 23 21 28 26 24 52 91 43 52 73 94 65 97
8 6 6 5 6 9 8 8 14 17 25 27 42 44 42 28 59 100 99 89 33 37 100 100 100 96 93 90 68 99 88 42 61 23 22 27 26 33 88 68 57 79 76 96 79
9 7 7 6 6 9 9 9 17 23 32 34 51 54 39 25 66 100 100 100 57 49 100 100 100 99 99 66 68 92 90 70 74 96 58 27 24 48 88 94 42 55 75 88 98
10 8 9 6 6 9 9 11 18 30 41 48 61 60 41 22 64 100 100 100 81 55 100 99 100 99 97 66 75 82 89 100 74 80 46 30 25 60 91 84 56 49 78 88 92
12 10 9 8 8 9 9 13 20 24 49 63 78 64 40 24 39 100 99 99 91 75 100 100 100 99 88 89 52 92 86 94 90 90 32 50 30 35 88 86 78 46 56 75 79
14 12 10 8 8 8 9 12 20 31 51 74 91 68 40 29 58 100 88 96 99 87 100 100 96 100 97 94 85 51 79 99 74 68 47 36 52 75 87 93 95 76 44 44 66
15 12 11 7 8 7 8 14 24 39 54 83 98 73 39 38 67 100 99 89 93 100 100 100 100 95 98 83 93 100 95 77 80 61 67 60 49 55 90 92 94 78 83 42 39
16 13 10 8 8 7 7 12 27 40 62 82 96 76 42 52 65 100 84 80 83 100 100 100 100 100 88 100 80 99 98 97 78 68 79 72 61 49 96 95 99 95 70 57 43
17 13 8 7 7 6 7 13 31 39 60 84 82 64 49 56 73 89 72 83 100 100 100 100 100 94 89 98 100 98 95 97 98 96 82 76 51 84 93 100 97 97 96 77 52
18 14 9 6 7 6 6 14 30 40 64 70 80 44 64 53 68 64 66 88 100 100 100 100 99 99 100 100 90 90 95 100 98 98 77 84 80 67 94 82 87 97 95 94 73
18 14 9 7 7 6 6 15 32 39 58 52 77 53 47 57 60 53 86 94 100 100 100 100 100 99 89 86 98 85 79 90 89 85 80 96 87 72 93 93 87 97 99 95 92
19 16 10 8 6 5 6 14 27 41 36 58 58 56 62 55 59 49 94 100 100 100 100 100 98 100 100 100 97 74 66 60 51 62 74 100 97 100 95 90 97 90 86 97 95
18 17 11 8 6 5 5 13 22 40 36 64 47 53 70 93 87 41 97 98 100 100 100 100 100 100 94 97 92 82 78 58 41 47 41 61 60 51 94 93 92 92 81 90 95
18 18 13 9 7 5 5 11 25 37 38 61 48 59 56 78 98 58 95 68 96 95 98 100 99 100 100 100 93 99 67 47 66 52 31 24 22 18 28 76 90 93 99 96 100
20 19 14 9 7 6 5 9 24 34 42 61 50 46 62 89 99 54 84 69 96 90 87 91 86 95 100 98 69 70 82 51 50 67 50 25 22 32 33 67 68 95 89 92 97
22 20 15 10 7 5 5 9 20 30 44 58 58 33 69 83 81 72 100 100 98 96 100 99 100 100 100 100 82 64 61 44 38 33 30 30 24 31 30 31 45 71 93 88 88
23 20 16 12 7 5 5 7 15 30 39 59 66 36 55 75 77 74 97 100 96 94 93 97 100 98 94 100 95 83 40 24 24 23 19 18 16 21 23 37 38 43 69 77 82
24 21 16 13 7 5 4 6 10 34 31 39 42 73 46 63 99 62 88 100 92 99 99 100 100 100 100 100 90 86 99 25 43 24 20 16 15 23 62 61 41 39 47 60 70
26 22 18 15 8 5 4 5 6 20 29 31 38 81 29 58 62 77 92 99 100 100 100 100 100 100 100 100 98 92 62 45 39 37 18 15 20 38 61 65 77 63 49 39 42
31 26 21 16 10 5 4 4 6 14 23 28 35 47 82 33 57 47 90 92 91 96 100 100 100 99 100 89 74 76 67 50 30 22 21 15 18 30 45 54 40 34 65 84 73
35 32 28 18 12 6 4 4 5 8 18 22 30 39 48 86 30 39 64 95 97 88 94 94 97 88 76 73 90 80 68 58 40 34 23 24 25 20 24 38 35 27 38 46 72
39 36 32 20 13 6 5 4 4 7 21 18 23 35 37 46 78 71 39 45 77 96 82 79 93 94 99 90 91 77 72 62 47 40 33 33 34 25 23 29 30 28 31 45 41
45 39 34 23 15 8 5 4 4 7 15 22 18 21 35 34 40 51 74 72 62 54 90 83 87 94 88 86 80 78 83 82 79 70 61 65 61 50 36 27 30 28 24 23 30
47 41 34 27 18 11 6 5 4 6 9 21 19 20 29 42 38 37 40 42 61 64 78 90 87 80 73 69 73 78 86 74 60 50 63 52 56 44 39 38 33 28 21 18 19
50 42 37 31 21 12 7 5 4 5 8 15 23 20 26 28 33 44 43 40 51 53 51 62 69 66 69 70 68 72 72 69 52 68 48 62 52 55 53 46 39 28 26 22 22
48 43 42 36 26 14 8 6 4 4 6 13 23 23 22 26 29 29 36 52 41 60 61 53 82 81 74 73 70 69 66 64 56 62 52 58 53 63 57 55 45 44 32 26 22
52 50 48 40 29 17 9 6 5 4 4 12 23 26 23 25 27 27 27 30 40 58 55 54 60 60 66 80 64 47 68 55 45 42 45 45 54 55 47 48 45 44 37 33 37

GFSSW_500_rhum_084.txt.gz
RH
24 16 10 10 7 5 5 6 7 9 17 22 26 30 40 47 48 42 29 24 19 26 19 78 100 78 42 98 38 71 55 36 43 57 98 81 48 57 52 52 75 55 48 78 94
24 15 12 10 5 5 5 5 8 10 19 23 32 37 52 64 65 30 25 62 45 31 26 49 96 98 53 93 80 53 97 38 40 73 87 70 31 43 62 64 78 76 53 86 91
24 15 14 10 5 5 5 5 8 10 22 29 38 44 67 74 56 47 73 98 65 56 40 48 99 100 96 88 92 93 56 64 51 60 76 91 33 34 51 61 51 76 61 68 97
23 16 15 9 5 5 4 5 8 12 22 38 41 56 73 80 39 49 99 100 100 98 78 87 100 98 94 92 92 97 67 95 65 86 75 96 62 36 37 28 43 46 73 54 82
23 19 15 8 6 6 4 5 8 13 30 43 49 61 80 59 74 26 100 100 94 100 81 100 100 99 99 91 92 92 67 83 100 92 68 65 31 30 34 26 29 41 75 62 47
23 22 15 7 6 6 4 5 9 16 33 51 47 64 70 53 50 38 100 100 100 97 100 100 100 100 100 100 96 91 98 99 96 98 99 95 96 33 32 28 26 33 49 84 61
23 23 14 8 7 6 4 5 10 20 39 45 47 68 43 51 45 63 100 91 72 100 61 98 100 97 100 100 98 100 98 96 88 99 99 92 98 44 30 30 27 24 33 80 65
28 23 15 9 7 6 5 5 10 25 42 42 57 40 58 56 55 92 100 73 91 100 70 100 99 100 77 90 99 97 98 99 98 97 96 97 78 63 39 33 27 29 32 95 93
32 22 14 10 7 5 5 6 11 26 37 48 50 41 70 60 64 94 100 60 94 100 100 100 100 100 100 94 100 93 96 92 98 98 100 96 92 66 65 38 34 29 23 82 91
31 20 14 10 7 5 4 6 11 27 37 52 43 42 48 49 69 91 82 68 95 100 100 100 99 100 93 96 93 92 98 98 96 95 92 97 89 73 64 35 32 29 54 74 83
31 19 14 10 6 5 4 5 12 29 38 51 42 41 54 59 60 62 56 69 100 100 100 100 100 90 98 59 89 95 100 83 76 98 100 97 97 88 61 50 34 39 65 85 93
30 18 16 10 6 5 4 5 12 28 37 52 40 51 55 93 59 53 53 87 100 100 100 100 100 99 99 88 89 99 98 99 99 98 97 98 98 81 56 49 46 54 86 84 93
29 19 16 11 6 5 4 5 12 26 36 53 38 43 72 91 99 66 63 97 100 100 100 100 100 100 93 77 100 94 98 100 80 97 94 100 94 76 53 40 41 63 64 86 90
27 20 15 11 6 4 4 5 13 24 34 57 39 48 78 87 65 78 77 96 100 100 100 100 100 97 100 85 90 83 80 99 81 82 96 99 91 92 97 80 58 56 68 77 72
26 21 16 10 6 4 4 5 12 20 34 61 43 51 82 93 66 62 81 96 99 100 100 100 100 99 98 100 100 100 90 85 91 90 78 82 67 51 59 59 60 92 100 89 62
28 20 16 11 6 4 4 5 10 20 44 60 39 56 69 69 67 60 86 100 99 100 98 100 97 88 81 87 96 100 100 88 80 88 86 49 36 32 24 47 20 16 48 86 78
28 20 16 11 7 5 4 4 9 15 34 60 37 52 55 60 57 70 100 98 99 98 80 79 85 89 86 94 88 92 100 99 90 78 57 46 35 28 16 13 16 21 33 40 70
27 22 18 12 8 5 4 4 6 13 26 45 45 47 47 76 96 85 68 72 74 88 77 83 79 85 93 100 95 92 94 86 82 61 45 30 26 24 21 16 15 14 17 25 46
31 27 20 13 9 5 4 4 4 12 22 39 48 21 33 60 84 91 82 75 91 95 93 90 83 89 96 98 99 77 74 75 47 39 32 29 21 18 18 18 31 44 48 43 39
35 31 22 15 10 6 4 4 4 9 17 32 43 25 21 33 75 91 85 85 71 76 86 75 82 91 100 100 100 100 78 69 47 40 32 45 34 20 21 47 55 56 47 47 67
38 34 24 17 12 6 4 4 4 6 12 22 39 51 24 46 70 85 78 83 81 90 94 98 93 96 98 100 100 100 100 89 85 48 47 53 32 16 22 34 40 44 40 29 34
43 36 26 18 14 6 5 4 3 4 8 15 25 36 52 29 55 64 68 71 85 90 92 91 91 89 100 95 97 100 88 76 66 57 37 30 29 23 18 20 21 23 33 28 26
47 38 29 21 17 6 5 4 4 4 6 12 16 18 34 45 50 38 45 51 63 74 76 70 72 90 92 90 89 99 97 88 69 60 52 44 44 39 30 26 30 28 24 27 24
49 43 31 25 20 8 5 4 4 4 5 8 13 15 17 22 29 36 44 53 50 47 58 76 65 68 70 74 82 89 94 88 72 71 83 67 78 59 51 62 56 48 26 23 24
55 48 36 30 24 10 6 4 4 4 4 6 10 15 15 17 16 24 30 28 36 56 60 64 65 67 75 76 72 71 69 67 56 75 51 72 61 76 66 59 52 41 26 24 24
63 50 42 36 27 13 8 5 4 4 4 4 8 15 20 21 19 20 19 26 33 43 58 54 76 79 58 59 66 64 66 69 70 74 62 64 49 71 61 59 58 46 36 33 33
74 48 47 41 31 18 10 7 4 4 4 4 5 12 13 18 19 21 20 25 28 42 43 47 48 46 54 69 63 59 81 80 72 64 62 46 48 49 44 48 47 46 48 48 47

GFSSW_500_rhum_087.txt.gz
RH
35 35 31 22 19 8 6 6 4 5 6 9 16 25 31 33 40 50 54 37 36 26 31 30 19 63 34 42 99 66 81 55 54 57 100 82 68 74 64 62 73 72 80 88 95
39 36 32 23 19 8 6 6 4 5 6 11 23 34 34 36 43 66 68 55 39 44 30 32 29 41 52 48 91 71 92 59 60 73 90 79 64 76 64 43 61 88 89 94 90
46 39 29 23 19 8 7 5 4 5 6 13 28 34 34 43 59 64 42 40 36 95 28 31 36 29 72 59 82 98 72 81 72 71 70 73 88 72 68 50 50 75 81 93 83
46 39 28 23 18 10 7 5 4 6 8 17 36 31 43 46 41 44 32 59 90 99 66 64 53 35 94 72 78 98 86 96 74 83 83 76 75 100 63 46 43 59 75 83 81
48 41 33 27 16 9 6 5 4 6 10 24 32 41 44 33 43 56 31 92 100 87 84 100 92 62 100 83 72 92 94 93 96 100 86 87 66 81 55 52 48 57 64 65 72
49 45 38 28 14 8 6 5 4 6 12 32 35 44 35 41 49 43 41 100 100 100 100 96 100 85 100 96 81 85 85 97 98 97 97 100 89 67 52 40 46 58 60 60 58
49 48 37 22 12 8 5 5 4 7 18 35 42 41 30 34 47 43 57 100 100 100 100 100 100 95 100 100 77 76 95 87 98 98 99 98 83 72 77 41 34 39 55 58 56
52 50 33 18 13 7 5 4 5 8 23 37 43 36 36 42 48 50 95 91 100 93 100 100 99 100 100 98 80 78 100 100 98 98 98 90 77 68 89 63 39 33 36 46 50
55 47 32 16 12 7 5 4 5 10 25 43 45 37 48 63 43 68 91 92 88 98 100 100 100 93 99 100 98 98 96 97 100 99 98 73 85 92 88 68 52 34 29 29 29
57 46 28 18 11 6 5 4 5 12 27 44 45 40 53 91 57 62 90 98 94 100 99 100 98 100 100 93 97 86 99 96 90 92 97 98 99 97 98 93 83 42 30 29 28
60 46 24 17 9 5 4 4 5 13 31 45 41 42 79 93 92 39 74 71 97 100 100 89 100 90 96 100 92 88 95 97 98 97 98 99 96 96 98 91 74 55 32 30 32
62 45 24 16 8 5 5 4 7 16 34 44 40 51 84 100 96 45 47 72 100 100 67 87 100 100 100 100 95 100 100 99 99 100 97 98 96 100 97 98 86 67 44 33 31
64 42 24 15 8 5 5 4 7 19 35 34 40 62 86 100 69 35 54 99 100 100 100 52 100 100 100 91 97 96 96 93 99 99 97 98 97 92 76 71 72 66 47 36 34
63 36 24 14 8 5 4 4 8 20 34 31 29 50 83 100 79 47 97 100 100 100 100 64 64 97 93 91 91 94 99 99 93 96 98 97 97 86 94 93 76 61 51 42 37
56 34 23 12 7 5 4 4 8 18 24 29 25 50 66 77 50 93 90 91 100 100 100 100 79 93 81 78 60 59 77 86 100 100 100 98 98 100 76 67 62 53 43 35 29
49 32 21 12 7 5 4 4 6 20 24 26 34 42 54 70 68 86 100 96 100 100 100 95 96 82 68 72 68 48 73 98 100 99 93 82 84 93 66 68 52 42 33 33 34
46 28 21 11 7 5 4 4 6 13 23 23 32 39 53 50 87 83 96 96 100 100 100 83 99 91 80 87 73 98 96 93 98 99 83 77 67 64 64 58 41 42 52 35 15
46 28 22 11 7 5 4 4 5 12 29 21 31 41 63 70 76 68 91 88 87 99 92 71 73 76 86 90 95 98 86 89 80 68 69 62 55 57 47 39 30 22 26 28 14
46 32 22 11 7 5 4 4 4 9 19 25 29 28 35 44 41 48 73 62 57 63 61 55 59 59 68 74 97 97 90 83 76 73 78 64 52 44 40 34 25 19 15 14 13
40 36 23 12 8 6 4 4 4 7 14 29 21 43 35 27 29 46 47 55 57 54 52 60 62 67 70 71 78 86 81 79 85 89 82 66 46 35 24 18 16 19 24 28 26
40 38 25 13 8 6 4 4 4 5 10 18 28 15 31 44 29 26 44 42 56 60 57 56 67 68 76 85 86 83 87 78 74 74 67 58 39 34 22 19 25 42 47 41 39
40 39 27 16 8 6 4 4 4 4 6 11 20 28 16 33 49 56 57 56 51 53 69 72 70 80 88 82 91 100 94 87 72 60 49 47 46 43 31 19 25 36 40 38 35
43 40 28 19 10 5 4 4 4 4 5 6 13 19 28 30 26 35 45 52 57 54 65 70 73 69 64 75 82 86 92 96 92 89 80 64 47 41 37 25 23 22 23 24 21
50 41 31 22 14 7 5 4 4 4 5 6 7 15 19 26 32 33 31 39 54 53 46 46 58 63 73 84 84 85 92 90 78 76 69 58 58 48 46 43 40 34 18 19 23
57 48 37 25 15 9 5 5 4 4 4 5 5 9 13 18 23 30 27 33 37 46 47 52 86 68 62 75 80 88 90 82 73 90 70 89 66 75 69 61 60 56 48 29 44
73 61 44 32 20 13 7 5 5 4 4 4 5 5 9 13 14 20 21 28 32 28 50 66 70 88 96 78 70 70 87 81 79 82 72 75 58 86 76 61 59 58 55 51 49
86 68 49 38 24 17 10 6 5 5 4 4 4 4 5 8 13 15 17 22 22 26 39 47 54 50 56 66 73 89 94 79 89 97 91 72 90 76 62 56 57 58 55 47 42

GFSSW_500_rhum_090.txt.gz
RH
52 52 53 49 42 29 26 17 9 5 5 5 5 8 14 22 28 32 36 39 42 41 38 44 34 23 30 68 48 98 92 58 41 84 94 96 84 94 89 82 77 95 95 96 96
52 54 55 49 42 34 26 13 7 5 5 5 6 10 19 25 34 40 45 48 52 62 44 49 45 40 24 54 43 98 73 92 41 64 100 88 97 78 85 78 80 78 84 95 95
57 57 58 47 44 38 23 12 6 6 5 5 7 15 21 34 41 35 32 32 39 48 61 59 50 46 28 39 54 80 81 98 48 62 100 97 98 78 78 72 70 87 88 92 83
60 61 60 49 47 34 18 11 6 6 5 5 9 19 27 37 38 28 27 40 55 28 38 52 43 53 39 31 59 60 98 97 81 57 93 100 98 74 63 66 60 71 94 87 87
67 64 63 51 44 29 17 9 6 6 5 6 14 24 39 42 33 30 35 46 36 68 100 100 98 48 47 29 68 41 99 85 73 70 99 89 96 72 53 58 54 59 60 80 95
66 67 62 54 38 24 16 8 6 5 5 8 19 35 48 39 42 37 41 42 90 96 100 100 92 53 54 33 78 43 87 98 97 80 86 98 88 80 54 43 51 62 61 56 78
71 70 61 56 37 21 12 6 6 5 5 11 23 44 48 45 61 43 46 75 100 100 93 100 88 99 69 36 80 42 63 80 84 100 84 97 95 92 80 47 44 52 52 65 70
77 71 62 54 35 20 10 6 5 5 6 15 33 45 45 58 76 47 84 97 100 99 100 97 100 87 72 48 78 45 66 99 77 97 91 90 96 97 83 74 56 50 49 57 65
82 73 65 52 32 18 8 6 5 4 8 21 41 40 47 82 93 56 90 98 96 98 100 97 100 100 64 55 95 68 85 98 83 98 91 86 88 96 86 66 55 48 45 42 59
81 76 69 53 29 15 7 5 5 5 11 26 30 43 62 94 100 67 85 98 99 86 93 100 100 100 66 61 98 66 95 96 96 99 94 98 96 87 84 68 52 47 39 34 37
84 85 77 51 26 11 6 5 4 6 16 21 22 43 84 89 76 58 72 68 79 78 88 100 80 80 97 100 94 89 96 97 100 91 97 100 99 97 97 82 61 62 53 35 29
87 94 80 42 23 9 6 5 4 8 18 20 22 44 85 78 31 32 55 80 100 82 69 95 100 100 73 98 91 91 97 94 100 100 100 99 99 98 88 81 68 60 60 50 35
97 94 76 35 19 8 5 4 5 10 15 17 31 49 60 31 43 89 98 100 100 52 100 67 94 100 100 56 86 68 87 96 99 99 94 100 92 70 98 96 88 74 65 58 58
96 94 69 32 16 6 5 4 5 9 15 17 38 49 42 39 73 97 58 100 89 59 100 99 45 86 100 91 95 85 84 94 98 100 98 96 98 97 96 94 90 76 64 62 56
96 90 59 30 11 6 4 4 5 8 14 20 41 63 63 51 64 91 100 85 81 65 76 100 98 54 65 100 94 96 99 98 100 96 99 99 95 98 94 78 69 64 72 66 50
96 85 49 26 9 5 4 4 4 8 14 19 37 33 45 53 59 96 100 100 52 48 71 88 89 78 83 82 97 99 100 97 98 100 99 97 97 94 75 76 80 80 67 58 60
95 81 41 22 8 5 4 4 4 7 13 18 38 37 41 49 71 100 100 100 73 32 30 44 48 53 51 59 75 97 100 100 98 100 92 94 95 76 90 66 68 72 66 57 50
92 70 38 18 7 4 4 4 3 7 16 18 28 32 26 35 69 88 93 100 65 81 71 91 62 60 65 65 46 40 70 96 99 98 79 95 87 86 88 81 76 72 59 56 46
88 66 36 16 6 4 4 3 3 7 11 16 16 26 29 33 30 60 80 82 77 77 69 62 63 74 83 71 100 53 44 65 99 93 84 79 84 80 66 68 67 60 49 38 28
83 62 36 13 6 5 4 4 3 5 10 13 17 15 29 35 38 35 30 44 48 41 55 62 62 58 58 70 82 99 95 75 67 70 65 58 59 57 58 48 48 44 37 29 24
74 50 35 11 6 5 5 4 3 4 8 11 13 21 18 27 26 28 36 40 59 76 72 64 59 60 52 49 59 84 80 81 69 62 56 55 53 55 49 36 30 27 28 26 23
70 48 33 12 6 5 5 4 3 4 7 11 15 15 27 16 17 28 28 38 47 48 48 50 67 68 71 70 69 75 85 89 81 74 70 64 61 58 46 35 28 19 16 21 40
63 44 30 14 6 5 5 4 4 3 4 8 14 14 16 19 38 47 50 46 48 48 51 59 62 71 77 79 81 82 83 90 97 74 75 67 60 58 42 41 34 23 25 32 44
54 45 29 15 8 5 6 5 5 4 4 4 7 11 17 19 20 21 30 34 42 49 50 55 57 62 65 70 79 80 80 87 90 91 79 73 72 82 74 57 45 36 27 25 25
51 46 32 17 9 6 6 7 5 4 4 4 4 6 9 13 17 22 22 26 28 35 48 57 60 58 76 65 72 77 74 72 77 84 76 97 85 84 76 64 51 42 34 23 25
55 52 40 22 12 8 6 5 6 5 4 4 4 4 6 10 13 15 18 21 19 23 24 34 48 59 67 65 68 77 78 77 80 74 74 85 81 99 94 71 64 55 54 52 47
65 60 53 28 14 12 6 7 5 5 4 4 4 4 4 6 8 11 14 16 17 17 19 26 35 44 46 50 62 78 84 83 91 88 81 70 90 94 76 61 50 50 52 53 51

GFSSW_500_rhum_093.txt.gz
RH
61 60 60 59 60 62 59 49 44 27 14 8 7 7 5 5 10 18 23 28 31 28 24 22 28 34 40 23 17 48 80 93 46 73 60 100 92 79 92 88 80 91 96 98 98
48 52 62 65 65 66 58 51 36 21 12 8 8 6 5 7 15 24 30 37 41 42 40 33 30 42 40 45 18 40 58 99 58 60 80 100 96 82 93 94 77 88 96 91 92
42 52 61 67 71 68 57 49 28 19 9 8 8 6 6 11 22 34 40 37 33 30 31 44 51 46 46 51 33 23 46 91 91 53 76 98 98 97 81 88 83 82 91 94 94
52 48 58 68 71 70 58 46 22 16 10 8 8 6 8 19 35 43 41 38 34 30 30 32 42 56 64 54 47 23 38 100 84 59 70 84 96 96 72 71 87 93 96 96 90
64 56 68 73 69 69 56 39 20 13 10 9 6 6 15 31 45 43 47 54 42 35 48 67 46 51 77 69 60 21 49 94 99 100 97 81 88 100 77 60 83 87 95 94 97
75 57 77 80 74 66 60 32 16 13 10 8 6 10 26 39 39 49 67 66 41 61 51 69 48 68 77 85 64 21 47 99 77 96 95 81 73 92 80 68 65 86 97 93 93
79 66 74 84 80 71 60 27 14 15 10 6 7 17 29 33 48 75 88 54 64 100 100 100 98 99 60 72 64 26 52 76 94 98 98 80 77 88 90 73 62 68 90 90 88
82 70 78 93 91 82 55 21 16 15 8 6 10 18 24 42 66 96 86 85 97 99 100 100 99 100 85 53 59 34 52 87 95 97 96 94 83 71 77 74 64 66 69 65 94
79 83 88 96 92 84 46 19 18 12 6 7 13 14 26 49 80 100 78 99 100 97 100 95 70 62 82 62 59 44 52 85 99 98 95 99 89 79 70 60 64 68 72 67 66
83 94 90 96 93 78 40 19 17 9 6 9 11 20 28 32 40 92 66 91 86 87 100 94 100 100 100 76 70 28 52 86 95 99 98 100 91 99 80 65 57 64 64 55 49
91 97 97 95 93 67 38 20 13 7 7 8 13 16 27 30 32 40 53 66 68 78 99 88 88 100 100 81 57 28 45 81 80 100 99 94 95 92 98 84 65 50 52 48 47
90 97 98 95 89 59 29 17 9 7 8 10 17 45 52 76 54 59 90 51 50 63 69 100 100 92 96 95 48 34 68 68 85 99 94 96 96 81 87 84 81 57 40 46 48
96 96 97 96 85 50 20 14 7 7 8 16 33 28 32 60 86 100 100 85 41 76 94 100 79 66 54 55 50 36 76 59 87 99 99 97 98 86 74 70 71 71 63 47 42
86 97 96 98 76 39 16 8 6 7 10 18 27 36 49 59 66 85 46 42 40 73 100 100 87 100 90 38 43 47 67 72 87 99 96 97 98 98 99 97 71 72 67 60 47
84 98 94 97 73 25 11 6 6 8 11 20 25 29 36 88 94 72 34 80 97 100 92 100 100 100 91 89 68 70 79 90 94 88 99 99 97 100 91 86 68 64 68 67 60
98 98 93 98 63 16 8 5 6 7 11 18 24 28 37 86 100 94 34 48 85 98 84 71 84 98 92 62 76 63 72 91 92 90 99 100 100 98 81 97 94 79 62 54 60
97 97 93 92 44 12 5 5 6 7 10 16 20 40 68 77 69 39 29 46 74 64 56 70 70 70 75 47 97 100 88 88 96 100 94 98 97 95 100 99 88 83 64 62 63
97 96 96 78 28 8 5 4 5 6 9 14 21 31 51 81 78 33 47 50 51 50 52 62 79 88 81 96 100 100 96 92 94 74 75 92 89 85 94 92 78 71 60 53 45
98 97 94 58 18 6 4 4 4 6 9 13 20 18 19 51 70 65 55 78 85 95 80 82 64 71 79 82 96 96 96 100 98 97 73 74 79 83 81 82 67 52 45 47 57
98 97 84 42 11 6 4 4 4 5 7 12 12 14 17 24 43 65 67 69 58 58 73 63 69 79 68 95 76 60 58 97 100 100 73 70 83 98 91 98 87 86 74 70 60
96 96 67 30 9 5 4 3 4 5 6 11 15 13 15 21 32 34 33 39 47 56 63 56 45 49 63 61 80 60 38 40 70 81 88 71 70 82 90 96 90 84 79 62 51
95 90 54 21 8 5 4 3 3 4 5 8 13 18 17 21 20 18 24 24 45 50 47 51 62 60 60 66 85 98 98 87 77 72 62 70 65 78 78 65 79 44 46 43 42
97 82 42 13 5 4 4 3 3 3 4 6 10 15 20 22 21 28 31 31 42 45 47 54 53 60 62 59 61 60 61 70 63 58 63 68 72 73 77 69 51 40 33 28 27
91 69 33 10 5 5 4 4 3 3 3 5 6 11 14 18 21 27 37 34 30 35 43 48 46 48 54 49 44 49 55 64 70 79 83 77 78 83 81 74 59 42 35 25 21
88 56 31 12 6 5 5 4 4 3 3 4 5 8 12 14 15 16 17 19 20 20 22 28 34 34 39 59 59 56 62 72 75 80 80 97 77 80 72 68 63 47 40 33 24
91 47 29 12 6 6 6 5 4 4 4 4 4 4 5 8 11 13 15 16 16 18 17 19 22 28 36 50 53 57 55 53 57 63 64 64 69 94 84 71 72 63 57 48 45
79 45 30 13 7 5 5 6 5 5 5 4 4 4 4 5 6 7 11 12 16 14 14 15 16 18 21 27 37 41 37 48 57 62 61 60 71 83 76 68 66 69 70 74 72

GFSSW_500_rhum_096.txt.gz
RH
88 74 59 57 53 60 64 63 63 63 56 50 26 15 12 12 10 6 7 14 22 25 25 22 21 20 16 21 26 16 32 55 57 100 55 100 98 98 79 83 89 91 98 96 74
90 94 85 73 56 59 66 72 67 63 54 44 20 13 15 14 8 7 12 23 36 40 38 32 29 30 26 25 26 33 16 43 65 96 86 100 96 100 93 70 87 92 90 88 97
25 80 95 96 84 59 71 72 67 64 56 36 18 17 16 10 7 14 23 38 49 52 50 50 46 36 36 32 32 36 24 19 66 75 98 99 95 98 91 73 74 94 87 97 99
34 37 58 88 88 59 75 75 72 69 57 35 23 22 13 7 14 19 34 40 36 42 45 43 41 43 44 47 47 54 35 17 51 65 94 100 93 79 87 72 75 96 96 94 94
16 23 71 86 90 77 75 81 79 76 53 37 32 17 8 10 22 27 30 44 53 62 65 58 43 38 38 44 60 52 43 23 34 94 100 97 88 85 60 83 77 95 94 85 94
47 22 85 90 95 71 78 92 91 73 53 51 27 9 8 13 17 25 45 69 92 85 42 69 78 49 51 34 54 59 50 33 19 65 100 96 73 97 60 70 86 98 89 90 92
72 92 99 100 96 81 85 96 88 75 66 42 12 8 10 12 20 33 75 99 89 69 77 100 100 83 65 64 44 78 51 49 20 45 96 98 87 86 60 70 69 89 98 96 94
12 58 68 95 98 95 87 93 95 84 60 20 7 10 10 16 20 44 90 100 68 96 98 80 91 100 92 73 78 75 55 46 26 69 97 100 66 65 60 60 62 64 91 94 87
15 70 99 75 99 99 95 96 98 80 35 8 10 8 16 25 33 25 78 77 91 100 100 99 100 100 94 100 94 98 51 38 38 69 99 97 97 76 60 67 65 84 77 96 96
33 100 100 96 98 96 95 100 99 50 14 9 9 12 32 44 47 40 48 74 88 92 90 100 98 94 87 99 89 75 50 34 46 73 98 97 98 79 80 72 73 63 68 76 94
22 68 100 98 98 95 99 100 78 29 9 8 14 22 41 70 83 72 59 59 62 58 87 98 100 100 90 96 80 69 56 22 65 100 99 98 98 100 86 73 75 68 67 72 78
25 48 100 97 97 96 100 99 68 16 10 11 27 40 50 69 98 98 87 69 53 40 63 79 98 100 100 93 68 65 55 31 74 95 100 99 97 97 83 69 59 62 72 70 63
30 20 99 98 98 100 99 99 41 10 10 14 30 62 76 70 56 37 51 52 49 48 82 85 87 78 98 81 63 60 51 39 54 90 97 100 93 98 90 78 62 57 70 69 66
32 10 92 98 100 100 99 92 21 9 10 15 33 46 79 50 32 38 40 53 73 85 100 100 85 82 100 58 56 48 44 38 70 100 94 100 94 97 97 89 66 58 66 74 78
26 32 98 97 99 99 100 57 10 9 10 23 36 46 52 46 48 55 76 64 77 82 100 96 98 83 83 63 55 39 38 45 93 91 97 99 99 95 97 74 74 82 78 76 82
15 89 98 99 98 100 93 28 8 9 11 28 38 37 27 22 39 45 94 79 94 92 96 100 99 100 42 37 41 48 71 80 96 93 99 100 84 86 84 98 100 99 92 84 83
13 88 98 99 98 100 62 13 8 8 14 30 34 36 28 42 48 51 62 87 78 61 78 98 94 88 82 60 59 58 53 96 89 86 94 96 93 99 89 97 97 98 85 71 76
38 98 99 99 100 97 33 8 8 8 14 26 32 38 32 31 42 49 44 38 52 87 99 90 100 97 76 84 72 59 51 67 65 78 83 87 99 98 88 97 92 89 84 86 79
78 98 99 98 100 66 15 7 8 8 13 22 20 30 34 38 47 49 43 71 66 71 68 75 98 93 87 92 100 97 59 63 79 73 94 75 89 99 100 100 98 88 81 84 89
98 100 98 99 97 29 8 6 7 9 11 14 15 21 25 21 34 52 55 50 56 51 58 71 69 90 99 100 98 100 100 91 76 67 73 69 67 83 94 97 100 95 92 85 87
97 99 99 99 51 13 6 6 7 8 10 12 13 16 18 23 28 24 26 42 51 48 61 67 70 79 86 91 75 92 100 84 83 73 82 76 82 100 98 96 95 89 80 74 70
94 98 98 89 26 7 5 5 6 7 10 12 14 15 15 21 20 23 18 38 40 46 58 69 68 64 71 79 73 43 39 45 70 74 78 71 74 74 82 98 86 81 70 69 57
99 99 100 49 12 5 5 5 5 6 7 9 14 16 20 20 21 30 30 37 47 45 46 44 48 57 70 54 60 55 60 60 47 44 41 40 41 50 56 57 75 81 82 80 78
100 98 79 25 6 5 4 4 4 4 5 7 9 11 14 17 21 25 30 29 32 39 39 38 36 39 45 42 39 40 46 50 55 56 62 64 63 59 61 57 47 43 48 60 64
98 98 57 16 6 4 4 4 4 4 5 5 6 7 10 13 14 16 18 19 22 22 24 23 23 23 23 26 25 26 28 30 36 44 55 65 66 65 57 48 51 54 45 46 47
99 88 32 7 5 5 4 4 4 4 4 5 5 6 6 8 11 12 13 14 14 15 15 16 18 19 18 19 17 19 24 30 34 36 41 41 52 50 53 58 66 71 68 60 60
96 63 22 8 6 5 4 4 4 4 4 4 4 4 5 5 5 5 5 6 7 10 12 13 14 15 16 18 16 20 22 24 24 20 24 26 36 44 44 42 46 51 55 67 73

GFSSW_500_rhum_102.txt.gz
RH
27 26 24 21 19 20 9 28 44 72 73 92 96 92 90 88 77 71 67 66 66 63 44 21 12 11 10 9 12 14 10 10 11 10 7 13 37 50 57 52 43 50 55 84 95
31 31 30 28 24 23 13 24 43 88 70 83 94 96 97 96 81 71 77 77 75 54 22 14 10 9 12 16 21 20 16 14 14 12 10 16 37 53 87 66 70 68 61 76 92
37 33 36 32 28 26 16 20 44 86 90 99 100 91 92 82 82 94 84 70 46 24 10 8 7 10 22 30 30 30 21 20 17 17 15 17 28 61 68 100 73 81 80 87 87
44 40 40 38 32 27 24 16 48 98 98 91 93 91 84 96 81 65 64 49 19 9 6 7 10 13 28 57 48 43 36 29 21 18 21 19 41 46 64 78 100 75 67 72 82
51 45 45 43 34 29 23 30 70 97 98 95 95 97 98 91 35 52 32 12 9 9 12 13 16 26 38 62 90 72 58 53 29 24 27 21 31 50 90 64 99 88 75 76 96
53 48 48 46 32 25 23 61 73 94 96 96 96 97 92 31 36 16 12 12 10 11 14 20 29 36 49 55 61 80 88 80 56 34 35 24 19 52 94 89 87 89 100 91 94
48 48 46 48 34 22 20 17 62 100 100 97 98 94 30 20 16 13 12 14 14 14 27 40 43 50 61 74 55 48 62 69 77 52 44 26 22 49 94 99 97 66 87 85 95
25 39 43 49 38 23 22 22 82 99 99 98 96 33 19 20 13 14 22 22 32 40 48 57 59 63 68 71 96 83 55 54 64 72 56 36 29 28 96 98 100 67 99 71 95
10 11 33 46 44 33 27 30 99 99 98 97 60 21 23 15 14 23 34 22 30 34 39 46 53 58 81 80 96 94 88 63 53 68 57 39 39 63 76 99 96 100 97 72 96
7 8 17 37 44 41 33 27 94 99 98 92 23 23 20 18 20 24 43 37 30 42 63 67 73 88 100 97 100 82 97 88 52 72 51 40 38 37 55 99 97 92 93 82 96
12 7 9 30 44 42 36 36 97 99 99 31 22 24 19 20 30 42 52 63 55 50 66 97 94 70 72 98 89 100 96 97 70 65 48 36 30 37 52 93 98 91 85 76 96
26 11 8 25 44 42 28 42 97 100 75 21 25 22 25 29 38 52 72 78 84 87 100 100 99 98 90 55 97 100 100 86 92 58 39 38 25 31 62 96 100 94 89 79 91
36 25 8 20 41 43 35 56 100 99 19 23 22 21 24 30 40 63 78 86 100 87 96 100 100 86 63 53 100 88 99 82 97 72 50 30 28 52 94 98 88 95 83 85 93
46 34 10 16 38 43 33 81 100 62 18 23 22 26 27 45 65 68 87 97 97 100 100 80 90 57 88 100 95 99 92 85 73 71 77 44 65 89 100 99 70 84 79 95 94
51 35 10 11 38 40 39 100 96 15 18 19 30 33 37 45 50 72 100 100 100 97 80 75 72 52 95 95 94 100 80 60 64 100 84 45 99 97 92 91 69 78 85 98 97
53 35 12 13 40 31 60 100 42 15 21 21 30 40 44 53 62 69 94 90 100 99 77 96 86 84 86 83 81 93 87 100 100 100 92 84 89 100 100 82 71 77 91 97 95
50 24 10 21 36 40 95 100 15 17 21 33 41 46 51 57 54 74 83 100 100 88 94 100 100 52 41 53 81 100 100 93 100 99 96 98 100 100 98 98 97 86 81 88 95
32 14 13 36 31 100 100 73 15 14 28 34 33 38 44 49 53 63 85 96 96 100 92 100 94 100 84 63 69 82 100 100 100 94 94 98 97 99 88 81 94 65 73 79 95
13 13 30 29 72 98 98 19 14 16 26 29 35 33 37 48 53 64 79 86 94 82 99 92 98 100 100 68 68 79 95 95 86 93 96 99 100 100 100 98 91 97 99 98 87
14 24 29 34 94 100 49 15 12 17 28 32 30 31 28 42 59 73 79 76 89 84 95 98 98 99 89 78 70 66 80 80 83 95 80 76 80 98 99 98 99 98 93 93 88
28 33 34 95 100 86 15 12 11 18 23 28 27 30 25 34 48 66 63 64 81 90 96 85 97 97 87 66 56 52 51 66 59 68 68 54 51 46 71 90 79 75 92 99 96
32 61 99 100 96 15 11 10 10 14 18 20 25 26 24 39 45 55 48 52 71 74 86 86 93 97 95 97 88 72 71 60 57 52 58 47 42 39 36 34 34 36 41 69 80
96 99 100 84 28 12 10 9 10 12 15 16 20 24 25 26 36 37 52 53 42 55 70 79 72 60 85 98 100 89 76 63 55 51 44 38 37 36 31 30 28 32 36 42 40
99 100 86 39 8 10 8 9 10 13 14 16 20 22 21 20 22 22 24 30 29 30 45 55 56 57 51 47 50 54 42 38 31 18 26 24 25 23 22 21 21 22 25 23 24
100 96 41 10 7 8 7 8 9 10 12 13 13 14 15 15 13 13 16 18 18 19 23 32 39 36 33 32 30 26 25 24 20 20 16 16 16 16 16 16 17 16 15 14 13
100 54 11 7 6 6 6 6 6 6 6 7 8 8 8 7 7 6 7 8 9 11 13 15 18 19 18 18 16 17 16 14 11 10 8 9 12 13 12 11 11 12 13 13 16
81 27 7 5 4 4 4 4 4 5 5 5 5 5 5 6 6 6 6 6 6 6 6 6 6 7 7 6 6 6 5 6 6 6 5 5 4 4 6 7 8 8 7 6 8

GFSSW_500_rhum_105.txt.gz
RH
35 35 37 37 35 31 28 23 23 20 18 17 31 53 60 80 94 96 96 94 82 81 77 72 69 66 67 62 48 32 20 11 8 7 6 6 8 7 5 4 6 10 14 29 13
36 36 36 44 42 39 32 28 28 24 20 15 24 54 77 92 96 84 85 83 88 89 79 75 78 74 70 55 37 22 16 10 9 8 7 8 9 10 10 12 12 13 13 24 34
37 40 38 42 47 45 37 34 32 26 23 13 30 84 87 92 90 94 87 87 92 80 84 73 61 57 49 34 18 12 10 10 8 9 9 10 12 10 14 8 9 18 24 31 38
47 47 48 44 49 49 44 40 35 27 25 20 27 92 83 94 92 98 88 78 73 50 25 20 28 28 19 9 8 9 8 10 12 16 12 14 14 12 14 14 25 48 47 25 63
54 54 54 55 55 52 47 44 36 26 22 36 52 76 85 95 96 78 59 33 14 12 14 14 12 8 5 7 11 11 14 22 31 29 24 20 18 14 16 17 34 37 43 38 85
57 61 65 59 58 54 50 46 33 21 24 36 59 87 93 98 70 46 12 12 13 10 8 6 6 7 7 9 14 26 38 54 57 42 38 29 22 21 19 15 42 54 59 69 62
72 67 61 50 54 54 51 47 28 15 18 22 64 95 99 58 42 12 22 24 16 12 12 12 18 22 30 29 35 26 32 50 80 96 56 42 28 24 23 24 64 61 81 84 61
73 59 44 34 41 50 52 48 27 17 16 55 99 98 74 35 13 20 26 35 30 30 33 33 35 38 42 54 53 45 62 61 45 66 99 74 41 31 25 20 60 62 68 91 85
56 53 33 22 18 39 53 48 27 22 21 44 98 93 27 18 21 26 30 43 42 36 38 50 56 58 58 61 59 71 68 88 73 64 68 89 54 48 32 20 44 72 63 88 99
12 13 26 12 8 21 50 52 29 27 39 92 96 49 22 23 36 44 45 39 53 60 66 81 82 97 74 84 92 95 100 89 86 71 76 88 70 55 30 22 37 78 84 98 90
34 18 10 15 9 10 42 52 37 27 69 100 60 22 22 34 38 47 48 50 67 70 84 86 100 98 76 80 98 83 88 95 100 87 100 76 65 44 49 33 40 75 99 54 77
95 63 22 10 9 8 32 53 42 49 100 94 32 26 26 30 40 56 63 60 63 68 96 100 95 93 100 59 69 91 78 72 83 100 72 64 55 46 50 43 80 94 99 76 46
52 81 39 12 8 63 31 52 39 63 98 46 26 26 27 49 51 75 66 71 82 95 100 88 84 65 52 60 67 80 86 100 100 71 69 58 56 40 35 45 83 98 93 98 70
53 83 31 14 9 10 38 50 37 100 54 30 32 32 42 45 58 76 68 66 49 39 59 54 56 56 64 66 72 96 100 100 80 57 64 32 55 60 58 68 96 100 100 87 60
52 76 70 14 9 16 41 42 100 90 30 39 34 36 40 55 70 78 71 82 58 58 54 43 64 51 70 79 84 72 94 92 100 100 84 27 100 100 92 88 100 93 85 68 90
72 65 97 14 10 25 39 100 89 24 29 43 45 53 58 63 72 90 90 75 59 57 56 57 58 94 97 71 58 62 85 100 99 100 79 100 100 82 88 86 97 99 95 92 98
63 43 21 10 13 38 64 94 32 29 36 42 46 44 56 66 77 84 95 82 88 84 52 46 43 65 87 99 98 100 100 99 97 98 38 96 75 62 72 62 82 68 81 99 98
44 30 16 11 45 57 59 38 29 36 35 40 47 50 56 74 74 85 93 99 100 92 100 100 95 60 100 100 100 100 97 98 100 100 54 99 100 89 99 94 57 60 80 92 87
28 15 11 34 47 96 96 24 34 33 29 28 35 50 59 72 80 76 86 92 96 100 100 99 74 61 98 100 100 99 99 99 99 100 99 99 99 99 96 91 93 91 80 80 96
12 13 22 42 100 93 18 22 31 26 31 29 28 41 54 74 76 75 77 87 99 98 100 86 77 64 54 97 99 100 98 84 73 83 94 98 98 98 97 98 95 99 97 94 96
22 29 40 96 97 83 16 24 24 24 33 29 26 35 49 64 74 71 81 99 100 95 100 100 76 69 84 78 84 70 75 56 58 52 44 45 57 55 81 78 89 98 97 97 95
32 33 68 100 82 19 13 18 18 22 26 23 23 34 41 52 57 60 67 75 89 99 97 76 66 64 60 66 41 37 42 40 35 37 31 36 35 29 27 30 33 35 30 41 46
85 95 100 54 16 11 11 14 20 18 18 18 25 25 42 36 40 50 50 58 78 88 99 100 92 62 54 56 40 27 21 21 28 27 26 29 24 22 21 20 19 18 21 26 25
97 83 47 15 9 8 9 10 11 13 14 19 24 24 27 29 26 24 25 35 54 60 65 66 90 85 69 46 31 27 18 26 30 23 19 20 20 21 21 23 23 19 20 21 17
71 26 10 8 7 7 8 10 11 12 14 14 14 15 17 19 19 18 18 20 30 39 40 48 52 58 61 49 32 25 16 12 15 18 18 15 14 17 21 30 34 35 31 24 19
41 12 6 5 5 5 6 6 6 7 7 8 8 8 8 8 9 9 10 12 13 16 21 22 23 26 30 31 27 23 17 15 13 11 9 9 7 5 5 5 6 8 9 8 8
15 8 5 4 4 5 5 5 6 7 8 8 7 7 8 8 6 6 6 6 6 7 7 8 8 8 8 9 10 8 7 7 6 5 4 4 5 4 4 5 5 5 5 5 6

GFSSW_500_rhum_108.txt.gz
RH
40 41 40 41 39 36 30 28 29 33 34 30 27 24 20 17 12 14 36 52 68 85 87 93 87 75 71 70 70 70 62 52 45 44 40 32 20 13 10 9 7 6 6 6 3
47 51 53 47 50 48 38 32 32 36 37 35 33 28 23 17 14 14 63 64 80 88 87 81 76 82 90 86 81 76 71 64 58 53 49 43 31 15 10 8 7 6 5 5 3
63 64 66 62 52 50 44 37 35 42 41 39 36 31 24 21 14 46 68 64 70 73 69 69 72 80 78 78 80 76 70 65 60 56 55 50 38 18 11 8 7 7 6 4 4
92 89 83 69 60 56 46 43 42 48 45 45 40 32 25 23 28 41 58 58 86 75 62 56 55 66 68 57 48 52 52 54 57 50 40 38 24 16 11 8 6 4 5 4 4
94 98 98 80 66 59 48 50 51 54 51 47 40 30 24 24 33 42 71 71 66 58 49 32 20 18 17 14 12 12 14 20 20 21 19 19 18 11 10 7 7 6 5 5 6
97 98 100 97 85 75 62 55 58 58 54 48 39 23 23 30 49 74 72 44 18 18 12 12 11 9 7 7 7 8 9 10 9 11 7 10 12 8 8 12 10 10 7 8 5
100 98 99 99 98 97 77 63 59 58 54 47 34 18 19 53 85 75 36 15 20 19 18 27 29 27 20 18 14 12 8 9 7 7 7 12 9 6 8 17 13 11 11 10 9
100 99 100 100 99 77 60 53 56 58 54 41 21 15 51 77 76 44 19 26 22 22 27 32 40 49 51 46 37 33 28 31 33 35 17 18 14 20 22 32 22 18 16 11 15
100 100 100 99 82 52 39 40 52 58 53 35 20 62 85 82 47 28 28 25 34 31 28 36 49 61 63 71 56 49 43 54 48 63 72 48 19 24 62 40 34 22 20 18 18
97 97 100 71 62 40 25 27 47 58 53 24 59 64 68 32 32 40 30 31 40 50 38 49 62 62 56 77 66 61 52 93 74 75 70 50 39 47 81 59 41 25 22 21 30
29 14 20 28 32 30 13 15 35 57 46 30 49 90 23 31 33 35 40 37 49 62 60 79 84 70 64 68 56 80 61 49 49 81 89 53 100 73 100 85 45 41 21 19 49
99 71 25 84 34 18 9 32 24 53 35 93 89 27 28 31 36 51 51 52 43 30 82 99 86 55 36 42 42 43 62 67 89 59 86 84 99 79 86 96 52 36 22 19 55
57 96 81 92 87 28 39 62 27 54 36 85 35 29 33 38 43 53 48 54 39 43 50 57 40 35 46 44 37 54 64 79 88 69 75 96 100 77 55 61 54 33 24 30 67
48 46 94 45 100 91 100 44 44 69 92 47 34 43 42 40 58 64 45 25 34 50 44 56 33 37 34 37 64 94 100 86 76 99 85 56 47 32 39 36 36 34 43 66 80
56 61 67 41 100 99 71 38 40 78 54 39 46 51 57 55 59 59 32 27 25 30 38 38 43 45 52 88 90 85 100 92 68 57 78 70 100 77 81 45 45 49 97 90 66
70 85 27 64 90 47 28 81 94 46 42 48 59 67 54 52 63 65 45 30 40 58 60 52 56 62 75 92 100 99 97 100 100 100 100 99 99 100 99 89 95 97 98 69 69
62 34 18 11 14 36 98 51 26 32 48 51 62 58 61 59 68 68 62 67 43 42 61 69 89 88 99 100 100 100 100 100 97 97 100 100 100 95 97 99 100 95 95 88 92
25 15 18 25 45 81 98 36 29 45 47 60 63 65 64 78 82 86 73 73 86 96 89 86 96 93 100 100 100 96 98 98 99 100 100 100 99 92 83 90 92 77 74 78 89
11 13 16 46 96 56 30 34 37 40 41 45 56 63 85 89 84 82 73 76 88 96 76 76 91 78 99 91 98 100 100 100 96 99 100 98 100 100 83 94 80 83 78 86 97
40 77 96 75 93 55 34 32 32 30 30 33 45 69 85 84 81 82 87 74 74 75 62 70 89 98 98 99 99 98 94 96 99 100 94 100 98 98 99 100 77 90 100 99 97
69 96 98 97 32 32 37 29 26 25 26 33 44 65 70 76 77 82 87 82 90 79 66 65 79 99 89 70 63 63 62 61 61 84 54 60 91 96 99 98 100 89 93 90 95
91 100 70 24 15 25 27 25 22 25 23 23 39 51 63 58 53 74 74 84 67 68 53 64 79 61 51 47 42 38 38 37 28 34 35 24 31 31 25 42 65 70 85 73 57
72 28 13 11 11 15 16 17 21 22 19 23 24 33 35 42 46 48 71 78 74 63 46 45 49 30 38 42 38 27 27 32 32 28 25 17 15 19 19 16 18 18 18 21 20
12 9 8 8 9 10 11 16 16 15 17 20 20 20 20 21 26 34 51 56 64 63 50 38 37 41 29 27 30 30 29 29 29 32 27 36 35 20 20 28 28 28 42 35 20
6 6 6 6 7 7 9 11 12 13 15 15 16 16 16 16 17 26 33 35 41 61 58 44 37 32 18 20 20 23 30 33 29 28 23 29 30 24 21 19 18 23 24 19 19
4 4 5 5 6 6 7 7 8 8 8 8 8 8 9 10 11 11 13 18 22 28 38 41 38 31 30 30 26 24 22 16 12 10 8 8 9 8 8 8 8 8 7 7 8
4 4 5 6 7 8 10 11 11 10 12 12 13 12 11 11 9 8 8 8 8 8 8 10 11 12 10 12 12 10 8 8 7 7 7 7 7 8 10 10 10 11 12 12 12

GFSSW_500_rhum_111.txt.gz
RH
44 46 46 45 47 45 44 39 39 35 36 31 30 28 24 26 27 25 21 17 15 12 12 20 22 39 68 85 81 75 69 57 57 55 48 49 42 40 34 28 21 18 20 21 18
53 55 57 55 58 53 53 50 50 46 39 39 32 32 33 29 31 32 25 21 16 14 19 38 49 50 68 84 74 73 71 69 69 67 63 59 55 48 38 31 27 20 21 23 22
67 66 66 71 70 67 69 66 63 61 47 42 36 35 35 32 31 34 28 25 17 14 33 50 43 54 62 67 56 64 64 75 76 73 69 62 64 57 50 42 36 33 29 24 22
98 99 97 98 97 94 95 87 80 63 51 46 38 38 37 38 37 34 31 28 24 18 17 32 50 53 51 46 48 51 67 74 72 71 69 68 71 66 63 53 46 43 41 35 27
99 98 100 98 100 98 97 98 98 76 55 49 43 43 39 42 41 35 30 26 23 21 37 46 46 45 34 30 32 30 31 46 55 46 52 64 63 63 63 60 54 51 47 43 37
99 99 99 99 99 98 99 98 96 84 63 56 49 46 49 47 38 30 30 44 66 59 45 45 31 23 16 14 15 14 16 16 14 13 16 26 43 55 55 57 53 44 46 34 33
84 99 100 99 99 100 100 99 100 92 91 68 57 54 53 42 35 30 47 54 51 37 28 17 14 12 10 11 11 11 9 8 8 8 10 11 17 29 40 35 34 29 36 32 19
89 81 99 100 100 98 99 99 98 99 76 62 59 57 47 40 37 31 54 50 26 22 23 23 21 21 26 36 30 31 23 17 22 13 12 12 13 12 13 15 22 23 26 19 14
96 94 97 100 100 99 99 98 95 74 58 61 60 51 36 46 40 57 37 28 22 21 28 28 33 32 41 51 52 48 38 43 43 36 24 22 10 14 17 14 12 15 13 16 12
97 100 100 100 100 99 98 80 43 45 56 64 51 42 48 51 44 33 31 21 30 38 33 34 50 60 70 66 50 45 42 47 45 61 48 44 14 14 13 12 11 12 14 10 8
71 95 100 100 99 86 47 28 62 74 54 58 38 36 55 48 31 29 33 54 49 38 41 33 53 67 61 33 28 24 29 35 46 50 45 44 36 28 22 11 9 15 18 23 19
97 54 92 100 50 37 26 12 26 40 57 40 68 97 34 31 32 33 46 46 55 56 46 39 30 18 19 25 28 36 49 52 61 53 48 57 62 33 80 96 95 84 51 37 29
95 26 81 67 44 18 17 80 29 48 54 82 67 30 32 29 34 56 42 36 32 31 34 22 22 26 32 36 54 69 83 62 54 62 93 92 53 71 71 95 91 85 54 41 28
52 64 100 81 37 22 87 44 39 67 83 71 45 40 33 33 50 37 26 26 26 27 25 25 31 42 46 45 47 44 53 84 74 69 48 50 47 37 30 49 49 41 45 28 22
47 72 89 100 47 100 64 37 78 85 50 47 47 48 49 52 30 29 40 39 33 31 34 43 58 52 50 59 70 78 91 87 89 99 95 85 70 57 80 69 60 30 21 24 17
59 95 79 76 36 46 34 66 83 59 55 57 67 52 61 52 34 26 28 42 47 58 67 77 74 82 96 100 100 100 100 100 100 100 98 100 100 100 94 86 52 28 38 32 56
86 94 83 35 23 65 96 90 52 45 56 65 62 64 67 49 42 25 28 43 54 69 81 81 75 92 100 100 100 100 100 100 99 100 100 100 100 100 100 98 98 100 96 85 77
18 12 13 43 90 58 32 38 42 44 48 60 70 79 72 55 44 47 41 47 55 61 69 79 74 86 100 100 100 100 93 100 100 95 100 100 100 100 100 100 99 99 79 95 97
35 46 72 97 33 27 35 44 41 50 55 62 70 71 55 60 56 55 57 58 56 52 68 85 73 94 100 98 100 100 89 97 99 100 100 100 96 98 100 94 100 98 98 76 96
95 100 36 25 28 32 36 24 24 28 45 67 56 63 60 51 60 52 60 52 53 51 90 96 98 99 100 98 100 99 100 96 98 99 98 95 96 99 99 99 97 98 92 80 97
31 40 22 25 25 29 24 22 22 28 44 48 42 44 58 65 66 67 56 50 48 62 81 75 83 86 83 85 89 97 99 84 99 96 98 97 93 100 98 97 92 89 94 98 98
10 16 19 19 16 24 18 20 21 22 25 38 38 37 42 58 72 73 54 35 31 64 78 58 48 55 58 53 51 58 60 74 58 77 59 32 82 96 99 95 99 98 98 97 95
6 8 10 15 12 12 14 17 18 17 22 24 21 22 30 50 60 66 59 31 40 60 49 37 36 46 44 50 48 51 50 52 70 65 58 61 57 63 54 31 39 52 47 47 49
6 6 7 8 9 11 11 12 13 14 14 15 15 21 29 37 45 48 47 31 38 41 36 28 30 34 36 45 43 46 43 37 36 47 46 60 50 54 70 77 69 49 36 38 33
9 10 9 8 8 8 9 9 9 10 10 10 10 13 20 25 31 43 35 24 27 22 24 33 32 39 37 36 30 24 26 23 19 13 17 12 10 12 14 17 16 12 11 11 11
11 12 13 13 13 12 12 13 12 11 10 9 8 8 8 10 17 23 25 23 20 16 17 19 18 13 10 9 8 8 8 8 8 8 10 10 11 12 13 13 13 14 13 13 13
11 13 14 15 16 16 15 16 16 16 17 17 16 16 14 12 10 9 8 8 8 7 7 7 7 8 8 8 8 9 10 12 13 15 16 16 17 18 16 16 15 14 13 15 18

GFSSW_500_rhum_114.txt.gz
RH
78 77 70 64 54 48 42 39 37 41 34 34 34 34 30 25 23 18 17 18 17 18 19 17 14 12 10 10 11 12 16 45 58 64 59 62 52 45 41 39 34 26 20 22 21
98 95 85 88 77 66 58 55 50 49 42 41 48 42 36 31 28 24 19 19 19 22 22 21 17 14 12 13 18 28 20 20 52 62 65 71 54 57 51 44 43 35 25 23 21
99 99 98 99 96 88 76 75 61 56 53 53 53 51 46 37 32 30 26 23 23 25 25 23 19 15 13 18 30 40 39 35 48 52 51 57 68 63 54 54 53 43 32 27 26
100 100 100 99 98 98 90 80 78 74 75 68 64 63 54 42 37 34 29 27 27 29 28 25 22 20 16 16 22 36 47 52 53 49 44 46 53 68 68 64 62 59 44 35 32
97 99 100 100 99 99 98 100 97 95 93 89 86 74 54 45 40 36 33 32 31 34 31 27 24 20 22 29 36 34 37 39 32 31 35 42 54 67 70 71 74 69 63 50 42
98 79 100 100 100 100 99 100 96 96 99 100 96 82 54 47 46 40 36 35 34 32 30 35 42 37 36 34 35 30 26 23 24 24 32 37 42 48 49 72 74 75 72 63 54
79 85 64 100 100 100 100 99 98 98 100 100 90 76 63 62 56 43 40 38 34 32 27 30 39 31 26 23 18 14 12 11 10 11 20 25 32 35 48 53 56 69 68 66 62
100 84 57 80 99 98 100 100 99 100 100 96 84 81 82 61 48 45 41 36 32 44 40 33 26 16 15 16 13 14 10 11 16 12 13 13 16 21 23 23 26 37 57 61 58
80 60 83 70 89 100 100 98 99 100 95 98 96 74 59 52 48 43 37 43 41 28 22 18 18 19 21 24 21 16 12 17 19 25 20 14 12 15 19 18 19 18 30 42 44
53 92 100 100 96 87 99 100 100 100 98 83 66 59 54 49 44 45 40 30 30 28 25 21 24 27 28 23 17 22 28 24 18 41 23 16 9 13 18 18 15 14 15 23 34
54 99 100 100 100 100 100 100 99 86 65 60 57 54 48 43 46 31 31 29 30 37 30 35 44 39 19 19 23 21 28 36 32 38 28 47 12 17 11 17 12 13 14 13 16
39 100 100 100 100 100 87 63 73 69 51 56 50 46 55 39 29 30 37 39 37 33 40 29 17 13 17 24 27 31 28 34 45 60 80 68 84 60 66 17 12 12 12 14 15
75 100 98 97 69 93 46 35 50 47 56 56 71 64 36 28 32 39 25 24 24 28 21 18 22 26 28 30 34 37 40 41 44 80 70 52 55 42 38 46 51 39 22 12 11
60 100 55 49 47 35 51 31 39 54 60 65 44 41 29 34 36 26 27 28 32 24 24 29 37 45 55 69 79 91 97 96 57 37 54 44 36 50 54 49 63 79 60 48 45
40 36 27 44 43 26 19 38 56 64 64 67 50 44 42 38 33 49 37 36 37 40 46 53 66 76 81 87 93 100 98 100 100 97 93 47 57 88 74 58 41 56 45 34 29
34 33 29 30 24 21 30 62 91 69 55 59 62 48 39 30 35 37 40 49 56 55 54 67 79 78 93 100 100 100 100 95 98 91 100 100 100 100 100 100 62 37 28 32 22
36 34 38 32 34 60 78 86 55 50 62 58 52 50 45 30 30 26 33 41 44 45 52 56 62 72 92 93 97 90 100 89 99 100 99 100 100 100 100 62 32 34 54 37 53
87 85 72 60 57 49 45 46 44 46 54 65 61 53 48 32 26 24 26 31 37 34 39 64 80 68 92 100 98 98 98 100 100 100 100 100 100 96 100 96 94 96 100 100 98
33 30 28 34 39 37 37 44 52 60 65 63 64 63 48 35 38 27 30 27 48 57 66 69 76 85 99 100 100 99 100 98 98 95 100 97 100 91 92 93 98 98 98 99 99
20 25 26 25 23 24 26 25 43 50 63 72 65 54 47 41 38 33 34 44 63 56 68 88 100 100 100 99 100 100 96 99 96 92 88 98 96 96 98 99 97 98 100 98 98
15 20 23 24 27 27 24 20 32 47 50 50 58 51 39 33 31 35 37 60 61 55 81 88 95 90 100 100 97 100 95 100 99 85 88 82 95 98 99 99 99 97 99 99 98
8 10 14 15 24 27 22 20 21 28 29 33 46 52 45 38 32 31 52 62 66 67 62 58 63 63 65 73 75 83 83 96 93 100 83 75 94 99 98 88 99 99 98 99 96
10 8 9 9 11 13 13 15 16 17 21 30 45 46 40 24 22 35 40 37 37 31 30 36 37 37 41 41 49 48 43 39 54 92 98 99 100 96 100 98 90 79 91 88 80
12 13 12 11 9 9 8 9 11 22 28 32 33 19 16 17 24 34 36 31 28 31 32 37 35 32 31 30 30 19 25 26 35 48 64 64 67 86 88 80 72 66 52 34 35
15 16 15 16 16 14 12 10 8 10 21 25 20 12 11 16 23 26 34 35 26 18 17 18 14 12 11 9 7 7 7 8 8 9 9 9 9 10 11 12 10 10 11 9 8
15 16 17 17 17 17 18 18 15 13 9 8 14 10 13 14 22 23 18 20 12 7 8 7 6 7 7 9 10 10 12 14 15 15 18 16 13 13 12 12 13 12 11 10 11
15 16 16 18 18 18 18 18 18 19 20 18 14 10 8 11 16 13 6 7 7 8 8 9 10 10 10 11 11 12 12 14 15 16 17 16 15 15 16 15 14 12 11 12 12

GFSSW_500_rhum_117.txt.gz
RH
100 99 98 98 93 79 64 57 47 39 32 24 26 29 27 24 23 24 24 22 19 16 13 12 11 12 12 11 11 10 7 7 6 6 16 56 61 37 27 30 33 22 15 15 18
100 100 100 99 97 100 85 75 67 62 47 34 31 35 35 30 30 29 30 26 22 19 15 14 13 14 13 14 12 12 10 8 8 8 9 16 45 60 49 36 43 39 28 23 22
100 100 100 100 99 98 96 96 82 68 57 46 47 48 42 38 36 36 34 30 26 24 22 18 16 14 16 16 14 13 11 12 10 9 10 17 27 50 57 58 48 45 40 33 28
100 93 100 100 99 100 98 98 96 90 76 63 61 59 54 48 48 46 42 38 32 30 25 21 19 18 17 17 17 14 14 12 12 13 13 23 28 49 48 52 70 64 50 40 31
99 86 95 100 100 100 98 100 98 98 96 90 73 68 62 61 60 55 51 42 36 32 29 25 22 21 20 21 20 18 16 13 12 13 20 31 36 32 32 48 58 68 72 61 46
100 92 73 100 100 100 99 100 97 99 92 91 87 86 89 86 74 70 60 45 38 36 32 29 27 25 22 23 23 24 19 20 25 28 23 27 33 35 28 36 43 55 75 71 63
98 95 84 74 100 99 100 98 96 97 94 96 90 86 90 91 75 68 56 49 49 45 39 32 28 26 24 22 27 30 28 26 25 24 26 23 22 27 25 24 28 43 60 75 63
52 45 36 43 97 98 99 100 99 98 98 97 93 100 100 83 74 66 65 59 47 37 34 31 30 35 31 24 26 25 22 17 19 18 16 15 15 16 16 18 25 30 45 63 76
82 79 58 95 70 100 100 100 99 100 99 96 99 99 89 79 79 67 50 41 36 35 36 34 30 28 27 23 19 16 16 15 15 19 14 11 11 12 18 19 16 24 32 54 70
65 56 42 99 77 100 99 100 100 100 100 94 97 92 80 67 54 45 42 43 40 35 32 29 27 25 20 22 22 20 14 12 9 11 8 7 7 8 12 20 16 15 20 32 53
70 84 91 100 100 100 100 100 100 100 98 99 86 69 56 49 44 42 36 28 26 23 21 19 22 30 36 22 14 12 17 22 28 34 35 38 15 27 15 11 12 14 15 18 27
100 94 100 100 100 100 99 100 100 98 98 81 58 49 46 52 36 26 26 22 22 22 23 24 23 18 12 17 30 41 60 60 39 50 54 59 55 55 47 39 11 7 14 14 16
100 100 100 100 100 100 99 91 77 60 55 53 48 50 53 31 25 23 20 20 21 21 23 19 26 26 37 57 72 87 93 97 62 52 50 46 51 56 51 61 48 16 6 8 14
100 100 100 98 99 88 70 56 50 52 54 66 59 50 33 27 28 28 27 27 28 32 43 55 61 67 68 84 87 100 100 100 100 97 96 67 70 90 75 44 81 64 47 16 10
48 58 63 44 34 35 35 44 54 68 64 51 46 31 33 34 25 39 42 42 44 51 55 57 58 72 84 82 75 56 82 92 95 92 93 100 100 98 99 56 56 72 95 100 100
29 26 26 21 26 36 50 60 67 62 58 52 42 41 37 33 38 37 42 46 42 42 47 42 41 68 59 64 60 69 78 84 87 86 96 100 100 100 98 83 36 52 54 69 50
43 55 70 74 77 83 80 66 59 51 46 44 43 42 32 36 30 26 33 35 33 35 30 37 40 52 65 66 79 83 81 81 79 98 98 100 100 99 79 32 30 31 34 30 36
27 34 39 44 48 48 45 47 51 53 47 48 47 39 28 30 26 25 30 33 25 28 42 52 57 63 49 78 78 73 87 93 95 99 100 100 100 93 74 61 86 94 95 90 99
19 19 21 30 48 56 60 62 57 57 60 52 42 32 22 26 23 23 29 41 44 42 49 61 63 87 82 92 83 92 90 94 100 100 94 84 82 98 99 99 99 99 98 99 98
22 22 22 22 31 48 52 54 52 48 46 47 36 28 24 23 24 26 41 43 48 71 85 80 82 91 94 94 80 95 100 96 95 98 98 98 96 87 98 98 98 98 98 97 99
18 22 22 21 22 27 44 36 46 56 58 51 40 33 25 22 26 41 47 49 63 72 63 63 69 72 62 71 81 91 97 97 94 98 90 80 96 99 98 98 99 98 98 98 99
10 12 12 18 19 19 21 28 35 41 43 41 29 29 21 26 39 40 42 38 38 36 33 34 35 40 33 38 38 39 54 88 85 96 98 95 97 97 100 100 97 97 97 96 96
13 9 8 10 15 17 24 29 33 33 30 23 19 20 29 36 41 40 35 30 29 30 29 25 23 24 24 22 26 37 45 79 100 100 94 96 97 95 95 99 93 96 96 95 94
16 16 13 8 8 15 17 14 13 15 15 16 18 24 28 35 34 26 29 32 32 25 22 14 15 8 7 8 12 19 21 29 42 45 53 78 91 81 62 45 54 50 40 33 39
17 17 18 17 12 7 9 10 11 12 12 14 17 18 23 26 27 22 25 30 14 10 9 7 6 7 8 10 10 10 9 8 8 9 12 20 25 14 10 14 17 14 11 9 8
16 18 18 18 18 16 10 8 10 12 14 12 12 11 13 16 20 22 19 8 6 7 7 8 8 10 12 13 14 14 13 13 13 14 14 14 13 12 12 11 11 13 11 11 10
14 16 17 19 18 17 17 16 10 9 9 7 8 12 15 18 16 7 7 8 9 10 10 11 12 13 14 14 14 14 14 14 13 12 12 12 14 12 12 11 9 7 6 5 4

GFSSW_500_rhum_120.txt.gz
RH
100 99 99 100 99 97 98 91 83 58 46 40 31 26 25 21 18 17 14 16 17 18 20 19 17 12 8 8 9 8 6 5 6 8 8 8 6 6 18 41 26 23 20 15 17
100 100 82 99 100 99 97 98 98 81 63 48 40 33 29 26 24 22 23 21 21 22 24 23 21 19 16 12 10 9 8 7 6 6 7 9 8 7 5 8 38 36 25 21 20
100 100 100 79 100 99 100 98 98 95 100 61 46 43 42 34 31 30 27 25 26 27 28 28 25 24 22 17 13 12 10 10 8 7 6 7 9 8 7 6 11 32 45 29 20
85 100 100 84 77 98 99 98 100 98 100 73 61 54 48 44 41 37 35 33 34 34 34 32 30 28 26 24 18 15 12 11 10 9 7 8 8 7 6 7 7 7 21 47 42
94 100 98 100 97 93 96 99 99 100 96 81 77 64 57 50 47 45 45 44 43 43 43 41 37 34 32 29 24 19 16 13 12 12 10 8 8 11 8 8 11 20 14 43 55
92 100 98 84 100 90 93 100 98 99 97 90 95 89 68 59 63 56 57 66 67 60 56 55 49 44 38 34 29 22 20 18 15 13 12 11 10 9 11 13 14 16 19 26 43
100 100 92 60 100 85 96 100 98 99 100 97 99 98 94 92 85 86 76 70 60 59 57 52 46 42 40 37 32 26 21 20 19 20 21 18 10 10 11 16 18 23 27 32 38
99 76 87 59 100 83 98 100 100 100 97 96 98 97 93 94 90 81 74 72 66 59 52 49 45 40 30 25 22 21 20 22 22 22 22 19 12 15 18 20 20 21 24 30 33
46 39 40 44 100 98 100 100 100 99 95 97 94 98 98 95 92 83 76 70 64 58 51 42 30 23 20 20 21 23 22 23 22 21 19 18 14 16 16 16 16 16 16 21 26
37 42 40 79 100 99 100 100 97 97 100 100 100 100 94 88 84 78 66 56 46 38 29 24 21 20 21 23 23 24 20 15 14 20 28 22 13 13 13 11 12 14 14 16 18
55 57 100 100 100 100 100 98 99 99 97 100 94 89 80 72 56 46 39 36 32 27 23 22 22 23 23 23 20 12 20 42 44 40 34 37 19 34 40 37 20 6 8 12 14
80 100 100 100 100 100 100 100 100 100 100 96 92 74 57 48 44 40 35 29 26 21 18 16 13 12 11 12 31 56 55 42 43 39 46 46 45 62 75 68 49 44 38 7 8
74 88 88 98 100 100 100 100 100 100 100 78 55 48 48 46 31 28 20 18 22 22 34 44 43 42 53 58 53 46 44 47 52 54 63 60 81 75 92 83 43 61 58 21 7
83 63 82 90 99 100 100 100 95 82 62 54 49 49 42 28 24 20 26 36 47 50 51 52 54 58 53 40 40 46 55 65 63 55 61 76 66 99 98 100 53 59 85 86 46
57 86 84 75 63 58 57 55 59 62 61 56 52 44 27 28 30 36 35 41 41 37 43 44 41 51 52 44 46 56 72 78 83 75 80 92 86 100 100 100 42 51 95 100 100
26 30 36 42 47 51 61 68 66 64 53 50 36 34 27 36 34 31 30 29 28 30 30 32 35 46 41 50 54 61 77 92 93 86 86 91 100 100 63 46 36 45 89 100 100
64 76 75 74 73 68 66 64 58 60 50 36 31 27 34 29 26 25 26 22 26 32 41 46 44 49 53 59 58 72 78 84 88 92 90 83 85 98 96 88 96 100 84 94 100
36 40 41 41 41 43 45 44 45 42 34 32 29 28 30 24 22 22 20 36 50 58 69 51 60 71 62 68 64 64 70 73 78 81 86 87 99 98 100 98 99 98 98 97 98
24 35 39 45 49 48 48 52 46 41 37 32 25 26 22 20 18 23 37 55 68 60 62 78 79 79 79 80 80 65 64 77 92 87 97 94 97 99 98 98 100 100 99 98 99
20 25 32 40 49 46 41 38 37 32 28 23 20 20 18 16 20 42 56 66 70 69 67 67 60 52 67 67 68 76 72 79 88 95 97 94 96 97 100 95 99 98 98 98 100
16 20 27 28 34 40 42 30 24 20 18 18 18 18 17 26 40 46 47 41 31 29 31 34 37 38 41 38 40 69 74 80 85 88 99 90 97 97 99 100 97 98 95 96 99
13 14 16 17 19 26 26 16 14 13 14 15 16 21 34 38 36 27 26 26 24 24 25 25 28 25 20 23 28 60 77 70 72 79 96 100 99 100 97 100 100 96 96 87 84
10 11 11 10 10 12 13 13 14 15 17 20 23 30 34 30 28 23 29 28 20 16 12 15 12 9 8 13 20 31 71 62 65 70 76 76 82 99 100 98 94 74 74 76 71
7 8 8 8 7 7 8 10 12 13 15 18 20 23 26 19 20 24 30 31 13 9 7 8 8 8 8 7 7 10 13 19 25 41 74 58 41 35 76 54 47 39 49 36 26
16 10 7 8 8 8 8 8 9 10 9 11 17 20 22 20 22 24 19 7 6 6 7 8 10 12 12 12 11 11 10 9 9 8 8 8 8 9 9 8 8 8 8 8 8
17 16 16 8 8 8 9 9 10 10 10 11 12 12 13 14 13 7 7 7 8 8 9 10 12 13 14 15 15 14 15 15 13 12 13 12 12 13 13 10 8 7 7 7 7
17 18 17 17 15 10 8 8 8 8 8 8 8 10 11 10 8 8 9 10 10 12 13 14 15 15 15 16 16 15 15 14 15 15 13 11 10 10 10 9 8 6 5 4 4

GFSSW_500_rhum_123.txt.gz
RH
100 96 43 88 100 99 97 100 89 88 74 59 42 32 26 24 20 16 13 10 10 9 10 12 14 16 17 16 14 10 8 6 6 6 7 7 6 5 5 5 5 8 23 28 18
100 100 100 46 84 99 99 97 100 100 91 76 62 47 35 29 27 22 18 16 12 12 12 13 15 18 20 20 19 18 18 16 10 7 7 7 6 5 5 5 5 4 5 11 31
88 100 100 100 49 97 96 99 97 99 99 92 83 62 46 36 32 28 23 20 19 18 17 16 16 19 22 24 23 22 21 21 18 14 10 8 8 7 6 6 7 6 5 5 6
70 86 100 100 93 38 98 99 99 96 98 94 91 77 58 46 36 32 29 26 24 23 22 22 22 23 25 27 26 24 25 24 23 21 17 13 11 9 8 7 6 6 6 6 5
96 90 96 100 80 52 60 98 100 100 100 99 99 90 66 53 44 36 34 33 31 32 31 29 29 30 32 30 30 30 30 30 27 25 22 18 15 13 11 11 9 8 6 6 7
100 100 100 100 84 52 46 98 100 99 100 100 86 94 83 62 54 43 38 37 39 41 39 39 41 41 40 39 39 40 39 35 30 26 22 17 17 14 14 13 12 10 7 6 6
81 100 99 73 95 66 99 89 100 100 96 88 82 99 81 79 71 54 49 48 48 46 49 49 48 45 44 42 39 36 34 30 27 24 22 19 16 18 18 16 13 11 9 8 7
100 86 66 53 76 100 100 79 96 100 100 100 93 88 84 81 83 89 79 66 65 62 56 50 45 41 39 36 35 32 27 20 19 17 15 15 12 15 16 15 13 12 10 9 7
56 82 34 53 96 100 100 99 91 92 100 98 96 94 91 92 93 84 75 68 62 55 47 42 40 36 35 31 26 20 17 15 15 14 14 16 11 14 14 11 10 12 12 10 9
34 66 79 100 100 100 100 100 98 94 97 86 90 96 96 94 84 77 70 61 54 48 44 40 35 30 24 20 17 15 14 15 15 16 17 19 14 15 18 17 15 14 13 12 12
28 100 100 100 100 100 100 99 100 100 99 98 96 95 87 79 72 64 57 49 39 32 26 22 20 18 17 16 15 15 18 18 22 22 23 35 30 33 39 41 41 38 33 18 12
81 97 100 100 100 100 100 100 100 92 97 94 94 83 78 68 53 43 35 27 22 18 15 14 13 13 14 14 14 17 26 34 42 36 32 32 34 48 50 36 50 60 68 39 37
89 74 98 100 100 100 100 100 100 100 99 89 80 67 52 45 36 26 20 24 27 23 23 27 38 44 39 40 34 38 45 50 45 51 58 44 43 71 73 66 61 80 59 47 56
93 84 89 100 100 99 92 100 99 87 81 62 52 48 38 28 21 24 33 33 36 35 45 37 38 39 39 34 38 48 60 69 68 55 55 61 62 89 81 62 43 58 48 78 88
90 92 92 86 90 92 93 96 90 76 60 55 50 35 28 29 27 28 27 34 32 32 32 26 32 38 39 39 48 66 70 73 76 62 59 63 63 80 84 98 90 50 65 100 99
49 47 51 60 66 72 76 66 57 54 48 44 31 25 32 31 29 25 26 24 24 23 26 34 43 48 46 50 61 68 66 80 85 75 53 71 89 93 94 100 100 100 90 91 94
46 50 61 61 62 59 51 46 42 38 32 26 23 32 28 25 22 21 18 17 21 36 48 64 63 68 65 63 55 64 66 71 71 74 87 93 96 98 99 97 100 98 95 96 100
38 43 41 41 38 34 41 42 40 33 26 22 29 27 24 20 18 16 25 37 48 63 83 63 72 75 67 60 57 68 64 70 88 88 93 96 99 100 100 100 100 100 100 100 100
38 34 33 31 32 32 30 29 24 23 20 19 22 23 18 15 17 34 54 66 65 59 52 45 41 46 47 52 62 75 73 76 87 81 97 97 98 96 99 100 100 100 97 100 100
32 30 23 25 25 22 21 15 12 13 15 16 14 14 13 24 47 60 53 39 35 34 31 31 34 25 32 46 62 73 70 77 73 83 86 98 97 91 94 87 89 91 96 97 98
16 15 12 12 11 11 12 12 12 13 14 15 19 29 38 43 38 28 26 27 28 24 22 20 20 17 23 46 60 56 62 66 73 68 90 86 97 98 97 98 97 98 99 100 99
11 12 12 13 13 13 13 15 17 20 23 26 25 22 21 22 26 34 42 27 15 13 14 11 10 10 15 33 57 52 54 60 66 66 69 87 94 100 95 91 97 97 96 95 98
9 10 11 13 14 15 17 20 22 24 21 18 17 18 20 25 28 30 22 9 8 8 9 8 8 8 8 11 13 18 27 27 54 54 43 45 61 53 63 69 40 45 33 30 65
7 8 9 10 10 10 11 13 16 17 18 17 18 19 19 20 15 8 6 7 8 9 10 10 10 10 10 10 9 8 8 8 8 9 10 15 20 16 10 10 10 10 8 8 7
7 6 6 7 8 8 9 9 10 11 12 14 14 13 12 14 7 6 6 7 8 9 10 11 12 12 12 13 13 12 12 12 12 12 12 12 11 11 9 10 10 9 9 7 7
14 12 7 7 7 6 8 8 7 8 9 10 11 10 10 9 8 8 9 9 10 11 12 12 12 13 12 12 12 12 12 12 11 10 10 9 10 11 10 10 8 8 6 6 5
14 16 14 13 10 8 8 7 8 8 7 7 8 8 8 9 10 11 12 12 13 13 14 14 14 14 13 12 11 11 10 10 10 8 7 6 6 5 5 5 4 4 4 5 6